[[{"header":{"parameterUnit":"m.s-1","parameterCategory":1,"la1":30.6,"la2":28.766,"lo1":-90.7593,"lo2":-88.6598,"dy":0.0162,"dx":0.0183,"nx":116,"ny":114,"refTime":"2023-05-21T00:00:00:Z","depth":0,"parameterNumber":2,"parameterNumberName":"U-component_of_WINDS"},"data":[0.0,0.0,0.0,0.0,0.0,0.0,0.0,0.0,0.0,0.0,0.0,0.0,0.0,0.0,0.0,0.0,0.0,0.0,0.0,0.0,0.0,0.0,0.0,0.0,0.0,0.0,0.0,0.0,0.0,0.0,0.0,0.0,0.0,0.0,0.0,0.0,0.0,0.0,0.0,0.0,0.0,0.0,0.0,0.0,0.0,0.0,0.0,0.0,0.0,0.0,0.0,0.0,0.0,0.0,0.0,0.0,0.0,0.0,0.0,0.0,0.0,0.0,0.0,0.0,0.0,0.0,0.0,0.0,0.0,0.0,0.0,0.0,0.0,0.0,0.0,0.0,0.0,0.0,0.0,0.0,0.0,0.0,0.0,0.0,0.0,0.0,0.0,0.0,0.0,0.0,0.0,0.0,0.0,0.0,0.0,0.0,0.0,0.0,0.0,0.0,0.0,0.0,0.0,0.0,0.0,0.0,0.0,0.0,0.0,0.0,0.0,0.0,0.0,0.0,0.0,0.0,0.0,0.0,0.0,0.0,0.0,0.0,0.0,0.0,0.0,0.0,0.0,0.0,0.0,0.0,0.0,0.0,0.0,0.0,0.0,0.0,0.0,0.0,0.0,0.0,0.0,0.0,0.0,0.0,0.0,0.0,0.0,0.0,0.0,0.0,0.0,0.0,0.0,0.0,0.0,0.0,0.0,0.0,0.0,0.0,0.0,0.0,0.0,0.0,0.0,0.0,0.0,0.0,0.0,0.0,0.0,0.0,0.0,0.0,0.0,0.0,0.0,0.0,0.0,0.0,0.0,0.0,0.0,0.0,0.0,0.0,0.0,0.0,0.0,0.0,0.0,0.0,0.0,0.0,0.0,0.0,0.0,0.0,0.0,0.0,0.0,0.0,0.0,0.0,0.0,0.0,0.0,0.0,0.0,0.0,0.0,0.0,0.0,0.0,0.0,0.0,0.0,0.0,0.0,0.0,0.0,0.0,0.0,0.0,0.0,0.0,0.0,0.0,0.0,0.0,0.0,0.0,0.0,0.0,0.0,0.0,0.0,0.0,0.0,0.0,0.0,0.0,0.0,0.0,0.0,0.0,0.0,0.0,0.0,0.0,0.0,0.0,0.0,0.0,0.0,0.0,0.0,0.0,0.0,0.0,0.0,0.0,0.0,0.0,0.0,0.0,0.0,0.0,0.0,0.0,0.0,0.0,0.0,0.0,0.0,0.0,0.0,0.0,0.0,0.0,0.0,0.0,0.0,0.0,0.0,0.0,0.0,0.0,0.0,0.0,0.0,0.0,0.0,0.0,0.0,0.0,0.0,0.0,0.0,0.0,0.0,0.0,0.0,0.0,0.0,0.0,0.0,0.0,0.0,0.0,0.0,0.0,0.0,0.0,0.0,0.0,0.0,0.0,0.0,0.0,0.0,0.0,0.0,0.0,0.0,0.0,0.0,0.0,0.0,0.0,0.0,0.0,0.0,0.0,0.0,0.0,0.0,0.0,0.0,0.0,0.0,0.0,0.0,0.0,0.0,0.0,0.0,0.0,0.0,0.0,0.0,0.0,0.0,0.0,0.0,0.0,0.0,0.0,0.0,0.0,0.0,0.0,0.0,0.0,0.0,0.0,0.0,0.0,0.0,0.0,0.0,0.0,0.0,0.0,0.0,0.0,0.0,0.0,0.0,0.0,0.0,0.0,0.0,0.0,0.0,0.0,0.0,0.0,0.0,0.0,0.0,0.0,0.0,0.0,0.0,0.0,0.0,0.0,0.0,0.0,0.0,0.0,0.0,0.0,0.0,0.0,0.0,0.0,0.0,0.0,0.0,0.0,0.0,0.0,0.0,0.0,0.0,0.0,0.0,0.0,0.0,0.0,0.0,0.0,0.0,0.0,0.0,0.0,0.0,0.0,0.0,0.0,0.0,0.0,0.0,0.0,0.0,0.0,0.0,0.0,0.0,0.0,0.0,0.0,0.0,0.0,0.0,0.0,0.0,0.0,0.0,0.0,0.0,0.0,0.0,0.0,0.0,0.0,0.0,0.0,0.0,0.0,0.0,0.0,0.0,0.0,0.0,0.0,0.0,0.0,0.0,0.0,0.0,0.0,0.0,0.0,0.0,0.0,0.0,0.0,0.0,0.0,0.0,0.0,0.0,0.0,0.0,0.0,0.0,0.0,0.0,0.0,0.0,0.0,0.0,0.0,0.0,0.0,0.0,0.0,0.0,0.0,0.0,0.0,0.0,0.0,0.0,0.0,0.0,0.0,0.0,0.0,0.0,0.0,0.0,0.0,0.0,0.0,0.0,0.0,0.0,0.0,0.0,0.0,0.0,0.0,0.0,0.0,0.0,0.0,0.0,0.0,0.0,0.0,0.0,0.0,0.0,0.0,0.0,0.0,0.0,0.0,0.0,0.0,0.0,0.0,0.0,0.0,0.0,0.0,0.0,0.0,0.0,0.0,0.0,0.0,0.0,0.0,0.0,0.0,0.0,0.0,0.0,0.0,0.0,0.0,0.0,0.0,0.0,0.0,0.0,0.0,0.0,0.0,0.0,0.0,0.0,0.0,0.0,0.0,0.0,0.0,0.0,0.0,0.0,0.0,0.0,0.0,0.0,0.0,0.0,0.0,0.0,0.0,0.0,0.0,0.0,0.0,0.0,0.0,0.0,0.0,0.0,0.0,0.0,0.0,0.0,0.0,0.0,0.0,0.0,0.0,0.0,0.0,0.0,0.0,0.0,0.0,0.0,0.0,0.0,0.0,0.0,0.0,0.0,0.0,0.0,0.0,0.0,0.0,0.0,0.0,0.0,0.0,0.0,0.0,0.0,0.0,0.0,0.0,0.0,0.0,0.0,0.0,0.0,0.0,0.0,0.0,0.0,0.0,0.0,0.0,0.0,0.0,0.0,0.0,0.0,0.0,0.0,0.0,0.0,0.0,0.0,0.0,0.0,0.0,0.0,0.0,0.0,0.0,0.0,0.0,0.0,0.0,0.0,0.0,0.0,0.0,0.0,0.0,0.0,0.0,0.0,0.0,0.0,0.0,0.0,0.0,0.0,0.0,0.0,0.0,0.0,0.0,0.0,0.0,0.0,0.0,0.0,0.0,0.0,0.0,0.0,0.0,0.0,0.0,0.0,0.0,0.0,0.0,0.0,0.0,0.0,0.0,0.0,0.0,0.0,0.0,0.0,0.0,0.0,0.0,0.0,0.0,0.0,0.0,0.0,0.0,0.0,0.0,0.0,0.0,0.0,0.0,0.0,0.0,0.0,0.0,0.0,0.0,0.0,0.0,0.0,0.0,0.0,0.0,0.0,0.0,0.0,0.0,0.0,0.0,0.0,0.0,0.0,0.0,0.0,0.0,0.0,0.0,0.0,0.0,0.0,0.0,0.0,0.0,0.0,0.0,0.0,0.0,0.0,0.0,0.0,0.0,0.0,0.0,0.0,0.0,0.0,0.0,0.0,0.0,0.0,0.0,0.0,0.0,0.0,0.0,0.0,0.0,0.0,0.0,0.0,0.0,0.0,0.0,0.0,0.0,0.0,0.0,0.0,0.0,0.0,0.0,0.0,0.0,0.0,0.0,0.0,0.0,0.0,0.0,0.0,0.0,0.0,0.0,0.0,0.0,0.0,0.0,0.0,0.0,0.0,0.0,0.0,0.0,0.0,0.0,0.0,0.0,0.0,0.0,0.0,0.0,0.0,0.0,0.0,0.0,0.0,0.0,0.0,0.0,0.0,0.0,0.0,0.0,0.0,0.0,0.0,0.0,0.0,0.0,0.0,0.0,0.0,0.0,0.0,0.0,0.0,0.0,0.0,0.0,0.0,0.0,0.0,0.0,0.0,0.0,0.0,0.0,0.0,0.0,0.0,0.0,0.0,0.0,0.0,0.0,0.0,0.0,0.0,0.0,0.0,0.0,0.0,0.0,0.0,0.0,0.0,0.0,0.0,0.0,0.0,0.0,0.0,0.0,0.0,0.0,0.0,0.0,0.0,0.0,0.0,0.0,0.0,0.0,0.0,0.0,0.0,0.0,0.0,0.0,0.0,0.0,0.0,0.0,0.0,0.0,0.0,0.0,0.0,0.0,0.0,0.0,0.0,0.0,0.0,0.0,0.0,0.0,0.0,0.0,0.0,0.0,0.0,0.0,0.0,0.0,0.0,0.0,0.0,0.0,0.0,0.0,0.0,0.0,0.0,0.0,0.0,0.0,0.0,0.0,0.0,0.0,0.0,0.0,0.0,0.0,0.0,0.0,0.0,0.0,0.0,0.0,0.0,0.0,0.0,0.0,0.0,0.0,0.0,0.0,0.0,0.0,0.0,0.0,0.0,0.0,0.0,0.0,0.0,0.0,0.0,0.0,0.0,0.0,0.0,0.0,0.0,0.0,0.0,0.0,0.0,0.0,0.0,0.0,0.0,0.0,0.0,0.0,0.0,0.0,0.0,0.0,0.0,0.0,0.0,0.0,0.0,0.0,0.0,0.0,0.0,0.0,0.0,0.0,0.0,0.0,0.0,0.0,0.0,0.0,0.0,0.0,0.0,0.0,0.0,0.0,0.0,0.0,0.0,0.0,0.0,0.0,0.0,0.0,0.0,0.0,0.0,0.0,0.0,0.0,0.0,0.0,0.0,0.0,0.0,0.0,0.0,0.0,0.0,0.0,0.0,0.0,0.0,0.0,0.0,0.0,0.0,0.0,0.0,0.0,0.0,0.0,0.0,0.0,0.0,0.0,0.0,0.0,0.0,0.0,0.0,0.0,0.0,0.0,0.0,0.0,0.0,0.0,0.0,0.0,0.0,0.0,0.0,0.0,0.0,0.0,0.0,0.0,0.0,0.0,0.0,0.0,0.0,0.0,0.0,0.0,0.0,0.0,0.0,0.0,0.0,0.0,0.0,0.0,0.0,0.0,0.0,0.0,0.0,0.0,0.0,0.0,0.0,0.0,0.0,0.0,0.0,0.0,0.0,0.0,0.0,0.0,0.0,0.0,0.0,0.0,0.0,0.0,0.0,0.0,0.0,0.0,0.0,0.0,0.0,0.0,0.0,0.0,0.0,0.0,0.0,0.0,0.0,0.0,0.0,0.0,0.0,0.0,0.0,0.0,0.0,0.0,0.0,0.0,0.0,0.0,0.0,0.0,0.0,0.0,0.0,0.0,0.0,0.0,0.0,0.0,0.0,0.0,0.0,0.0,0.0,0.0,0.0,0.0,0.0,0.0,0.0,0.0,0.0,0.0,0.0,0.0,0.0,0.0,0.0,0.0,0.0,0.0,0.0,0.0,0.0,0.0,0.0,0.0,0.0,0.0,0.0,0.0,0.0,0.0,0.0,0.0,0.0,0.0,0.0,0.0,0.0,0.0,0.0,0.0,0.0,0.0,0.0,0.0,0.0,0.0,0.0,0.0,0.0,0.0,0.0,0.0,0.0,0.0,0.0,0.0,0.0,0.0,0.0,0.0,0.0,0.0,0.0,0.0,0.0,0.0,0.0,0.0,0.0,0.0,0.0,0.0,0.0,0.0,0.0,0.0,0.0,0.0,0.0,0.0,0.0,0.0,0.0,0.0,0.0,0.0,0.0,0.0,0.0,0.0,0.0,0.0,0.0,0.0,0.0,0.0,0.0,0.0,0.0,0.0,0.0,0.0,0.0,0.0,0.0,0.0,0.0,0.0,0.0,0.0,0.0,0.0,0.0,0.0,0.0,0.0,0.0,0.0,0.0,0.0,0.0,0.0,0.0,0.0,0.0,0.0,0.0,0.0,0.0,0.0,0.0,0.0,0.0,0.0,0.0,0.0,0.0,0.0,0.0,0.0,0.0,0.0,0.0,0.0,0.0,0.0,0.0,0.0,0.0,0.0,0.0,0.0,0.0,0.0,0.0,0.0,0.0,0.0,0.0,0.0,0.0,0.0,0.0,0.0,0.0,0.0,0.0,0.0,0.0,0.0,0.0,0.0,0.0,0.0,0.0,0.0,0.0,0.0,0.0,0.0,0.0,0.0,0.0,0.0,0.0,0.0,0.0,0.0,0.0,0.0,0.0,0.0,0.0,0.0,0.0,0.0,0.0,0.0,0.0,0.0,0.0,0.0,0.0,0.0,0.0,0.0,0.0,0.0,0.9705,0.0,0.0,0.0,0.0,0.0,0.0,0.0,0.0,0.0,0.0,0.0,0.0,0.0,0.0,0.0,0.0,0.0,0.0,0.0,0.0,0.0,0.0,0.0,0.0,0.0,0.0,0.0,0.0,0.0,0.0,0.0,0.0,0.0,0.0,0.0,0.0,0.0,0.0,1.6807,1.6941,1.7076,1.7227,1.6701,1.5875,1.4787,0.0,0.0,0.0,0.0,0.0,0.0,0.0,0.0,0.0,0.0,0.0,0.0,0.0,0.0,0.0,0.0,0.0,0.0,0.0,0.0,0.0,0.0,0.0,0.0,0.0,0.0,0.0,0.0,0.0,0.0,0.0,0.0,0.0,0.0,0.0,0.0,0.0,0.0,0.0,0.0,0.0,0.0,0.0,0.0,0.0,0.0,0.0,0.0,0.0,0.0,0.0,0.0,0.0,0.0,0.0,0.0,0.0,0.0,0.0,0.0,0.0,0.0,0.0,0.0,0.0,0.0,0.0,0.0,0.0,0.0,0.0,0.9807,0.0,0.0,0.0,0.0,0.0,0.0,0.0,0.0,0.0,0.0,0.0,0.0,0.0,0.0,0.0,0.0,0.0,0.0,0.0,0.0,0.0,0.0,0.0,1.8288,1.8293,1.8478,1.8214,1.8277,0.0,0.0,0.0,0.0,0.0,0.0,1.7242,1.7018,1.6737,1.6396,1.6857,1.7176,1.7384,1.7184,1.6282,1.4863,1.4417,0.0,0.0,0.0,0.0,0.0,0.0,0.0,0.0,0.0,0.0,0.0,0.0,0.0,0.0,0.0,0.0,0.0,0.0,0.0,0.0,0.0,0.0,0.0,0.0,0.0,0.0,0.0,0.0,0.0,0.0,0.0,0.0,0.0,0.0,0.0,0.0,0.0,0.0,0.0,0.0,0.0,0.0,0.0,0.0,0.0,0.0,0.0,0.0,0.0,0.0,0.0,0.0,0.0,0.0,0.0,0.0,0.0,0.0,0.0,0.0,0.0,0.0,0.0,0.996,1.0396,1.0489,1.1025,1.1012,1.0507,1.0786,1.0882,1.0761,0.0,0.0,0.0,0.0,0.0,0.0,0.0,0.0,0.0,0.0,0.0,0.0,0.0,0.0,0.0,0.0,0.0,0.0,0.0,0.0,0.0,0.0,1.8196,1.833,1.8407,1.8005,1.7995,1.8596,0.0,0.0,0.0,0.0,0.0,1.7053,1.6666,1.6573,1.6722,1.7204,1.7286,1.6981,1.6648,1.5894,1.4825,1.4972,1.4427,1.3393,0.0,0.0,0.0,0.0,0.0,0.0,0.0,0.0,0.0,0.0,0.0,0.0,0.0,0.0,0.0,0.0,0.0,0.0,0.0,0.0,0.0,0.0,0.0,0.0,0.0,0.0,0.0,0.0,0.0,0.0,0.0,0.0,0.0,0.0,0.0,0.0,0.0,0.0,0.0,0.0,0.0,0.8189,0.896,0.0,0.0,0.0,0.0,0.0,0.0,0.0,0.0,0.0,0.0,0.0,0.0,0.0,0.8688,0.8351,0.8919,0.9162,0.9023,0.9797,1.0335,1.0738,1.0848,1.1048,1.135,1.1327,0.0,0.9705,0.9593,0.0,0.0,0.0,0.0,0.0,0.0,0.0,0.0,0.0,0.0,0.0,0.0,0.0,0.0,0.0,0.0,0.0,0.0,0.0,0.0,0.0,1.8821,1.8948,1.9163,1.8834,1.8722,1.9045,1.8243,0.0,0.0,0.0,1.6892,1.6666,1.6488,1.6469,1.6579,1.6868,1.6971,1.6954,1.6762,1.6308,1.5649,1.5565,1.468,1.322,1.3266,0.0,0.0,0.0,0.0,0.0,0.0,0.0,0.0,0.0,0.0,0.0,0.0,0.0,0.0,0.0,0.0,0.0,0.0,0.0,0.0,0.0,0.0,0.0,0.0,0.0,0.0,0.0,0.0,0.0,0.0,0.0,0.0,0.0,0.0,0.0,0.0,0.0,0.0,0.0,0.8535,0.8593,0.9165,0.8588,0.8155,0.0,0.0,0.0,0.0,0.0,0.0,0.0,0.0,0.0,0.9353,0.9452,0.9326,0.9037,0.9938,1.0178,0.973,1.0593,1.1102,1.1311,1.1311,1.1164,1.0938,1.1057,1.0567,0.9682,0.9899,0.9955,0.9852,0.0,0.0,0.0,0.0,0.0,0.9815,0.0,0.0,0.0,0.0,0.0,0.0,0.0,0.0,0.0,0.0,0.0,0.0,1.9216,1.933,1.9497,1.9748,1.9468,1.9245,1.9172,1.8348,1.7631,1.7152,1.6793,1.6509,1.6351,1.6366,1.6427,1.6495,1.6644,1.6774,1.6901,1.6888,1.6616,1.6122,1.5866,1.489,1.3443,1.3548,1.3032,1.2126,0.0,0.0,0.0,0.0,0.0,0.0,0.0,0.0,0.0,0.0,0.0,0.0,0.0,0.0,0.0,0.0,0.0,0.0,0.0,0.0,0.0,0.0,0.0,0.0,0.0,0.0,0.0,0.0,0.0,0.0,0.0,0.0,0.0,0.0,0.0,0.0,0.0,0.8702,0.8809,0.9103,0.8632,0.8145,0.0,0.0,0.0,0.0,0.0,0.0,0.8934,0.902,0.9179,0.9461,0.9682,0.9649,0.9336,1.0247,1.0416,0.9821,1.0595,1.0975,1.1028,1.1062,1.0828,1.0382,1.0427,1.0253,0.9935,1.023,1.0387,1.042,0.9953,0.9764,0.9787,1.0112,1.0112,1.0004,0.0,0.0,0.0,0.0,0.0,0.0,0.0,0.0,0.0,0.0,0.0,1.9351,1.9144,1.9456,1.9688,1.9698,1.9399,1.9033,1.8572,1.8025,1.7382,1.668,1.6623,1.6481,1.6227,1.6267,1.6453,1.6779,1.6913,1.6855,1.6611,1.6741,1.6412,1.5733,1.5643,1.5136,1.4335,1.4214,1.3716,1.2939,1.18,0.0,0.0,0.0,0.0,0.0,0.0,0.0,0.0,0.0,0.0,0.0,0.0,0.0,0.0,0.0,0.0,0.0,0.0,0.0,0.0,0.0,0.0,0.0,0.0,0.0,0.0,0.0,0.0,0.0,0.0,0.0,0.0,0.0,0.0,0.0,0.0,0.0,0.0,0.8426,0.8035,0.0,0.0,0.0,0.0,0.828,0.9292,0.9813,0.9559,0.9865,0.993,0.9704,0.9216,0.8825,0.8563,0.8544,0.8544,0.8492,0.8813,0.9049,0.9226,0.9372,0.9644,1.0003,0.9441,0.9572,1.0186,1.0196,1.037,1.0595,1.0768,1.056,1.024,1.0699,1.0413,0.9875,0.0,0.0,0.0,0.0,0.0,0.0,0.0,0.0,1.8249,1.9349,1.9269,1.9505,2.0528,2.0365,2.0257,2.0563,1.9815,1.9282,1.916,1.8039,1.7391,1.742,1.677,1.6382,1.634,1.651,1.6485,1.6218,1.6557,1.6546,1.622,1.6543,1.6303,1.5621,1.5596,1.5301,1.4791,1.4735,1.4191,1.3297,1.2799,1.2264,0.0,0.0,0.0,0.0,0.0,0.0,0.0,0.0,0.0,0.0,0.0,0.0,0.0,0.0,0.0,0.0,0.0,0.0,0.0,0.0,0.0,0.0,0.0,0.0,0.0,0.0,0.0,0.0,0.0,0.0,0.0,0.0,0.0,0.0,0.0,0.0,0.0,0.8397,0.8165,0.0,0.8044,0.8254,0.8299,0.806,0.8823,0.9256,0.9153,0.9265,0.9279,0.9201,0.8958,0.8905,0.901,0.8899,0.8941,0.9101,0.9343,0.9477,0.9563,0.9586,0.9729,0.9863,0.9863,0.9915,0.9962,1.0366,1.049,1.0471,1.0543,1.0564,1.0528,1.0717,1.0609,1.0393,0.0,0.0,0.0,0.0,0.0,0.0,0.0,0.0,1.8203,1.9497,1.9475,1.985,2.1251,2.0875,2.0731,2.1251,2.0308,1.962,1.9477,1.8296,1.7596,1.7549,1.6857,1.6427,1.6336,1.6662,1.6575,1.6034,1.6415,1.6393,1.5966,1.631,1.6167,1.5658,1.563,1.5479,1.5222,1.5162,1.4612,1.3791,1.3483,1.288,1.2015,0.0,0.0,0.0,0.0,0.0,0.0,0.0,0.0,0.0,0.0,0.0,0.0,0.0,0.0,0.0,0.0,0.0,0.0,0.0,0.0,0.0,0.0,0.0,0.0,0.0,0.0,0.0,0.0,0.0,0.0,0.0,0.0,0.0,0.0,0.0,0.8705,0.8222,0.825,0.8169,0.7871,0.8176,0.8355,0.8252,0.8767,0.907,0.8964,0.9041,0.9016,0.8909,0.8849,0.8929,0.9176,0.8973,0.8994,0.9157,0.9291,0.9403,0.9506,0.9623,0.9789,0.9981,0.9981,0.9981,0.9981,1.0174,1.0296,1.039,1.0463,1.059,1.0688,1.0688,1.0688,1.0724,0.0,0.0,0.0,0.0,0.0,0.0,0.0,1.8,1.8748,1.8791,1.9577,2.0386,2.1094,2.092,2.1009,2.1594,2.0749,1.9942,1.941,1.8739,1.7899,1.6924,1.682,1.6621,1.6206,1.6664,1.6694,1.6298,1.6505,1.6368,1.589,1.6106,1.6063,1.5779,1.5735,1.5684,1.5658,1.5465,1.4976,1.4301,1.3739,1.3126,1.2484,0.0,0.0,0.0,0.0,0.0,0.0,0.0,0.0,0.0,0.0,0.0,0.0,0.0,0.0,0.0,0.0,0.0,0.0,0.0,0.0,0.0,0.0,0.0,0.0,0.0,0.0,0.0,0.0,0.0,0.0,0.0,0.0,0.0,0.7908,0.859,0.883,0.7859,0.8181,0.8512,0.8512,0.8433,0.8545,0.8874,0.9249,0.9355,0.9086,0.9262,0.921,0.8912,0.8885,0.8857,0.8892,0.8636,0.8497,0.8525,0.8525,0.8657,0.8927,0.9244,0.9686,1.0229,0.9651,0.9741,1.0209,0.9658,0.9776,1.0327,1.0586,1.0688,1.0688,1.0688,1.0688,1.0743,0.0,0.0,0.0,0.0,0.0,0.0,1.7525,1.7211,1.7409,1.863,1.8608,1.8958,2.0315,2.0193,2.0159,2.0527,1.9833,1.9328,1.9118,1.8072,1.7106,1.6266,1.6785,1.6824,1.6279,1.6629,1.6559,1.5997,1.6354,1.6279,1.5842,1.6171,1.6119,1.5729,1.5717,1.5429,1.4971,1.4762,1.4184,1.34,1.3569,1.3249,1.2536,0.0,0.0,0.0,0.0,0.0,0.0,0.0,0.0,0.0,0.0,0.0,0.0,0.0,0.0,0.0,0.0,0.0,0.0,0.0,0.0,0.0,0.0,0.0,0.0,0.0,0.0,0.0,0.0,0.0,0.0,0.0,0.0,0.9072,0.8369,0.8851,0.9094,0.8629,0.8543,0.8526,0.8635,0.8622,0.8609,0.8607,0.89,0.8955,0.8674,0.8713,0.8706,0.8629,0.8186,0.8208,0.8758,0.8477,0.8612,0.9144,0.8915,0.8913,0.9117,0.8949,0.9035,0.9299,0.9382,0.9439,0.9511,0.9743,1.0006,1.0315,1.0378,1.0531,1.0688,1.0688,1.0688,1.0724,0.0,0.0,0.0,0.0,0.0,0.0,1.7793,1.7207,1.7226,1.8696,1.8314,1.8504,2.0145,1.9979,1.9935,2.0387,1.983,1.9287,1.8938,1.756,1.6659,1.6469,1.6777,1.6682,1.6132,1.664,1.6577,1.5865,1.6254,1.6227,1.5762,1.5931,1.5714,1.5159,1.5183,1.4824,1.4153,1.4034,1.3506,1.2763,1.2826,1.2617,1.2168,1.143,1.1223,1.1232,1.0638,1.0719,1.108,1.0854,0.0,0.0,0.0,0.0,0.0,0.0,0.0,0.0,0.0,0.0,0.0,0.0,0.0,0.0,0.0,0.0,0.0,0.0,0.0,0.0,0.0,0.0,0.0,0.0,0.886,0.9198,0.8819,0.9224,0.9402,0.8879,0.8742,0.8703,0.877,0.8696,0.862,0.8678,0.8712,0.8683,0.8603,0.8575,0.8601,0.8665,0.8474,0.8568,0.8994,0.8708,0.8781,0.9178,0.8858,0.8871,0.9245,0.9045,0.9148,0.0,0.9617,0.9609,0.9578,0.999,1.0237,0.0,0.0,0.0,0.0,0.0,1.1027,1.0943,0.0,0.0,0.0,0.0,0.0,0.0,1.7922,1.7557,1.7656,1.8707,1.8322,1.8524,2.0094,1.9898,1.9938,2.0547,2.0085,1.9429,1.8606,1.7135,1.6457,1.69,1.6658,1.6329,1.5902,1.6589,1.658,1.579,1.617,1.6118,1.5676,1.5554,1.5126,1.4472,1.4507,1.4113,1.3408,1.334,1.2955,1.2322,1.1847,1.1615,1.1517,1.138,1.104,1.058,0.9978,0.9998,1.0336,1.0622,0.0,0.0,0.0,0.0,0.0,0.0,0.0,0.0,0.0,0.0,0.0,0.0,0.0,0.0,0.0,0.0,0.0,0.0,0.0,0.0,0.0,0.0,0.0,0.0,0.8981,0.9431,0.9108,0.9566,0.962,0.8818,0.8818,0.8899,0.8912,0.8685,0.8629,0.8823,0.8642,0.8562,0.8697,0.0,0.0,0.0,0.0,0.9214,0.9263,0.8971,0.8861,0.891,0.8559,0.8699,0.9227,0.9169,0.9511,1.0135,0.9958,0.9917,0.9975,1.0199,1.0388,1.0532,1.0666,1.0849,1.1138,1.1425,1.1339,1.1138,0.0,0.0,0.0,0.0,0.0,0.0,1.7403,1.727,1.7395,1.7824,1.7752,1.796,1.8725,1.886,1.89,1.8877,1.8959,1.8462,1.7113,1.642,1.5958,1.5751,1.5926,1.5963,1.5818,1.5959,1.5949,1.5718,1.5911,1.5825,1.5547,1.558,1.5295,1.4812,1.4821,1.4295,1.3373,1.3002,1.253,1.2033,1.1558,1.1273,1.1091,1.0919,1.1187,1.1612,1.0985,1.1617,1.2671,1.1775,1.1886,1.2293,1.1797,1.1695,0.0,0.0,0.0,0.0,0.0,0.0,0.0,0.0,0.0,0.0,0.0,0.0,0.0,0.0,0.0,0.0,0.0,0.0,0.0,0.8151,0.9038,0.9545,0.9003,0.9277,0.936,0.892,0.8892,0.8912,0.8912,0.8857,0.874,0.8595,0.8622,0.8671,0.8697,0.8347,0.0,0.8503,0.8096,0.8061,0.8432,0.8379,0.8516,0.8896,0.0,0.0,0.8729,0.8462,0.8637,0.9178,0.9124,0.932,0.9671,0.9728,1.015,1.0741,1.0704,1.0618,1.0474,1.0561,1.0532,1.0474,0.0,0.0,0.0,0.0,0.0,0.0,1.8515,1.7849,1.753,1.8075,1.7706,1.7533,1.7913,1.7984,1.795,1.7857,1.7575,1.7043,1.6193,1.5769,1.5572,1.564,1.5707,1.5755,1.5751,1.5767,1.5638,1.5388,1.5596,1.5375,1.4748,1.4838,1.4426,1.3586,1.3617,1.317,1.2335,1.2106,1.1785,1.1418,1.1073,1.0807,1.0612,1.0746,1.1014,1.1237,1.0768,1.113,1.1765,1.1279,1.1342,1.1618,1.1524,1.1364,1.1007,0.0,0.0,0.0,0.0,0.0,0.0,0.0,0.0,0.0,0.0,0.0,0.0,0.0,0.0,0.7845,0.7807,0.0,0.8515,0.8508,0.8975,0.9237,0.894,0.9051,0.9078,0.8912,0.8912,0.8912,0.8912,0.8834,0.8734,0.8622,0.8581,0.8573,0.8649,0.8454,0.8432,0.8647,0.839,0.8363,0.861,0.8491,0.8555,0.8806,0.8463,0.8429,0.8644,0.8675,0.8879,0.9209,0.9498,0.9677,0.9798,0.9981,1.0297,1.0676,1.0554,1.0724,1.1028,1.0872,1.0813,1.0813,0.0,0.0,0.0,0.0,0.0,0.0,0.0,1.8492,1.7874,1.8459,1.7726,1.7189,1.7268,1.7101,1.6966,1.6865,1.6153,1.5635,1.5438,1.5216,1.5282,1.565,1.5644,1.5614,1.5581,1.5471,1.525,1.4965,1.5004,1.4682,1.3954,1.4025,1.3461,1.2374,1.244,1.2065,1.1341,1.1295,1.1132,1.0852,1.0651,1.044,1.0276,1.0665,1.0711,1.0551,1.0227,1.0278,1.0492,1.0552,1.0674,1.0852,1.1248,1.1014,1.0492,0.9931,0.9664,0.0,0.0,0.0,0.0,0.0,0.0,0.0,0.0,0.8262,0.8116,0.793,0.8034,0.823,0.8474,0.8507,0.8601,0.8865,0.8912,0.8912,0.8912,0.8933,0.8953,0.8953,0.8897,0.887,0.887,0.8778,0.8742,0.8742,0.8611,0.8589,0.87,0.8677,0.8648,0.8696,0.8766,0.8806,0.8713,0.8646,0.8614,0.8614,0.8327,0.8332,0.8614,0.8933,0.9197,0.9381,0.9937,1.0145,1.0093,1.0343,1.053,1.0609,1.0389,1.092,1.1752,1.127,1.1148,1.1246,0.0,0.0,0.0,0.0,0.0,0.0,0.0,0.0,1.8133,1.7931,1.7438,1.6939,1.6489,1.6158,1.5773,1.5304,1.4943,1.4676,1.4456,1.4859,1.5019,1.4836,1.5378,1.553,1.5173,1.458,1.4337,1.4477,1.3738,1.351,1.3809,1.3648,1.3249,1.2649,1.2729,1.2318,1.156,1.1317,1.105,1.0782,1.0538,1.0391,1.0376,1.044,1.049,1.045,1.0019,1.0524,1.1384,1.0981,1.1297,1.1827,1.1875,1.1976,1.1696,0.9815,0.9557,0.9357,0.7121,0.72,0.8053,0.8723,0.8664,0.8678,0.0,0.912,0.8603,0.9154,0.9035,0.89,0.9209,0.9051,0.8865,0.8906,0.8912,0.8912,0.8912,0.9049,0.9158,0.9158,0.8904,0.8734,0.8734,0.8807,0.8862,0.8862,0.8961,0.9014,0.9034,0.8642,0.8288,0.8025,0.8147,0.8057,0.7744,0.8081,0.8268,0.8268,0.8204,0.8236,0.8268,0.83,0.8481,0.8814,0.9494,0.9945,1.0288,1.032,1.051,1.0756,1.0426,1.0924,1.1674,1.0744,1.0604,1.0898,0.0,0.0,0.0,0.0,0.0,0.0,0.0,0.0,0.0,1.8567,1.7526,1.6545,1.5849,1.4702,1.3815,1.3356,1.3501,1.3526,1.3317,1.4187,1.4579,1.4365,1.4991,1.5013,1.4307,1.4013,1.3663,1.3234,1.2988,1.2666,1.2281,1.235,1.2019,1.136,1.1394,1.1296,1.1125,1.0683,1.0536,1.0536,1.0117,0.992,0.992,0.992,0.995,0.9909,0.9497,0.9672,0.0,0.974,0.9815,1.0142,1.05,1.0422,1.0033,0.9116,0.8997,0.9029,0.851,0.8128,0.8119,0.911,0.9113,0.9007,0.9614,0.9479,0.9305,0.9425,0.9579,0.9596,0.9189,0.9161,0.9134,0.894,0.8912,0.894,0.9049,0.9145,0.9156,0.905,0.9033,0.8977,0.8845,0.8575,0.842,0.842,0.8606,0.8618,0.8475,0.8262,0.8138,0.8079,0.8007,0.8007,0.8076,0.8318,0.8437,0.8437,0.8437,0.8437,0.8437,0.8634,0.8986,0.9497,0.9864,1.0149,1.0315,1.0315,1.0372,1.0506,1.0569,1.0975,1.1435,1.0823,1.0928,1.1402,0.0,0.0,0.0,0.0,0.0,0.0,0.0,0.0,0.0,0.0,1.6817,1.518,1.4048,1.275,1.1803,1.1417,1.1904,1.2253,1.226,1.3282,1.3869,1.3856,1.4335,1.4226,1.343,1.3036,1.254,1.1901,1.1777,1.1428,1.0939,1.1101,1.0855,1.029,1.029,1.0265,1.0232,0.992,0.9797,0.9821,0.9501,0.9377,0.9377,0.9451,0.9352,0.9131,0.8961,0.8931,0.8875,0.859,0.8533,0.8681,0.9168,0.899,0.8581,0.836,0.8201,0.825,0.8997,0.8679,0.8399,0.9421,0.9484,0.936,0.9657,0.9699,0.9651,0.9541,0.9734,0.9734,0.9161,0.9161,0.9203,0.9022,0.8967,0.9049,0.9226,0.9195,0.9131,0.902,0.9064,0.9025,0.8869,0.8606,0.8375,0.8219,0.837,0.8338,0.802,0.7958,0.7886,0.7783,0.7859,0.792,0.7991,0.8298,0.8423,0.8289,0.8421,0.8504,0.8504,0.8873,0.9356,0.9952,1.0078,1.0238,1.0399,1.0399,1.0399,1.0431,1.0784,1.1137,1.1426,1.1266,1.1534,1.1964,0.0,0.0,0.0,0.0,0.0,0.0,0.0,0.0,0.0,0.0,0.0,0.0,0.0,1.0149,0.9935,0.9609,1.0195,1.0816,1.1409,1.2132,1.2763,1.3213,1.3305,1.3161,1.2741,1.1391,1.0673,1.0659,0.9696,0.9569,1.0233,1.0097,1.0043,1.0019,1.0019,0.9575,0.8874,0.913,0.8931,0.8478,0.8726,0.8825,0.885,0.9105,0.8741,0.8092,0.8556,0.8714,0.8644,0.8171,0.8144,0.8345,0.857,0.8527,0.8294,0.7716,0.7161,0.69,0.7515,0.8102,0.8743,0.9438,0.9682,0.9864,1.0194,0.9844,0.9485,0.9734,0.9348,0.9023,0.932,0.9134,0.8981,0.9152,0.92,0.9226,0.9383,0.9232,0.9161,0.9279,0.8835,0.856,0.0,0.9042,0.9052,0.8514,0.8623,0.8488,0.8026,0.7812,0.7427,0.6763,0.7502,0.7593,0.6948,0.774,0.7927,0.7526,0.7999,0.8224,0.8224,0.8627,0.9166,0.9798,0.9737,1.0081,1.0704,1.0704,1.0704,1.0704,1.1068,1.1431,1.1835,1.2124,1.2281,1.2297,0.0,0.0,0.0,0.0,0.0,0.0,0.0,0.0,0.0,0.0,0.0,0.0,0.0,0.0,0.0,0.0,0.8664,0.9033,0.9206,1.0531,1.1246,1.1075,1.1771,1.1752,1.0853,1.0248,0.9721,0.9275,0.8888,0.8827,0.9076,0.9068,0.8984,0.8814,0.8903,0.8775,0.8528,0.8435,0.8411,0.8379,0.8311,0.8386,0.8503,0.823,0.8088,0.7918,0.0,0.7171,0.7268,0.7361,0.7396,0.7437,0.7822,0.7628,0.726,0.7137,0.7166,0.7383,0.8131,0.8534,0.8803,0.907,0.934,0.9568,0.9678,0.9541,0.943,0.9513,0.9044,0.8602,0.8491,0.8484,0.8511,0.8584,0.8838,0.9035,0.918,0.9025,0.886,0.8779,0.8957,0.0,0.0,0.0,0.0,0.7986,0.8214,0.8124,0.7582,0.7487,0.7378,0.7219,0.7316,0.7406,0.7439,0.7742,0.7834,0.7697,0.8114,0.8445,0.8682,0.9095,0.9463,0.9817,1.005,1.0384,1.0684,1.0684,1.0684,1.0717,1.1082,1.1446,1.1843,1.2173,1.2431,1.2637,0.0,0.0,0.0,0.0,0.0,0.0,0.0,0.0,0.0,0.0,0.0,0.0,0.0,0.0,0.0,0.0,0.0,0.6915,0.7145,0.8169,0.8751,0.8689,0.9249,0.9226,0.8487,0.8368,0.8019,0.7418,0.7714,0.7852,0.7852,0.7947,0.79,0.7733,0.7882,0.7834,0.7643,0.7695,0.7708,0.7658,0.7484,0.7409,0.7385,0.7129,0.6955,0.0,0.6344,0.612,0.6053,0.6445,0.6636,0.6798,0.718,0.7172,0.7015,0.6981,0.7346,0.7915,0.8555,0.8777,0.89,0.9161,0.9375,0.9568,0.9706,0.9623,0.9562,0.962,0.8856,0.8165,0.8109,0.8104,0.8148,0.8196,0.8636,0.8999,0.9071,0.8836,0.8679,0.8635,0.8769,0.8688,0.0,0.0,0.0,0.7786,0.7886,0.7759,0.7332,0.7139,0.7078,0.7175,0.7171,0.722,0.7358,0.7525,0.7715,0.7888,0.8278,0.8755,0.9249,0.9491,0.9701,0.9957,1.0274,1.0489,1.0598,1.0678,1.0684,1.0717,1.1082,1.1446,1.1843,1.2173,1.251,1.2807,0.0,0.0,0.0,0.0,0.0,0.0,0.0,0.0,0.0,0.0,0.0,0.0,0.0,0.0,0.0,0.0,0.0,0.0,0.5261,0.5236,0.5481,0.608,0.5921,0.5796,0.5776,0.5833,0.5652,0.5212,0.6081,0.6527,0.6539,0.6665,0.672,0.6726,0.6864,0.664,0.619,0.6792,0.6744,0.6276,0.6301,0.6007,0.5557,0.5807,0.5432,0.4885,0.5632,0.5545,0.5134,0.5499,0.5995,0.6478,0.6734,0.7186,0.7547,0.722,0.7703,0.8366,0.8723,0.8859,0.9071,0.9623,0.9789,0.9871,1.0182,1.0017,0.9793,0.9934,0.8678,0.7728,0.818,0.8,0.7841,0.7997,0.8632,0.9058,0.9019,0.8719,0.8597,0.8811,0.0,0.0,0.0,0.0,0.0,0.788,0.0,0.7488,0.7323,0.6905,0.6667,0.6667,0.7066,0.7078,0.6698,0.7082,0.7516,0.8002,0.8424,0.905,0.9909,0.9799,0.9918,1.0248,1.0357,1.0406,1.0433,1.0618,1.0684,1.0717,1.1049,1.1413,1.1817,1.214,1.2503,1.2766,0.0,0.0,0.0,0.0,0.0,0.0,0.0,0.0,0.0,0.0,0.0,0.0,0.0,0.0,0.0,0.0,0.0,0.0,0.268,0.3473,0.3816,0.3487,0.4267,0.454,0.4193,0.4206,0.4151,0.4027,0.4071,0.4188,0.4387,0.4318,0.4289,0.4301,0.4431,0.4423,0.4311,0.4666,0.4736,0.4655,0.5043,0.5012,0.4697,0.4551,0.463,0.4784,0.4583,0.4668,0.5005,0.5786,0.6507,0.7067,0.7151,0.7401,0.7677,0.7697,0.7979,0.8392,0.877,0.9071,0.9299,0.9458,0.9513,0.9549,0.9741,0.9574,0.9306,0.9207,0.8258,0.7499,0.7679,0.7667,0.7764,0.8106,0.8648,0.9008,0.8988,0.8655,0.8345,0.8176,0.8322,0.8258,0.7822,0.8123,0.0,0.0,0.7931,0.7902,0.7598,0.7516,0.7481,0.7481,0.716,0.696,0.6854,0.6995,0.7401,0.8076,0.8467,0.9095,0.9915,1.0168,1.0423,1.0642,1.0562,1.0633,1.0765,1.0718,1.0684,1.0717,1.0784,1.1049,1.1413,1.1776,1.214,1.2477,0.0,0.0,0.0,0.0,0.0,0.0,0.0,0.0,0.0,0.0,0.0,0.0,0.0,0.0,0.0,0.0,0.0,0.0,0.0,0.1453,0.1529,0.1077,0.1878,0.2243,0.2059,0.247,0.2614,0.2506,0.2892,0.2978,0.282,0.2945,0.2886,0.2711,0.3045,0.3143,0.3052,0.36,0.3684,0.0,0.0,0.3792,0.3332,0.3313,0.3629,0.4085,0.388,0.4554,0.5604,0.6287,0.689,0.741,0.7517,0.7793,0.8058,0.8083,0.8296,0.864,0.9023,0.9203,0.9321,0.9396,0.9482,0.9483,0.9174,0.8962,0.8717,0.8456,0.7396,0.6682,0.7219,0.7367,0.7509,0.7807,0.8491,0.8942,0.877,0.8528,0.8306,0.8025,0.8214,0.0,0.7794,0.7989,0.8048,0.0,0.8051,0.7956,0.7534,0.756,0.7541,0.7411,0.7117,0.6949,0.6949,0.7291,0.7679,0.8114,0.8693,0.9302,0.9915,1.0131,1.0305,1.0404,0.0,1.0567,1.0511,1.0645,1.0684,1.0684,1.0684,1.0883,1.1247,1.1644,1.2015,1.2338,0.0,0.0,0.0,0.0,0.0,0.0,0.0,0.0,0.0,0.0,0.0,0.0,0.0,0.0,0.0,0.0,0.0,0.0,0.0,0.0,-0.067,-0.0869,-0.0526,-0.0239,-0.0076,0.0695,0.1048,0.0914,0.1882,0.2049,0.1489,0.1861,0.1839,0.1494,0.2028,0.2185,0.2095,0.2857,0.2907,0.2495,0.2779,0.2465,0.1866,0.0,0.2643,0.3204,0.3578,0.4838,0.6379,0.6769,0.7241,0.7735,0.7952,0.8306,0.8603,0.8431,0.862,0.8968,0.9244,0.9252,0.9209,0.9355,0.9568,0.9509,0.8652,0.8395,0.8211,0.7755,0.6525,0.5866,0.6939,0.7173,0.727,0.7581,0.8375,0.8856,0.8578,0.8465,0.8344,0.8112,0.8123,0.8156,0.8089,0.7822,0.7765,0.8081,0.8133,0.7921,0.7409,0.7431,0.7345,0.7082,0.7058,0.7099,0.7135,0.7752,0.8078,0.8186,0.8946,0.9518,0.9915,0.9951,0.9975,1.0054,0.0,0.0,1.0147,1.0531,1.0684,1.0684,1.075,1.0949,1.1247,1.171,1.2041,1.2338,0.0,0.0,0.0,0.0,0.0,0.0,0.0,0.0,0.0,0.0,0.6905,0.6179,0.0,0.0,0.0,0.0,0.0,0.0,0.0,0.0,0.0,-0.1286,-0.1076,-0.0956,-0.0984,-0.0969,-0.0682,-0.0061,-0.0408,-0.0434,-0.0191,-0.0387,-0.0369,-0.0175,-0.0134,0.0203,0.0744,0.0882,0.0892,0.0837,0.1096,0.1144,0.1055,0.1553,0.0,0.0,0.3934,0.5006,0.607,0.669,0.7669,0.8666,0.87,0.8968,0.9182,0.8879,0.8837,0.8912,0.8968,0.8981,0.9023,0.9327,0.9342,0.9149,0.8474,0.8396,0.8177,0.7108,0.6584,0.6517,0.7143,0.7196,0.7474,0.8619,0.8789,0.8861,0.9175,0.886,0.8435,0.8123,0.8356,0.839,0.8123,0.8289,0.0,0.0,0.0,0.8288,0.7752,0.8093,0.8154,0.7905,0.7634,0.7643,0.7897,0.7752,0.8,0.8584,0.909,0.9518,0.9915,1.0239,1.0502,1.0638,1.0613,0.0,1.0731,1.0692,1.0684,1.0717,1.1016,1.1148,1.128,1.1942,1.2239,1.2338,0.0,0.0,0.0,0.0,0.0,0.0,0.0,0.8577,0.8104,0.7131,0.7056,0.6438,0.4692,0.3616,0.0,0.0,0.0,0.0,0.0,0.0,0.0,-0.1474,-0.1406,-0.1337,-0.1299,-0.1301,-0.1071,-0.0619,0.0,-0.0898,-0.0807,-0.0867,-0.0795,-0.0653,-0.0689,-0.0493,-0.0157,0.009,0.0113,0.0023,0.0576,0.0795,0.0835,0.1242,0.0,0.0,0.3909,0.4921,0.5932,0.6115,0.7154,0.8442,0.8803,0.9023,0.9106,0.894,0.8912,0.8912,0.8912,0.9078,0.9252,0.9148,0.9391,0.9298,0.8013,0.7778,0.7475,0.6274,0.584,0.5849,0.6517,0.6754,0.702,0.7603,0.83,0.8659,0.8394,0.8646,0.8678,0.8205,0.848,0.8547,0.8181,0.848,0.8615,0.0,0.0,0.8355,0.7822,0.8077,0.8183,0.8114,0.7933,0.7933,0.8114,0.8362,0.8652,0.9018,0.9627,1.0023,1.0203,1.0419,1.0562,1.0637,1.0598,0.0,1.0735,1.0712,1.0784,1.0949,1.0949,1.1049,1.128,1.1843,1.2041,1.2114,0.0,0.0,0.0,0.0,0.0,0.0,0.0,0.8405,0.8085,0.7146,0.7002,0.6426,0.4938,0.3724,0.2968,0.0,0.0,0.0,0.0,0.0,0.0,0.0,0.0,0.0,-0.1571,0.0,0.0,-0.0909,-0.082,0.0,0.0,0.0,0.0,0.0,-0.0793,-0.0735,-0.0669,-0.0202,-0.0179,0.0,0.0,0.0691,0.0,0.0,0.0,0.0,0.0,0.477,0.5634,0.56,0.6453,0.7672,0.8274,0.8564,0.8693,0.8776,0.8803,0.881,0.8954,0.9321,0.956,0.914,0.9502,0.9478,0.7657,0.727,0.6898,0.5555,0.5126,0.521,0.5867,0.6281,0.6532,0.6616,0.7582,0.8183,0.7709,0.8261,0.8634,0.8345,0.8599,0.8678,0.8362,0.8641,0.0,0.0,0.0,0.0,0.8065,0.8096,0.8208,0.8367,0.8367,0.8403,0.8476,0.9121,0.9482,0.9554,1.0203,1.0491,1.0491,1.0491,1.0509,1.0579,1.0582,0.0,0.0,1.0692,1.0883,1.1181,1.0982,1.1148,1.1479,1.1876,1.2015,1.2074,0.0,0.0,0.0,0.0,0.0,0.0,0.0,0.8453,0.8156,0.7217,0.6837,0.6399,0.5746,0.5091,0.4152,0.0,0.0,0.0,0.0,0.0,0.0,0.0,0.0,0.0,0.0,0.0,0.0,-0.0899,-0.1256,0.0,0.0,0.0,0.0,0.0,0.0,-0.0872,-0.0678,-0.0201,0.0,0.0,0.0,0.0,0.0,0.0,0.0,0.0,0.0,0.4545,0.493,0.563,0.6122,0.6526,0.6959,0.7499,0.8048,0.8345,0.8453,0.8594,0.9202,0.9555,0.973,0.9581,0.9667,0.9376,0.7738,0.7467,0.7067,0.5302,0.5154,0.5494,0.5924,0.6078,0.6419,0.7261,0.7055,0.7168,0.8247,0.7898,0.7852,0.864,0.8769,0.8812,0.8823,0.8863,0.8849,0.0,0.0,0.0,0.8804,0.8703,0.8791,0.9193,0.9193,0.9374,0.9735,0.9807,1.0023,1.0383,1.0455,1.0491,1.0491,1.0491,1.0603,1.0767,1.0642,0.0,0.0,1.0752,1.0883,1.1214,1.1578,1.1909,1.2239,1.2568,1.2708,1.2708,0.0,0.0,0.0,0.0,0.0,0.0,0.8712,0.8359,0.801,0.7634,0.7117,0.6652,0.6317,0.5855,0.5145,0.0,0.0,0.0,0.0,0.0,0.0,0.0,0.0,0.0,0.0,0.0,-0.2182,-0.1675,-0.1649,0.0,0.0,0.0,0.0,0.0,0.0,-0.1066,-0.0876,-0.0677,0.0,0.0,0.0,0.0,0.0,0.0,0.0,0.0,0.0,0.0,0.4785,0.4906,0.5441,0.5999,0.5718,0.6225,0.7133,0.8113,0.8406,0.8547,0.9223,0.9734,0.9992,0.9483,0.9581,0.9391,0.7761,0.7334,0.6893,0.5499,0.5298,0.545,0.5595,0.5704,0.581,0.606,0.6363,0.6688,0.7075,0.751,0.8004,0.8502,0.8804,0.9008,0.0,0.0,0.8973,0.0,0.0,0.0,0.9022,0.8972,0.9057,0.9302,0.9302,0.9374,0.9518,1.0023,1.0347,1.0527,1.0966,1.1145,1.1145,1.1145,1.122,1.1262,1.1058,0.0,0.0,1.102,1.1214,1.1578,1.1743,1.2008,1.2312,1.2444,1.251,1.2576,0.0,0.0,0.0,0.0,0.0,0.8853,0.8621,0.8335,0.8085,0.7923,0.7447,0.7031,0.6777,0.6463,0.5959,0.5174,0.0,0.0,0.0,0.0,0.0,0.0,0.0,0.0,0.0,0.0,-0.1951,-0.2116,-0.1867,-0.1662,0.0,0.0,-0.1197,-0.0798,0.0,0.0,0.0,0.0,0.0,0.0,0.0,0.0,0.0,0.0,0.0,0.0,0.0,0.0,0.0,0.0,0.0,0.5685,0.5006,0.5385,0.6359,0.7673,0.8207,0.8528,0.9375,0.9974,1.025,0.9753,0.9557,0.9203,0.7898,0.7253,0.6628,0.5607,0.5409,0.5409,0.5409,0.5451,0.5451,0.5338,0.5888,0.6341,0.6311,0.7122,0.7826,0.8083,0.8519,0.8828,0.0,0.9008,0.0,0.0,0.0,0.0,0.0,0.9325,0.9328,0.9302,0.9518,0.9663,0.9663,1.0311,1.0707,1.0815,1.1361,1.1584,1.1584,1.1584,1.1592,1.1538,0.0,0.0,0.0,1.1227,1.1512,1.1942,1.1942,1.214,1.2477,1.2576,1.2642,1.2708,0.0,0.0,0.0,0.0,0.0,0.0,0.8191,0.8438,0.8499,0.7974,0.7774,0.753,0.7139,0.6974,0.654,0.5668,0.0,0.0,0.0,0.0,0.0,0.0,0.0,0.0,0.0,0.0,-0.1376,-0.1903,-0.1902,-0.1823,-0.1702,-0.1703,-0.1516,-0.1177,0.0,0.0,0.0,0.0,0.0,0.0,0.0,0.0,0.0,0.0,0.0,0.0,0.0,0.0,0.0,0.0,0.0,0.0,0.0,0.516,0.5831,0.6965,0.7744,0.8468,0.9746,1.028,1.0514,1.056,0.9747,0.8758,0.8212,0.7277,0.628,0.5566,0.5409,0.5409,0.5409,0.5451,0.5508,0.5572,0.5828,0.6134,0.654,0.6728,0.6956,0.736,0.7829,0.8215,0.8471,0.874,0.0,0.0,0.0,0.0,0.0,0.9879,0.9699,0.9302,1.0059,1.0491,1.0491,1.0822,1.1188,1.1584,1.1584,1.1584,1.1584,1.1584,1.1538,0.0,0.0,0.0,0.0,1.1285,1.1644,1.2272,1.2272,1.251,1.284,1.3235,1.34,1.3433,0.0,0.0,0.0,0.0,0.0,0.0,0.0,0.8471,0.8316,0.8371,0.7896,0.7515,0.7381,0.7095,0.6622,0.5932,0.0,0.0,0.0,0.0,0.0,0.0,0.0,0.0,0.0,0.0,-0.1158,-0.1695,-0.1695,-0.1807,-0.2035,-0.1676,-0.1465,-0.1403,-0.1194,-0.1173,0.0,0.0,0.0,0.0,0.0,0.0,0.0,0.0,0.0,0.0,0.0,0.0,0.0,0.0,0.0,0.0,0.0,0.0,0.0,0.6426,0.7075,0.7767,0.8635,0.9003,0.9077,0.8759,0.8421,0.7961,0.7193,0.6703,0.628,0.5786,0.5521,0.5465,0.5629,0.5762,0.5965,0.6364,0.6561,0.677,0.7041,0.7669,0.8058,0.79,0.8579,0.9176,0.0,0.0,0.0,0.0,0.0,0.0,0.0,1.0357,1.015,0.9338,1.0095,1.0383,1.0095,1.0714,1.1044,1.1188,1.1763,1.2015,1.2015,1.1902,0.0,0.0,0.0,0.0,0.0,1.1818,1.2074,1.2312,1.2543,1.2708,1.284,1.3235,1.34,1.3465,0.0,0.0,0.0,0.0,0.0,0.0,0.0,0.8572,0.8371,0.821,0.7836,0.7515,0.7367,0.7082,0.6663,0.6055,0.0,0.0,0.0,0.0,0.0,0.0,0.0,0.0,0.0,0.0501,-0.0335,-0.1494,-0.1443,-0.1678,-0.2193,-0.1727,-0.1497,-0.1454,-0.1207,-0.1193,0.0,0.0,0.0,0.0,0.0,0.0,0.0607,0.0,0.0,0.0,0.0,0.0,0.0,0.0,0.0,0.0,0.0,0.0,0.0,0.0,0.6541,0.7311,0.8162,0.8425,0.8398,0.828,0.7846,0.7328,0.6764,0.6507,0.6233,0.5753,0.5689,0.5725,0.5699,0.5954,0.6263,0.6554,0.7073,0.7402,0.7411,0.821,0.8723,0.8458,0.9041,0.0,0.0,0.0,0.0,0.0,0.0,0.0,0.0,1.0658,1.0414,0.9592,1.0299,1.0539,1.0239,1.0817,1.1139,1.1174,1.1725,1.2045,1.2066,1.1938,0.0,0.0,0.0,0.0,0.0,1.2153,1.2379,1.251,1.2708,1.2807,1.2873,1.34,1.3588,1.3687,0.0,0.0,0.0,0.0,0.0,0.0,0.0,0.0,0.8567,0.7612,0.7561,0.7481,0.7117,0.6963,0.6649,0.6068,0.0,0.0,0.0,0.0,0.0,0.0,0.0,0.0,0.0,0.1818,0.0921,-0.1173,-0.1073,-0.1427,-0.2172,-0.1831,-0.1574,-0.1404,-0.1062,-0.1129,0.0,0.0,0.0,0.0,0.0,0.0,0.0,0.0,0.0,0.0,0.0,0.0,0.0,0.0,0.0,0.0,0.0,0.0,0.0,0.0,0.0,0.0,0.0,0.8339,0.8278,0.8711,0.7852,0.6863,0.6834,0.6561,0.0,0.5577,0.5884,0.6135,0.5691,0.6051,0.6407,0.6414,0.7378,0.8057,0.7775,0.852,0.9139,0.0,0.9364,0.0,0.0,0.0,0.0,0.0,0.0,0.0,0.0,1.0826,1.0636,1.0127,1.0764,1.1025,1.0825,1.1213,1.1424,1.1495,1.1684,1.1823,1.1966,1.1836,0.0,0.0,0.0,0.0,0.0,1.2338,1.251,1.2807,1.2832,1.284,1.2939,1.3687,1.394,1.4039,0.0,0.0,0.0,0.0,0.0,0.0,0.0,0.0,0.0,0.0,0.7139,0.6919,0.6878,0.6791,0.6585,0.0,0.0,0.0,0.0,0.0,0.0,0.0,0.0,0.0,0.0,0.2386,0.1578,0.0146,-0.0116,-0.0839,-0.1968,-0.1575,-0.1476,-0.1614,-0.1117,-0.1158,-0.1562,0.0,0.0,0.0,0.0,0.0,0.0,0.0,0.0,0.0,0.3885,0.4537,0.0,0.0,0.0,0.0,0.0,0.0,0.0,0.0,0.6328,0.6865,0.7138,0.0,0.707,0.7089,0.6927,0.6639,0.0,0.6177,0.6246,0.6107,0.5991,0.6051,0.6493,0.6479,0.6662,0.7472,0.8139,0.8648,0.8868,0.9671,0.0,1.0656,1.0591,1.0562,0.0,0.0,0.0,0.0,0.0,0.0,0.0,1.1718,1.1597,1.1296,1.1712,1.1727,1.1248,1.1882,1.2233,1.2233,1.2454,1.2559,1.2597,1.2456,0.0,0.0,0.0,0.0,1.2312,1.2568,1.2733,1.2832,1.3137,1.3268,1.3334,1.4015,1.4268,1.4342,0.0,0.0,0.0,0.0,0.0,0.0,0.0,0.0,0.0,0.0,0.0,0.0,0.0,0.0,0.0,0.0,0.0,0.0,0.0,0.0,0.0,0.0,0.0,0.0,0.3274,0.2879,0.2104,0.0919,0.045,-0.0403,-0.1615,-0.1143,-0.1135,-0.1499,-0.1272,-0.1314,-0.1544,-0.1251,-0.104,0.0,-0.0109,0.0,0.0,0.0,0.0,0.0,0.422,0.4815,0.0,0.4989,0.5259,0.5691,0.0,0.0,0.0,0.0,0.6385,0.679,0.6736,0.6689,0.6727,0.6798,0.6752,0.6576,0.613,0.6381,0.6604,0.6158,0.627,0.6509,0.6728,0.7174,0.7554,0.7712,0.8875,0.9889,1.0129,1.026,1.0424,1.0704,1.0846,0.0,0.0,0.0,0.0,0.0,0.0,0.0,0.0,1.1656,1.1699,1.1463,1.2118,1.2138,1.1462,1.2153,1.2429,1.2256,1.2467,1.259,1.266,1.2523,1.2545,0.0,0.0,0.0,1.2536,1.2733,1.2906,1.3104,1.3301,1.3498,1.3687,1.4211,1.4408,1.4441,0.0,0.0,0.0,0.0,0.0,0.0,0.0,0.0,0.0,0.0,0.0,0.0,0.0,0.0,0.0,0.0,0.0,0.0,0.0,0.0,0.0,0.0,0.0,0.3947,0.3782,0.3333,0.2552,0.1416,0.0887,0.0034,-0.1092,-0.0639,-0.0707,-0.1204,-0.1319,-0.1389,-0.1402,-0.1231,-0.0984,-0.0633,0.0176,0.0,0.0,0.0,0.0,0.0,0.0,0.0,0.0,0.5237,0.5639,0.6162,0.5516,0.0,0.0,0.0,0.0,0.0,0.6703,0.6792,0.6981,0.7138,0.6977,0.6715,0.6414,0.6771,0.6904,0.6098,0.6571,0.7095,0.6973,0.7801,0.8331,0.7838,0.9659,1.1167,1.1325,1.0773,1.0379,1.0445,1.0752,0.0,0.0,0.0,0.0,0.0,0.0,0.0,0.0,1.1316,1.1423,1.1221,1.2146,1.2297,1.1555,1.2251,1.2435,1.2157,1.2324,1.2449,1.2523,1.2441,1.2536,0.0,0.0,0.0,1.2807,1.2873,1.3104,1.34,1.3498,1.372,1.4006,1.4342,1.4473,1.4539,0.0,0.0,0.0,0.0,0.0,0.0,0.0,0.0,0.0,0.0,0.0,0.0,0.0,0.0,0.0,0.0,0.0,0.0,0.0,0.0,0.0,0.0,0.4812,0.4491,0.4121,0.3784,0.3027,0.1891,0.1408,0.0704,-0.0201,-0.0118,-0.0306,-0.0714,-0.0737,-0.083,-0.0964,-0.06,-0.0207,0.0253,0.0778,0.0,0.0,0.0,0.0,0.0,0.0,0.0,0.0,0.5345,0.5427,0.5737,0.5842,0.0,0.0,0.0,0.0,0.0,0.6937,0.7497,0.7905,0.7199,0.7084,0.7043,0.6715,0.6715,0.6743,0.6604,0.6687,0.7122,0.8254,0.7752,0.7685,0.9187,1.0365,1.133,0.0,0.0,1.1846,1.1578,0.0,0.0,0.0,0.0,0.0,0.0,0.0,0.0,0.0,1.1707,1.1574,1.1214,1.1696,1.1877,1.1755,1.2592,1.2999,1.2924,1.2789,1.2716,1.2749,1.2716,1.2741,0.0,0.0,1.2807,1.284,1.3169,1.3334,1.3465,1.4015,1.4277,1.4375,1.4702,1.4833,1.4866,0.0,0.0,0.0,0.0,0.0,0.0,0.0,0.0,0.0,0.0,0.0,0.0,0.0,0.0,0.0,0.0,0.0,0.0,0.0,0.0,0.0,0.5673,0.5459,0.5217,0.4962,0.3981,0.3348,0.3079,0.2101,0.1359,0.0856,0.0386,0.0101,-0.0017,-0.043,-0.0587,-0.0578,-0.0503,-0.0063,0.0591,0.0,0.0,0.0,0.0,0.0,0.0,0.0,0.0,0.0,0.0,0.5668,0.6037,0.6017,0.0,0.0,0.0,0.0,0.0,0.7013,0.7281,0.762,0.7693,0.8074,0.8312,0.7806,0.8001,0.8099,0.7251,0.742,0.7939,0.8663,0.8669,0.9191,1.1105,1.1045,1.1034,1.1911,1.1636,1.122,0.0,0.0,0.0,0.0,0.0,0.0,0.0,0.0,0.0,0.0,0.0,1.138,1.1214,1.1776,1.2081,1.2081,1.2648,1.2954,1.2954,1.3071,1.3104,1.3104,1.3104,1.3235,1.3391,0.0,1.3227,1.3424,1.3588,1.3785,1.3982,1.4277,1.4506,1.4702,1.4833,1.5039,1.5267,0.0,0.0,0.0,0.0,0.0,0.0,0.0,0.0,0.0,0.0,0.0,0.0,0.0,0.0,0.0,0.0,0.0,0.0,0.0,0.0,0.5722,0.6082,0.6023,0.5865,0.5575,0.4339,0.384,0.4115,0.2929,0.2183,0.1843,0.1125,0.0657,0.0408,0.0053,-0.0091,-0.0055,-0.002,0.0397,0.1069,0.0,0.0,0.0,0.0,0.0,0.0,0.0,0.0,0.0,0.0,0.0,0.0,0.0,0.0,0.0,0.6634,0.6834,0.7051,0.7051,0.716,0.7463,0.8247,0.8775,0.8999,0.8775,0.914,0.9225,0.8176,0.8421,0.8925,0.9104,0.9673,1.0558,1.1883,1.1257,1.0873,1.1681,1.1148,0.0,0.0,0.0,0.0,0.0,0.0,0.0,0.0,0.0,0.0,0.0,0.0,1.1148,1.1082,1.171,1.2074,1.2173,1.251,1.2708,1.2807,1.3104,1.3268,1.3268,1.3367,1.3531,1.3785,1.3588,1.3654,1.3908,1.3973,1.417,1.4408,1.4506,1.467,1.4898,1.4898,1.5137,1.5561,0.0,0.0,0.0,0.0,0.0,0.0,0.0,0.0,0.0,0.0,0.0,0.0,0.0,0.0,0.0,0.0,0.0,0.0,0.0,0.0,0.6327,0.6368,0.648,0.622,0.5518,0.5099,0.475,0.4465,0.3934,0.3305,0.2619,0.2365,0.1531,0.0262,0.1006,0.1087,0.068,0.1414,0.1873,0.2106,0.2247,0.0,0.0,0.0,0.0,0.0,0.0,0.0,0.0,0.0,0.0,0.0,0.0,0.0,0.679,0.679,0.6986,0.7199,0.7199,0.7587,0.818,0.8791,0.8335,0.8027,0.9162,0.9229,0.913,0.9478,0.9571,0.9726,1.005,1.0313,1.038,1.0062,1.0644,1.1292,1.1743,0.0,0.0,0.0,0.0,0.0,0.0,0.0,0.0,0.0,0.0,0.0,0.0,0.0,0.0,1.075,1.1082,1.1446,1.1843,1.218,1.2503,1.2807,1.284,1.284,1.2873,1.3235,1.34,1.3433,1.3752,1.3875,1.3908,1.4235,1.4366,1.4441,1.4735,1.4866,1.4898,1.4898,1.5137,1.5626,0.0,0.0,0.0,0.0,0.0,0.0,0.0,0.0,0.0,0.0,0.0,0.0,0.0,0.0,0.0,0.0,0.0,0.0,0.0,0.0,0.6527,0.7058,0.6977,0.6747,0.6373,0.5546,0.5225,0.5426,0.4745,0.4351,0.4168,0.2963,0.2526,0.2719,0.1867,0.1824,0.2363,0.2046,0.2312,0.2911,0.2554,0.3041,0.0,0.0,0.0,0.0,0.0,0.0,0.0,0.0,0.6172,0.6412,0.6412,0.658,0.6801,0.6801,0.6997,0.721,0.721,0.7626,0.8248,0.8839,0.889,0.9063,1.0088,1.0441,1.0387,0.9767,1.0139,1.0492,1.0236,1.0813,1.1138,1.069,1.1138,1.1545,1.1446,0.0,0.0,0.0,0.0,0.0,0.0,0.0,0.0,0.0,0.0,0.0,0.0,0.0,0.0,1.138,1.171,1.1942,1.2114,1.2437,1.2675,1.2807,1.3038,1.3169,1.3202,1.3555,1.3818,1.4015,1.4179,1.4333,1.4539,1.467,1.4702,1.4735,1.4833,1.5062,1.5267,1.5267,1.5909,1.6807,0.0,0.0,0.0,0.0,0.0,0.0,0.0,0.0,0.0,0.0,0.0,0.0,0.0,0.0,0.0,0.0,0.0,0.0,0.6815,0.6703,0.6839,0.7354,0.7461,0.7394,0.7152,0.6258,0.5902,0.6101,0.5674,0.541,0.5277,0.4387,0.4093,0.4267,0.3349,0.3235,0.3667,0.2925,0.3027,0.3624,0.3154,0.3547,0.0,0.0,0.0,0.0,0.0,0.0,0.0,0.0,0.6265,0.6412,0.6412,0.6553,0.6752,0.679,0.7132,0.7499,0.7533,0.7828,0.8289,0.9151,0.9229,0.943,1.0673,1.1164,1.121,1.0572,1.0878,1.1101,1.0591,1.1084,1.1468,0.0,1.1476,1.1718,0.0,0.0,0.0,0.0,0.0,0.0,0.0,0.0,0.0,0.0,0.0,0.0,0.0,0.0,0.0,0.0,1.214,1.2305,1.2305,1.2634,1.2807,1.2807,1.3071,1.3202,1.3235,1.3588,1.3916,1.4235,1.4342,1.4604,1.4898,1.4898,1.4898,1.4898,1.5039,1.5267,1.5528,1.5854,1.6613,1.7571,0.0,0.0,0.0,0.0,0.0,0.0,0.0,0.0,0.0,0.0,0.0,0.0,0.0,0.0,0.0,0.0,0.0,0.0,0.6734,0.7206,0.7381,0.7125,0.7943,0.8182,0.7716,0.7314,0.6846,0.6296,0.6712,0.6502,0.5754,0.6879,0.631,0.4385,0.5573,0.5469,0.4419,0.427,0.4214,0.4212,0.4219,0.4359,0.4689,0.0,0.0,0.0,0.0,0.0,0.0,0.0,0.6117,0.6412,0.6412,0.6493,0.6618,0.6763,0.7402,0.8128,0.8257,0.8202,0.8426,0.974,0.92,0.8848,1.0831,1.1195,1.134,1.2146,1.1931,1.1498,1.1174,1.111,1.111,1.111,1.1476,0.0,0.0,0.0,0.0,0.0,0.0,0.0,0.0,0.0,0.0,0.0,0.0,0.0,0.0,0.0,0.0,0.0,1.214,1.2305,1.2305,1.2634,1.2807,1.2807,1.2807,1.2807,1.2807,1.3235,1.3597,1.3908,1.4277,1.4604,1.4898,1.4898,1.4898,1.4964,1.5365,1.5505,1.5626,1.6656,1.7227,1.7732,0.0,0.0,0.0,0.0,0.0,0.0,0.0,0.0,0.0,0.0,0.0,0.0,0.0,0.0,0.0,0.0,0.0,0.0,0.7122,0.7365,0.7702,0.813,0.8315,0.8328,0.8196,0.7989,0.7497,0.672,0.7558,0.7975,0.8015,0.7795,0.7572,0.7361,0.668,0.6228,0.5906,0.5152,0.4991,0.5209,0.4697,0.4947,0.567,0.0,0.0,0.0,0.0,0.0,0.0,0.0,0.0,0.0,0.6412,0.6493,0.6618,0.6763,0.7049,0.7363,0.7482,0.8291,0.9072,0.8994,0.9707,1.0435,1.0574,1.0739,1.1095,1.1799,1.1266,1.0756,1.1056,1.0942,0.0,1.1066,0.0,0.0,0.0,0.0,0.0,0.0,0.0,0.0,0.0,0.0,0.0,0.0,0.0,0.0,0.0,0.0,0.0,0.0,1.2609,1.2642,1.2642,1.2741,1.2807,1.2807,1.2807,1.2807,1.2832,1.3457,1.3818,1.394,1.4506,1.48,1.4931,1.5202,1.5332,1.5365,1.5714,1.6299,1.6936,1.7249,1.8183,1.9431,0.0,0.0,0.0,0.0,0.0,0.0,0.0,0.0,0.0,0.0,0.8204,0.0,0.0,0.0,0.0,0.0,0.0,0.0,0.0,0.7836,0.8157,0.8514,0.8646,0.8646,0.8487,0.8636,0.8533,0.8134,0.8795,0.9226,0.9432,0.9097,0.8908,0.8777,0.7776,0.7226,0.6964,0.599,0.5663,0.5749,0.5356,0.5484,0.5958,0.0,0.0,0.0,0.0,0.0,0.0,0.0,0.0,0.0,0.6412,0.646,0.6615,0.7123,0.7444,0.7761,0.8389,0.9118,0.9703,0.9619,1.0235,1.0816,1.0768,1.0859,1.0995,1.1334,1.1089,1.0874,1.1023,1.1108,0.0,1.1512,0.0,0.0,0.0,0.0,0.0,0.0,0.0,0.0,0.0,0.0,0.0,0.0,0.0,0.0,0.0,0.0,0.0,0.0,1.2807,1.2807,1.2807,1.2807,1.2807,1.2807,1.2972,1.3038,1.3038,1.349,1.3851,1.4137,1.467,1.4996,1.5169,1.5398,1.5593,1.5756,1.6353,1.6969,1.7604,1.8439,1.9304,2.0208,0.0,0.0,0.0,0.0,0.0,0.0,0.0,0.0,0.0,0.0,0.8032,0.8254,0.0,0.0,0.0,0.0,0.0,0.0,0.0,0.0,0.8738,0.854,0.9042,0.9161,0.8791,0.9384,0.9855,1.0234,1.0305,1.0314,1.0267,1.0622,1.0196,0.9096,0.8817,0.8315,0.7645,0.6727,0.6205,0.6008,0.6122,0.6019,0.5886,0.6537,0.0,0.0,0.0,0.0,0.0,0.0,0.0,0.0,0.6412,0.6417,0.6619,0.7593,0.8192,0.8826,1.0048,1.0244,1.0309,1.0966,1.0643,1.0366,1.1279,1.1301,1.1082,1.0929,1.1266,1.1498,1.1189,1.145,1.1883,0.0,0.0,0.0,0.0,0.0,0.0,0.0,0.0,0.0,0.0,0.0,0.0,0.0,0.0,0.0,0.0,0.0,0.0,1.2807,1.2807,1.2807,1.2807,1.2807,1.2807,0.0,1.3235,1.3433,1.3498,1.3498,1.386,1.4506,1.4833,1.5169,1.5561,1.5561,1.5756,1.6136,1.7087,1.7539,1.7861,1.9775,2.0348,2.0367,0.0,0.0,0.0,0.0,0.0,0.0,0.0,0.0,0.0,0.0,0.0,0.0,0.0,0.0,0.0,0.0,0.0,0.0,0.0,0.0,0.9223,0.9497,1.0009,1.025,1.017,1.0807,1.1419,1.1965,1.1626,1.1473,1.1505,1.1545,1.0979,0.9918,0.9555,0.8762,0.7648,0.7028,0.6748,0.6681,0.6649,0.6681,0.6771,0.7164,0.7141,0.0,0.0,0.0,0.0,0.0,0.0,0.0,0.6412,0.6477,0.6594,0.6831,0.7532,0.8261,0.8544,0.9557,1.0399,1.0049,1.0219,1.0672,1.1364,1.1362,1.1348,1.1666,1.1662,1.1698,1.1964,1.1655,1.1545,0.0,0.0,0.0,0.0,0.0,0.0,0.0,0.0,0.0,0.0,0.0,0.0,0.0,0.0,0.0,0.0,0.0,0.0,1.2807,1.2807,1.2807,1.2807,1.2807,1.2972,0.0,1.3367,1.3695,1.4179,1.4179,1.4572,1.5267,1.5332,1.5561,1.5876,1.5876,1.6071,1.6429,1.6904,1.7776,1.8816,1.9264,2.003,2.1014,0.0,0.0,0.0,0.0,0.0,0.0,0.0,0.0,0.0,0.0,0.0,0.0,0.0,0.0,0.0,0.0,0.0,0.0,0.0,0.0,0.9728,1.0257,1.0493,1.0718,1.0928,1.1432,1.1905,1.2366,1.2168,1.2039,1.195,1.1538,1.0898,1.0037,0.9536,0.8881,0.8091,0.769,0.7439,0.7275,0.724,0.718,0.7147,0.7503,0.7459,0.7186,0.7044,0.0,0.0,0.0,0.0,0.0,0.0,0.0,0.6771,0.716,0.7582,0.8104,0.8957,0.9745,1.0377,1.0599,1.0768,1.0968,1.1518,1.1672,1.177,1.2068,1.1843,1.1682,1.1904,1.1691,1.1677,0.0,0.0,0.0,0.0,0.0,0.0,0.0,0.0,0.0,0.0,0.0,0.0,0.0,0.0,0.0,0.0,1.2807,1.2807,1.2807,1.2807,1.2807,1.2807,1.3005,1.3202,1.34,1.3728,1.4244,1.4931,1.4931,1.5029,1.5234,1.5593,1.5844,1.6006,1.6169,1.6429,1.6818,1.7658,1.8463,1.9232,2.0176,2.0887,2.1457,0.0,0.0,0.0,0.0,0.0,0.0,0.0,0.0,0.0,0.0,0.0,0.0,0.0,0.0,0.0,0.0,0.0,0.0,0.0,0.0,0.0,1.0855,1.0913,1.1104,1.149,1.1814,1.2063,1.2272,1.2287,1.2118,1.1776,1.1166,1.053,0.9876,0.9292,0.8896,0.864,0.8334,0.8035,0.7776,0.7822,0.7653,0.7408,0.7791,0.7755,0.7479,0.7322,0.7067,0.6767,0.6537,0.0,0.0,0.0,0.0,0.6909,0.7598,0.7818,0.816,0.9667,1.0106,1.0399,1.1455,1.141,1.1245,1.1704,1.1986,1.2166,1.2347,1.2098,1.1802,1.1802,1.1851,0.0,0.0,0.0,0.0,0.0,0.0,0.0,0.0,0.0,0.0,0.0,0.0,0.0,0.0,0.0,0.0,1.2807,1.2807,1.2807,1.2807,1.2873,1.2906,1.2906,1.3301,1.3531,1.3564,1.4179,1.48,1.5398,1.5528,1.543,1.5225,1.5811,1.6136,1.6201,1.6396,1.6688,1.713,1.8399,1.9008,1.9392,2.119,2.1772,2.179,0.0,0.0,0.0,0.0,0.0,0.0,0.0,0.0,0.0,0.0,0.9767,1.0007,0.0,0.0,0.0,0.0,0.0,0.0,0.9966,0.0,0.0,1.1156,1.1849,1.2279,1.2332,1.2492,1.2576,1.2549,1.2096,1.1565,1.0958,1.0853,1.0498,0.9877,0.9388,0.906,0.8834,0.839,0.8146,0.8056,0.8306,0.8265,0.8107,0.8386,0.8262,0.7887,0.764,0.7216,0.6792,0.6767,0.6592,0.0,0.0,0.0,0.666,0.6884,0.7611,0.8399,0.874,0.9744,1.0793,1.1261,1.1302,1.1364,1.1735,1.2048,1.2347,1.2667,1.2684,1.2635,1.2635,1.2429,0.0,0.0,0.0,0.0,0.0,0.0,0.0,0.0,0.0,0.0,0.0,0.0,0.0,0.0,1.2807,1.2807,1.2807,1.2807,1.2807,1.2807,1.3137,1.3334,1.3334,1.3654,1.3982,1.4277,1.4637,1.4866,1.4996,1.5649,1.6071,1.6299,1.6407,1.6591,1.6839,1.6591,1.6688,1.7066,1.784,1.8708,1.9647,2.0475,2.133,2.2073,0.0,0.0,0.0,0.0,0.0,0.0,0.0,0.0,0.0,0.0,0.0,1.0457,0.0,0.0,0.0,1.0326,1.0442,1.0653,1.0921,1.1444,1.1849,1.2088,1.2442,1.261,1.2601,1.2785,1.2752,1.2534,1.2151,1.1719,1.1237,1.0853,1.0357,0.9733,0.9505,0.9217,0.8876,0.8635,0.8487,0.8452,0.8691,0.874,0.8681,0.8537,0.8453,0.8305,0.0,0.0,0.6992,0.6667,0.6487,0.6423,0.6619,0.0,0.0,0.0,0.7405,0.8131,0.89,0.9882,1.0801,1.1185,1.1449,1.1577,1.1514,1.2063,1.2576,1.2536,1.2675,1.2807,1.2807,1.2667,0.0,0.0,0.0,0.0,0.0,0.0,0.0,0.0,0.0,0.0,0.0,0.0,0.0,0.0,1.2807,1.2906,1.3104,1.2906,1.2906,1.3137,1.3301,1.34,1.34,1.3916,1.4342,1.467,1.4833,1.5029,1.5267,1.5779,1.5974,1.5984,1.6526,1.6753,1.6721,1.6753,1.7109,1.7647,1.8547,1.9412,2.0284,2.133,2.201,2.2418,0.0,0.0,0.0,0.0,0.0,0.0,0.0,0.0,0.0,0.0,0.0,0.0,0.0,0.0,0.0,0.0,1.1114,1.1355,1.1805,1.2172,1.2518,1.285,1.2891,1.2869,1.2838,1.285,1.2711,1.2401,1.2164,1.1806,1.1337,1.0847,1.0327,0.9766,0.9699,0.9442,0.904,0.9001,0.8898,0.8792,0.9036,0.9171,0.9173,0.8938,0.8907,0.8867,0.7913,0.0,0.0,0.0,0.0,0.6698,0.6734,0.6967,0.0,0.0,0.0,0.7846,0.9049,0.9774,1.0317,1.0868,1.1256,1.1492,1.1443,1.2063,1.2634,1.2477,1.2634,1.2807,1.2807,0.0,0.0,0.0,0.0,0.0,0.0,0.0,0.0,0.0,0.0,0.0,0.0,0.0,0.0,0.0,1.2906,1.3071,1.3367,1.3202,1.3227,1.3531,1.3597,1.3663,1.3663,1.4244,1.4637,1.4898,1.4898,1.5094,1.5505,1.5844,1.5909,1.5789,1.6656,1.685,1.6656,1.7163,1.7679,1.8258,1.9507,2.0348,2.1014,2.2167,2.2637,2.2762,0.0,0.0,0.0,0.0,0.0,0.0,0.0,0.0,0.0,0.0,0.0,0.0,1.1581,1.1431,1.146,1.1804,1.1564,1.1607,1.2136,1.2958,1.3292,1.2993,1.3284,0.0,1.3195,1.2761,1.2382,1.2132,1.197,1.147,1.0648,1.0674,1.055,1.0244,1.0006,0.9737,0.9461,0.9468,0.928,0.902,0.942,0.9522,0.9527,0.9941,0.0,0.0,0.0,0.0,0.0,0.0,0.0,0.0,0.0,0.7191,0.7216,0.0,0.0,0.0,0.8782,0.9065,0.9269,0.9978,1.0413,1.0849,1.1602,1.2063,1.2412,1.2708,1.2807,1.2807,1.2807,0.0,0.0,0.0,0.0,0.0,0.0,0.0,0.0,0.0,0.0,0.0,0.0,0.0,0.0,0.0,1.3137,1.3367,1.34,1.3687,1.3842,1.3875,1.4179,1.4342,1.4342,1.4702,1.4866,1.4898,1.4898,1.5094,1.5505,1.5844,1.6169,1.6472,1.685,1.7001,1.7034,1.8022,1.8439,1.8632,2.0335,2.1235,2.1646,2.2324,2.2793,2.3074,0.0,0.0,0.0,0.0,0.0,0.0,0.0,0.0,0.0,0.0,0.0,0.0,0.0,1.2378,1.2485,1.2654,1.2356,1.2522,1.3302,1.3329,1.3425,1.3686,1.3733,1.3504,1.296,1.2777,1.2537,1.2237,1.1887,1.1478,1.1059,1.0932,1.0753,1.0474,0.989,0.9667,0.9676,0.9515,0.9275,0.9043,0.9573,0.9748,0.9709,0.0,0.0,0.0,0.0,0.0,0.0,0.0,0.0,0.0,0.0,0.0,0.0,0.7483,0.763,0.7877,0.8514,0.8626,0.8698,0.9269,1.0026,1.075,1.1027,1.1889,1.2642,1.2766,1.2807,1.2807,1.2807,0.0,0.0,0.0,0.0,0.0,0.0,0.0,0.0,0.0,0.0,0.0,0.0,0.0,0.0,0.0,0.0,1.3498,1.372,1.3818,1.4006,1.4202,1.4342,1.4506,1.4735,1.4833,1.4898,1.4898,1.5169,1.5365,1.5528,1.6082,1.6396,1.6536,1.685,1.7001,1.7034,1.7615,1.8387,1.9316,2.0367,2.138,2.2292,2.2762,2.3012,2.3166,0.0,0.0,0.0,0.0,0.0,0.0,0.0,0.0,0.0,0.0,0.0,0.0,0.0,0.0,1.3253,1.3421,1.3404,1.358,1.4087,1.3954,1.3934,1.4156,1.4096,1.3743,1.3051,1.2772,1.2451,1.2064,1.1628,1.1292,1.1063,1.0931,1.0822,1.0663,0.9998,0.9769,0.9877,0.9685,0.9445,0.9234,0.9785,0.9885,0.9724,0.0,0.0,0.0,0.0,0.0,0.0,0.0,0.0,0.0,0.0,0.0,0.0,0.0,0.7783,0.7795,0.81,0.8143,0.8213,0.8772,0.9475,1.0168,1.0854,1.1686,1.2425,1.275,1.2807,1.2807,1.2807,1.2807,0.0,0.0,0.0,0.0,0.0,0.0,0.0,0.0,0.0,0.0,0.0,0.0,0.0,0.0,0.0,0.0,1.3875,1.4104,1.4342,1.4572,1.4572,1.467,1.4898,1.4898,1.4964,1.5104,1.5365,1.5626,1.5854,1.6309,1.6569,1.6688,1.7012,1.7174,1.7195,1.7787,1.8784,2.0017,2.0811,2.179,2.2793,2.3012,2.3168,2.3352,0.0,0.0,0.0,0.0,0.0,0.0,0.0,0.0,0.0,1.2853,0.0,0.0,0.0,0.0,0.0,1.4089,1.4581,1.474,1.4429,1.4825,1.4846,1.4341,1.4368,1.4105,1.3516,1.2717,1.2071,1.1619,1.1213,1.0877,1.0609,1.0619,1.0715,1.0872,1.0332,1.0092,1.0077,1.0016,0.983,0.964,0.0,0.9933,0.9583,0.0,0.0,0.0,0.9531,0.9804,0.0,0.916,0.0,0.0,0.0,0.0,0.0,0.0,0.0,0.0,0.0,0.0,0.0,0.858,0.8692,0.9137,1.1096,1.1463,1.1661,1.2587,1.2799,1.2799,1.2799,1.2799,0.0,0.0,0.0,0.0,0.0,0.0,0.0,0.0,0.0,0.0,0.0,0.0,0.0,0.0,1.3785,1.4235,1.3908,1.4539,1.4898,1.4898,1.4898,1.4898,1.4898,1.4898,1.5094,1.5495,1.5528,1.5854,1.6504,1.6504,1.6688,1.7001,1.7368,1.7529,1.7626,1.8688,1.9699,2.0734,2.1695,2.2526,2.312,2.312,2.3353,2.3693,0.0,0.0,0.0,0.0,0.0,0.0,0.0,0.0,1.2691,0.0,0.0,0.0,1.4384,1.4592,1.4677,1.468,1.4459,1.443,1.4665,1.4575,1.4545,1.4573,1.4363,1.3972,1.3365,1.2709,1.2214,1.1892,1.1435,1.1101,1.0878,1.099,1.0877,1.0595,1.0393,1.0212,1.0025,0.9805,0.9647,0.9557,1.0019,1.0044,0.0,0.0,0.0,0.0,0.0,1.0057,0.9816,0.0,0.9057,0.8541,0.0,0.0,0.0,0.0,0.0,0.0,0.7826,0.0,0.0,0.0,0.0,0.0,0.995,1.095,1.183,1.2115,1.2499,1.2767,1.2661,1.2743,0.0,0.0,0.0,0.0,0.0,0.0,0.0,0.0,0.0,0.0,0.0,0.0,0.0,0.0,1.372,1.4006,1.3908,1.4539,1.4898,1.4898,1.4898,1.4898,1.4898,1.5202,1.5398,1.5505,1.5984,1.6309,1.6504,1.6753,1.6915,1.7034,1.7872,1.8387,1.8688,1.9232,2.0208,2.138,2.1884,2.2812,2.3805,2.3805,2.4222,2.4799,0.0,0.0,0.0,0.0,0.0,0.0,1.3318,1.3498,1.38,0.0,0.0,0.0,1.5123,1.5168,1.524,1.5461,1.5093,1.4901,1.4991,1.4794,1.4622,1.45,1.4286,1.3856,1.3192,1.2563,1.205,1.1718,1.123,1.099,1.0951,1.1042,1.0919,1.0618,1.0458,1.0308,1.0087,0.964,0.9455,0.0,1.0009,0.0,0.0,1.0326,1.058,0.0,0.0,0.0,1.0249,1.0324,0.9527,0.0,0.0,0.0,0.0,0.0,0.0,0.0,0.0,0.0,0.0,0.0,0.0,0.0,0.9892,1.0686,1.1447,0.0,1.2507,1.2686,1.2613,1.2588,1.2605,0.0,0.0,0.0,0.0,0.0,0.0,0.0,0.0,0.0,0.0,1.3752,1.3761,1.3621,1.4048,1.431,1.431,1.4702,1.4898,1.4898,1.4898,1.4964,1.5137,1.5365,1.5626,1.5919,1.6309,1.6558,1.6721,1.6915,1.7066,1.7271,1.8291,1.9124,1.9763,2.0399,2.1208,2.2046,2.2395,2.3261,2.4338,2.4513,2.4815,2.5259,0.0,0.0,0.0,1.2951,1.3733,1.4396,1.4481,1.4719,1.5083,0.0,1.5304,1.5238,1.5769,1.5532,1.5562,0.0,1.5988,1.5678,1.5281,1.5173,1.4863,1.4274,1.4141,1.3771,1.3031,1.2375,1.1816,1.1334,1.0883,1.0757,1.092,1.0891,1.0835,1.0732,1.0504,1.0312,1.0138,0.9497,0.0,0.9556,0.9998,0.9876,0.0,0.0,1.0329,1.0277,1.0604,1.0844,1.1057,1.1086,1.0319,0.0,0.0,0.0,0.0,0.0,0.8553,0.0,0.0,0.0,0.0,0.0,0.0,0.0,1.0287,1.05,1.0751,0.0,1.2459,1.2403,1.2418,1.2273,1.2193,0.0,0.0,0.0,0.0,0.0,0.0,0.0,0.0,0.0,1.3597,1.408,1.4268,1.3973,1.4506,1.4866,1.4898,1.4898,1.4898,1.4898,1.4898,1.5104,1.5495,1.5528,1.5886,1.6504,1.6526,1.6721,1.7001,1.7034,1.7206,1.7561,1.8655,1.9699,2.0671,2.1768,2.2423,2.2804,2.3078,2.3825,2.4767,2.5138,2.5291,2.5454,0.0,0.0,1.4253,1.4584,1.4674,1.478,1.501,1.4928,1.499,1.5472,1.5826,1.6181,1.6607,1.6321,1.6067,0.0,1.5624,1.5304,1.5003,1.4803,1.4629,1.4443,1.4265,1.3843,1.3104,1.2586,1.2066,1.154,1.1238,1.1094,1.1134,1.0911,1.0696,1.0471,1.038,0.9987,0.9415,0.9442,0.0,0.9606,0.9929,0.0,1.0333,1.0847,1.1117,1.1248,1.1307,1.1296,1.1146,1.066,1.0327,1.0101,0.0,0.0,0.0,0.0,0.0,0.0,0.0,0.0,0.0,0.0,0.0,0.0,0.9195,0.9666,1.0142,0.0,1.102,1.1264,1.1374,1.1278,1.1225,0.0,0.0,0.0,0.0,0.0,0.0,0.0,0.0,0.0,1.4604,1.4473,1.4375,1.431,1.4408,1.4604,1.4898,1.4898,1.4898,1.4898,1.4898,1.5104,1.5495,1.5779,1.6104,1.6504,1.6785,1.6947,1.7001,1.7271,1.7432,1.7561,1.8912,1.9922,2.0729,2.2275,2.3258,2.3811,2.389,2.4545,2.5493,2.5557,2.6101,2.6777,0.0,1.4922,1.5163,1.5349,1.5619,1.5882,1.6099,1.6067,1.6122,1.6456,1.6386,1.647,1.6907,1.6579,1.6385,0.0,0.0,0.0,0.0,0.0,1.4453,1.4205,1.3975,1.3507,1.278,1.2398,1.1941,1.1405,1.1125,1.0999,1.0999,1.0736,1.0568,1.0466,1.0129,0.9809,0.9577,0.9145,0.9113,0.9429,0.9831,0.0,1.069,1.1173,1.1419,1.1508,1.1606,1.154,1.1359,1.1008,1.0728,0.0,0.0,0.9987,0.9645,0.0,0.9321,0.9314,0.0,0.0,0.0,0.8912,0.0,0.0,0.0,0.976,1.0237,1.0686,1.0911,1.1069,1.125,1.1057,1.0961,1.1264,0.0,0.0,0.0,0.0,0.0,0.0,0.0,0.0,1.4637,1.4637,1.4637,1.4637,1.4637,1.4735,1.4898,1.4898,1.4898,1.4898,1.5104,1.5398,1.5756,1.6071,1.6429,1.6753,1.6904,1.7098,1.7271,1.7432,1.7702,1.8121,1.9507,2.0494,2.1235,2.2917,2.397,2.4634,2.4802,2.5539,2.6431,2.6453,2.689,2.7491,1.5666,1.5759,1.5993,1.6125,1.6544,1.6949,1.7199,1.7114,1.7123,1.7412,1.699,1.6808,1.7176,1.6902,1.6813,0.0,0.0,0.0,0.0,0.0,0.0,1.4158,1.3745,1.3228,1.2649,1.2215,1.1741,1.1192,1.0919,1.0849,1.0935,1.054,1.0431,1.0509,1.0094,0.9836,0.967,0.9135,0.9071,0.9379,0.0,1.0318,1.0624,1.1214,1.1412,1.1465,1.1711,1.1709,1.1549,1.1449,1.1163,1.0852,1.0911,1.0732,0.0,0.0,0.0,0.0,0.0,0.0,0.0,0.0,0.0,0.914,0.0,0.0,0.0,1.099,1.0973,1.0938,1.1229,1.0907,0.0,0.0,0.0,0.0,0.0,0.0,0.0,0.0,0.0,0.0,0.0,1.4716,1.4898,1.4898,1.4898,1.4931,1.4996,1.4931,1.4964,1.5094,1.5365,1.5691,1.6104,1.6364,1.6656,1.7001,1.7066,1.7238,1.7497,1.7658,1.8121,1.886,2.0081,2.1091,2.2009,2.3559,2.4678,2.5453,2.5767,2.637,2.711,2.7246,2.7523,2.7913,1.6976,1.6842,1.7056,1.7639,1.7385,1.7225,1.7659,1.6963,1.6619,1.7229,1.7662,1.7943,1.8043,0.0,0.0,0.0,0.0,0.0,1.5787,0.0,0.0,0.0,1.4028,1.3484,1.3454,1.2496,1.1745,1.1209,1.0944,1.1021,1.1406,1.0651,1.0315,1.034,1.0805,1.0118,0.8675,1.0108,1.0358,0.0,1.0468,1.033,0.0,1.0786,1.1146,1.1199,1.1651,1.179,1.1689,0.0,1.1373,1.1511,0.0,1.1023,1.1504,0.0,0.0,0.0,0.0,0.0,0.0,0.0,0.9355,0.0,0.0,0.0,0.9966,1.0338,0.0,1.0037,1.037,0.0,0.0,0.0,0.0,0.0,0.0,0.0,0.0,0.0,0.0,0.0,0.0,1.4762,1.4898,1.4898,1.4898,1.5062,1.5398,1.5104,1.5192,1.5844,1.5626,1.5789,1.6439,1.6472,1.6656,1.7001,1.7303,1.7464,1.7529,1.8185,1.8848,1.952,2.0272,2.1497,2.3018,2.4092,2.5311,2.6532,2.6564,2.668,2.6825,2.7408,2.7912,2.8252,1.7441,1.7377,1.753,1.7679,1.7599,1.7531,1.7557,1.7367,1.7306,1.7519,1.7733,1.7812,0.0,0.0,0.0,0.0,0.0,1.6711,0.0,0.0,0.0,0.0,0.0,0.0,0.0,1.2325,1.1663,1.0978,1.0974,1.0934,1.0787,1.045,1.0314,1.0366,1.0384,1.0065,0.9553,1.0319,1.0401,0.0,0.0,0.0,0.0,1.1102,1.1513,1.1521,1.1722,1.1806,1.1768,0.0,1.1651,0.0,0.0,0.0,0.0,0.0,0.0,0.0,0.0,0.0,0.0,0.0,0.0,0.0,0.9839,0.0,1.0119,0.0,0.0,0.0,0.0,0.0,0.0,0.0,1.1192,0.0,0.0,0.0,0.0,0.0,0.0,0.0,0.0,0.0,0.0,0.0,1.5421,1.5518,1.5495,1.5518,1.5681,1.6006,1.6049,1.6212,1.6504,1.6688,1.685,1.7001,1.7335,1.7594,1.7819,1.8752,1.9542,2.0258,2.1509,2.268,2.3767,2.5033,2.5985,2.6761,2.7376,2.7753,2.7947,2.8026,2.8402,2.8881,1.808,1.8039,1.8087,1.8001,1.8064,1.8006,1.7567,1.7787,1.7895,1.7583,0.0,0.0,1.7276,1.739,0.0,0.0,1.7257,1.6889,0.0,0.0,1.4933,0.0,0.0,0.0,0.0,0.0,1.1608,1.107,1.1141,1.1021,1.069,1.0476,1.0336,1.0222,1.019,1.0155,1.0105,1.0616,1.0675,1.047,1.0792,1.0852,1.0787,1.1383,1.17,1.1872,1.1913,1.1867,1.1798,1.184,1.1878,0.0,1.1919,0.0,0.0,0.0,0.0,0.0,1.0267,0.0,0.0,0.0,0.0,0.0,0.0,0.0,0.0,0.0,0.0,0.0,0.0,0.0,1.057,0.0,0.0,1.167,0.0,0.0,0.0,0.0,0.0,0.0,0.0,0.0,0.0,0.0,0.0,1.5758,1.5657,1.5818,1.601,1.6256,1.6429,1.6526,1.6623,1.698,1.713,1.713,1.7594,1.7916,1.8206,1.9252,2.0201,2.1071,2.2598,2.3758,2.4787,2.5978,2.6744,2.723,2.8097,2.8626,2.8905,2.865,2.8881,2.9316,1.9161,1.9048,1.9003,1.9117,1.9106,1.8746,0.0,0.0,0.0,0.0,0.0,0.0,0.0,0.0,0.0,0.0,0.0,1.7631,1.6833,0.0,1.5852,0.0,0.0,1.3181,0.0,0.0,0.0,1.1768,1.1519,1.1473,1.1637,1.0915,1.0316,0.9844,1.0768,1.0539,0.9621,1.1273,1.167,1.1277,1.1635,1.1752,1.1714,0.0,1.1487,1.1996,1.215,0.0,0.0,1.1959,1.2069,0.0,0.0,0.0,0.0,0.0,0.0,0.0,0.0,0.0,0.0,1.0506,0.0,0.0,0.0,0.0,1.0688,0.0,0.0,0.0,0.0,0.0,1.1021,0.0,0.0,0.0,0.0,0.0,0.0,0.0,0.0,0.0,0.0,0.0,0.0,0.0,0.0,0.0,1.6043,1.5778,1.604,1.6936,1.6656,1.6656,1.6969,1.7335,1.7464,1.7497,1.8217,1.8571,1.8603,1.9603,2.0796,2.2103,2.3142,2.4567,2.6187,2.6872,2.7605,2.8263,2.8626,2.8988,2.9283,2.9266,2.9266,2.9316,1.9425,1.9438,1.9281,1.8761,1.8541,1.8295,0.0,1.7664,0.0,0.0,0.0,0.0,0.0,1.7864,1.7913,0.0,0.0,1.7266,1.6767,1.5871,0.0,0.0,0.0,1.3222,0.0,0.0,0.0,0.0,1.1754,1.1724,1.1425,1.1354,1.1027,1.0541,1.0943,1.0661,0.9929,1.1388,1.1592,0.0,0.0,1.172,1.1586,0.0,0.0,1.2398,1.2454,1.252,0.0,1.2843,1.276,1.2561,1.2721,1.2626,1.2453,1.2513,1.2311,0.0,0.0,0.0,1.2191,1.1309,0.0,0.0,0.0,0.0,0.0,0.0,0.0,0.0,0.0,0.0,0.0,0.0,0.0,0.0,0.0,0.0,0.0,0.0,0.0,0.0,0.0,0.0,0.0,0.0,0.0,0.0,0.0,1.6381,1.6668,1.7001,1.7109,1.7206,1.7335,1.7658,1.7819,1.7852,1.8346,1.8603,1.8647,2.0059,2.1065,2.1811,2.4,2.5388,2.6247,2.7422,2.8229,2.8642,2.8774,2.8988,2.9316,2.9316,2.9316,2.9316,1.9565,1.954,1.9368,1.8852,1.8528,0.0,0.0,0.0,0.0,0.0,1.7756,0.0,1.7623,0.0,1.7565,0.0,1.7042,1.6787,1.6555,1.5808,0.0,1.4965,1.42,0.0,0.0,0.0,0.0,0.0,0.0,1.1926,1.1415,1.1505,1.1211,1.0597,1.0766,1.0737,1.0586,1.1504,1.1718,0.0,0.0,1.1777,0.0,0.0,1.2182,1.253,0.0,1.2964,1.3159,1.3501,1.3348,1.3029,1.3285,1.3113,1.2888,1.3171,1.3039,1.2812,1.2872,1.3141,0.0,1.2255,1.2446,0.0,1.1779,0.0,0.0,0.0,0.0,0.0,0.0,0.0,0.0,0.0,0.0,0.0,0.0,1.1837,0.0,0.0,0.0,0.0,0.0,0.0,0.0,0.0,0.0,0.0,0.0,0.0,1.6915,1.7001,1.7335,1.7497,1.7497,1.798,1.8206,1.8238,1.8603,1.8843,1.8971,2.0372,2.1437,2.2337,2.4485,2.5894,2.6735,2.7865,2.851,2.8807,2.8939,2.9119,2.9316,2.9316,2.9316,2.9316,1.9594,1.9363,0.0,0.0,1.9008,0.0,0.0,0.0,1.7635,0.0,1.7344,1.7416,1.7168,1.7121,1.7013,1.673,1.6477,1.6287,1.6217,1.6006,0.0,0.0,1.4712,1.4294,1.4229,0.0,0.0,0.0,0.0,1.2146,1.1618,1.1415,1.0873,1.008,1.031,1.083,1.1478,1.1637,1.208,1.266,1.22,1.2005,1.203,1.2247,1.2344,1.243,1.3092,1.3344,1.3443,1.3902,1.3828,1.3594,1.391,1.4135,1.4355,1.4521,1.4587,1.4523,1.4194,1.3896,1.3572,1.3216,0.0,0.0,0.0,0.0,1.2666,0.0,0.0,0.0,0.0,0.0,0.0,0.0,0.0,0.0,0.0,0.0,0.0,0.0,0.0,0.0,0.0,0.0,0.0,0.0,0.0,0.0,0.0,0.0,1.6785,1.7034,1.7335,1.7529,1.7529,1.8282,1.8603,1.8635,1.8968,1.9261,1.9536,2.0604,2.1949,2.3529,2.4701,2.6156,2.7716,2.8163,2.8527,2.8873,2.9185,2.9316,2.9316,2.9316,2.9316,2.9316,1.9301,1.8973,1.8503,0.0,1.8122,1.8135,0.0,0.0,0.0,0.0,1.7654,1.7614,1.7757,1.7592,1.7345,1.7021,1.6746,0.0,0.0,0.0,0.0,1.5709,1.5093,1.4641,1.4417,1.39,0.0,1.3106,0.0,1.2404,1.1891,1.1846,1.1466,1.0814,1.0895,1.0901,1.095,1.1458,1.2157,1.2852,1.2258,1.2078,0.0,0.0,1.2691,1.2939,1.3364,1.3843,1.4308,1.457,1.4424,1.4135,1.4358,1.437,1.4317,1.4342,1.4392,1.4361,1.4266,1.4272,1.4213,1.3627,1.3711,1.3837,0.0,0.0,0.0,0.0,0.0,0.0,0.0,0.0,0.0,0.0,0.0,0.0,0.0,0.0,0.0,1.23,0.0,0.0,0.0,0.0,0.0,0.0,0.0,0.0,0.0,0.0,0.0,1.7357,1.769,1.8013,1.8314,1.8764,1.8976,1.8988,1.9277,1.9431,1.9548,2.131,2.2351,2.2902,2.5523,2.6923,2.7435,2.8576,2.9086,2.9185,2.9283,2.9316,2.9316,2.9316,2.9316,2.9349,1.8758,1.8427,0.0,1.7639,0.0,0.0,1.7218,1.7329,0.0,1.7948,1.7963,0.0,1.8158,1.7781,1.744,1.7129,1.6851,0.0,1.6455,0.0,0.0,1.5556,1.5202,1.4845,1.4465,1.4011,0.0,1.3194,0.0,1.246,1.1837,1.1837,1.1509,1.0935,1.0935,1.1003,1.1183,1.1946,1.2475,1.2754,1.2543,1.2447,0.0,1.2807,1.3174,1.349,1.3814,1.4276,1.4738,1.4757,1.4616,1.4427,1.4455,1.4446,1.4418,1.4418,1.4484,1.455,1.455,1.4634,1.464,1.4256,1.437,1.4528,1.4392,1.45,1.4776,0.0,0.0,0.0,0.0,0.0,0.0,0.0,0.0,0.0,0.0,0.0,0.0,0.0,1.3374,0.0,0.0,0.0,0.0,0.0,0.0,0.0,0.0,0.0,0.0,1.7352,1.7956,1.8366,1.8603,1.8924,1.9165,1.9285,1.9431,1.9788,2.0398,2.1837,2.2903,2.37,2.5956,2.7202,2.775,2.8692,2.9185,2.9316,2.9316,2.9316,2.9316,2.9316,2.9316,2.9349,1.8209,1.7954,0.0,0.0,0.0,0.0,0.0,1.7284,0.0,1.7966,0.0,1.8283,1.8228,1.7755,1.735,1.7123,0.0,1.658,1.631,1.6466,1.6206,1.5416,1.5278,1.5008,1.4513,1.3901,0.0,0.0,0.0,1.2377,1.1591,1.1573,1.1236,1.0688,1.072,1.1164,1.1881,1.2638,1.2869,1.2747,1.3048,1.3,1.2807,1.3299,1.3654,1.4006,1.431,1.4604,1.487,1.47,1.4644,1.4606,1.4418,1.4493,1.4644,1.4644,1.4766,1.4898,1.4898,1.4898,1.4898,1.4898,1.4931,1.5014,1.5177,1.5233,1.5489,1.6159,1.5721,1.5463,0.0,0.0,0.0,0.0,0.0,0.0,0.0,0.0,0.0,0.0,0.0,0.0,0.0,0.0,0.0,0.0,0.0,0.0,0.0,0.0,0.0,1.7386,1.8166,1.8603,1.8667,0.0,1.9273,1.9503,1.9576,2.0186,2.1285,2.2168,2.343,2.5003,2.6182,2.7318,2.8395,2.8741,2.9021,2.9316,2.9316,2.9316,2.9316,2.9316,2.9349,2.9397,1.8375,1.8066,0.0,0.0,0.0,1.7623,1.7471,1.7889,1.8181,1.8029,1.7802,1.7588,1.7353,1.7241,1.7144,1.7081,1.6808,0.0,0.0,0.0,0.0,1.6263,1.5803,1.5368,1.5001,1.438,1.3869,0.0,0.0,0.0,1.1591,1.1318,1.1017,1.0696,1.0878,1.1573,1.2627,1.2763,0.0,1.3793,1.3608,1.3593,1.3668,1.3768,1.4015,1.431,1.4366,1.4604,1.4898,1.4861,1.4851,1.4842,1.4804,1.4814,1.4851,1.4851,1.487,1.4898,1.4898,1.4898,1.4898,1.4898,1.5137,1.5486,1.5761,1.6043,1.6366,1.6786,1.6529,1.6231,1.6254,0.0,0.0,0.0,0.0,0.0,0.0,0.0,0.0,0.0,0.0,1.5689,0.0,0.0,0.0,0.0,0.0,0.0,0.0,0.0,0.0,0.0,1.8515,0.0,0.0,0.0,1.9455,1.9503,1.995,2.0284,2.0551,2.2128,2.3488,2.467,2.6352,2.7716,2.8741,2.9053,2.925,2.9316,2.9316,2.9316,2.9316,2.9316,2.9463,2.9789,1.8375,0.0,0.0,0.0,0.0,0.0,0.0,1.8343,0.0,1.8227,1.796,1.7706,1.7592,1.742,1.7325,1.7315,1.7169,1.7113,1.7214,1.6773,1.636,1.6035,1.5423,0.0,1.4639,1.4172,1.3633,1.3031,0.0,0.0,1.1345,1.1181,1.102,1.0878,1.1417,1.1938,1.2431,0.0,0.0,1.3868,1.3967,1.3959,1.3908,1.4071,1.4277,1.4408,1.4604,1.4768,1.4898,1.4898,1.4898,1.4898,1.4898,1.4898,1.4898,1.4898,1.4898,1.4898,1.4898,1.4898,1.4898,1.4898,1.5039,1.53,1.5658,1.6006,1.6331,1.6656,1.6753,1.6689,1.6412,1.5867,0.0,0.0,0.0,0.0,0.0,0.0,0.0,0.0,0.0,0.0,0.0,0.0,0.0,0.0,0.0,0.0,0.0,0.0,0.0,0.0,0.0,0.0,0.0,0.0,0.0,1.9721,2.012,2.0647,2.1398,2.2984,2.421,2.5172,2.7185,2.8229,2.856,2.9086,2.9316,2.9316,2.9316,2.9316,2.9316,2.9316,2.9495,2.9855,1.8614,1.8216,0.0,0.0,1.8604,0.0,1.8765,1.8554,1.8397,1.8396,1.8114,1.7872,1.7872,1.7667,1.7508,1.7508,1.742,1.7285,1.702,1.6685,1.6242,1.5631,1.5037,1.456,1.4202,1.3873,1.3386,0.0,0.0,0.0,0.0,1.113,1.1142,1.1294,0.0,0.0,0.0,0.0,1.3938,1.3802,1.4312,1.431,1.4039,1.4366,1.4506,1.4539,1.48,1.4898,1.4898,1.4898,1.4898,1.4898,1.4898,1.4898,1.4898,1.4898,1.4898,1.4898,1.4898,1.4898,1.4898,1.4898,1.4964,1.5137,1.5528,1.5876,1.6201,1.6526,1.6818,1.6904,1.6656,1.6361,0.0,0.0,0.0,0.0,0.0,0.0,0.0,0.0,0.0,0.0,0.0,0.0,0.0,0.0,0.0,0.0,0.0,0.0,0.0,0.0,0.0,1.9104,1.9104,0.0,1.9697,0.0,2.0241,2.1043,2.2345,2.3597,2.4752,2.5913,2.7699,2.8494,2.856,2.9086,2.9316,2.9316,2.9316,2.9316,2.9316,2.9364,2.9626,2.9985,0.0,0.0,0.0,0.0,0.0,0.0,1.8507,1.841,1.8415,1.8406,1.7906,1.7537,1.7537,1.7508,1.7508,1.7508,1.7226,1.702,1.6991,1.6685,1.6242,1.5631,1.5235,1.4788,1.4202,1.3873,1.358,0.0,0.0,0.0,0.0,0.0,0.0,0.0,0.0,0.0,0.0,1.392,1.4075,1.4348,1.4693,1.4637,1.4408,1.4735,1.4833,1.4866,1.4898,1.4898,1.4898,1.4898,1.4898,1.4898,1.4898,1.4898,1.4898,1.4898,1.4898,1.4898,1.4898,1.4898,1.4898,1.4898,1.5169,1.5528,1.5876,1.6201,1.6558,1.6882,1.6969,1.7001,1.6969,1.6904,1.6904,0.0,0.0,0.0,0.0,0.0,0.0,0.0,0.0,0.0,0.0,1.7108,0.0,0.0,0.0,0.0,0.0,0.0,0.0,1.9004,0.0,1.9104,1.9104,1.9624,1.989,1.9893,2.0422,2.1229,2.231,2.2825,2.4297,2.6553,2.7086,2.8081,2.9218,2.9283,2.9316,2.9316,2.9316,2.9316,2.9349,2.9626,2.9985,3.0393,0.0,0.0,0.0,0.0,0.0,0.0,0.0,1.8264,1.8165,1.8165,1.7784,1.7508,1.7508,1.7508,1.7508,1.7508,1.7197,1.6991,1.6991,1.6549,1.6076,1.5631,1.5096,1.462,1.4202,1.3873,1.35,0.0,0.0,0.0,0.0,0.0,0.0,0.0,0.0,1.3524,1.4006,1.4354,1.4586,1.4702,1.4833,1.4833,1.4702,1.4637,1.4735,1.4866,1.467,1.4735,1.4917,1.504,1.5002,1.4898,1.4898,1.4898,1.4898,1.4898,1.5062,1.5267,1.5267,1.5421,1.5551,1.5551,1.5681,1.5844,1.5974,1.6266,1.6526,1.6656,1.685,1.7001,1.7001,1.7001,1.713,0.0,0.0,0.0,0.0,0.0,0.0,0.0,0.0,0.0,0.0,0.0,0.0,0.0,0.0,0.0,0.0,0.0,0.0,1.8843,0.0,1.9346,1.9346,1.9878,2.0257,2.046,2.1068,2.1932,2.2996,2.404,2.5764,2.7915,2.8081,2.8576,2.9316,2.9316,2.9316,2.9316,2.9316,2.9316,2.9349,2.9691,3.005,3.0443,1.9011,0.0,1.8277,0.0,1.8237,1.8166,1.8357,1.8231,1.8091,1.7958,1.775,1.7565,1.7493,1.7553,1.7542,1.7452,1.7214,1.7035,1.6945,1.6537,1.6106,1.5686,1.5113,0.0,1.4388,1.4055,1.3676,1.3297,1.2973,0.0,0.0,0.0,0.0,0.0,1.383,1.4134,1.4229,1.4711,1.4898,1.4898,1.4898,1.4898,1.4866,1.4637,1.4702,1.4866,1.4637,1.474,1.5012,1.5153,1.5144,1.5101,1.5012,1.4983,1.5007,1.5048,1.5267,1.5528,1.5626,1.5811,1.6017,1.6055,1.6108,1.6108,1.6239,1.6435,1.661,1.6644,1.685,1.7001,1.7001,1.7001,1.7163,1.7615,0.0,0.0,0.0,0.0,0.0,0.0,1.8892,1.8621,1.8304,1.7917,0.0,0.0,0.0,0.0,0.0,0.0,0.0,0.0,0.0,0.0,0.0,2.0083,2.0573,2.1116,2.1667,2.2688,2.4108,2.5663,2.7218,2.8675,2.8873,2.9086,2.9316,2.9316,2.9316,2.9316,2.9316,2.9364,2.9495,2.9855,3.023,3.0588,1.9316,1.9071,1.8781,1.8473,1.8415,1.8399,1.8409,1.8399,1.8245,1.7841,1.7803,1.7709,1.7431,1.765,1.7649,1.7322,1.7291,1.7168,1.6817,1.6786,1.6476,0.0,0.0,1.5141,1.4808,1.4464,1.4307,1.4267,0.0,0.0,1.3576,0.0,1.3443,1.4075,1.4116,1.4387,1.4889,1.4898,1.4898,1.4898,1.4898,1.4898,1.4898,1.4898,1.4898,1.4898,1.4898,1.503,1.52,1.52,1.5375,1.5551,1.5266,1.52,1.5229,1.5423,1.5495,1.5561,1.5909,1.6006,1.6057,1.6257,1.6308,1.6407,1.6805,1.6904,1.6897,1.699,1.7001,1.7001,1.7001,1.7001,1.7001,1.7001,0.0,0.0,0.0,0.0,0.0,0.0,1.9104,1.9104,1.9092,0.0,0.0,0.0,0.0,0.0,0.0,0.0,0.0,1.9479,1.9491,0.0,1.9881,2.0146,2.0811,2.1893,2.2167,2.3461,2.5629,2.7451,2.8263,2.8329,2.9021,2.9316,2.9316,2.9316,2.9316,2.9316,2.9316,2.9495,2.9855,3.023,3.0588,3.0944,1.9384,1.9235,1.9014,1.8478,1.8364,1.824,1.8021,1.8002,1.7843,1.7507,1.7564,1.7551,1.7233,1.736,1.7426,0.0,1.7086,1.6839,0.0,1.6467,1.625,1.5805,1.5711,1.5494,1.5151,1.4808,1.4536,1.4307,0.0,0.0,0.0,1.383,1.4093,1.4642,1.4642,1.4744,1.4898,1.4898,1.4898,1.4898,1.4898,1.4768,1.4572,1.4572,1.4572,1.459,1.4695,1.4954,1.5238,1.5564,1.574,1.5788,1.5712,1.546,1.5257,1.5598,1.5767,1.5909,1.6234,1.6652,1.6985,1.7026,1.7163,1.7269,1.7403,1.7437,1.7449,1.7474,1.7486,1.7486,1.7486,1.7685,1.7951,1.8194,1.8459,0.0,0.0,0.0,0.0,0.0,1.966,1.966,0.0,1.9588,0.0,0.0,0.0,0.0,0.0,0.0,0.0,0.0,1.9769,0.0,2.0518,2.1288,2.2112,2.293,2.374,2.4936,2.6383,2.7699,2.8296,2.8329,2.9021,2.9316,2.9316,2.9316,2.9316,2.9316,2.9561,2.9724,2.9887,3.0523,3.0815,3.098,1.9417,1.9309,1.9112,1.8464,1.8209,1.8066,1.7975,1.7832,1.7649,1.7408,1.7492,1.7423,1.7116,1.7142,0.0,1.72,1.7011,1.6791,1.6571,1.6571,1.6476,1.6255,1.6002,1.5781,1.5581,0.0,0.0,1.4544,1.4321,1.429,1.4387,1.4387,1.4581,1.4898,1.4898,1.4898,1.4898,1.4898,1.4898,1.4898,1.4898,1.4768,1.4613,1.4687,1.4715,1.4743,1.4955,1.5211,1.5508,1.5807,1.5949,1.6015,1.6015,1.5847,1.5711,1.5925,1.6051,1.6236,1.6695,1.7095,1.7454,1.7638,1.7755,1.7863,1.7863,1.7753,1.7689,1.7689,1.7689,1.7756,1.788,1.8116,1.8418,1.8731,1.9,1.9301,1.9647,0.0,0.0,0.0,0.0,0.0,0.0,1.9881,0.0,0.0,0.0,0.0,0.0,0.0,0.0,1.9581,2.0166,0.0,2.1573,2.2219,2.3099,2.4244,2.5307,2.6197,2.6934,2.7865,2.8296,2.8329,2.9021,2.9316,2.9316,2.9316,2.9382,2.9495,2.9724,2.9985,3.0278,3.075,3.1067,3.136,1.9432,1.9323,1.9091,0.0,1.8016,0.0,1.8128,1.7817,1.756,1.7475,1.7487,1.7357,1.7066,1.7044,1.7055,1.7055,0.0,0.0,0.0,1.7001,1.7001,1.7001,1.6364,1.6006,1.6006,1.529,1.4931,1.4898,1.4898,1.4898,1.4898,1.4898,1.4898,1.4898,1.4898,1.4898,1.4898,1.4898,1.4908,1.4917,1.4917,1.4927,1.4932,1.5153,1.5219,1.5214,1.5532,1.5731,1.5901,1.5911,1.6053,1.6178,1.6214,1.6327,1.6397,1.6355,1.6358,1.6504,1.7234,1.741,1.754,1.7981,1.811,1.8121,1.8121,1.7938,1.7732,1.7732,1.7732,1.7867,1.8272,1.8373,1.8508,1.8856,1.8923,1.9057,1.9448,0.0,0.0,0.0,0.0,0.0,0.0,1.9975,2.0071,0.0,0.0,0.0,0.0,0.0,1.9557,2.0393,2.0733,2.1573,2.2928,2.303,2.3986,2.573,2.6718,2.72,2.7234,2.7965,2.8296,2.8329,2.9021,2.9316,2.9316,2.9316,2.9495,2.9805,2.9822,3.0278,3.0912,3.0944,3.1393,3.2019,0.0,0.0,1.926,1.8395,1.8084,1.7885,1.7697,1.7569,1.743,1.7163,1.7304,1.7391,1.7325,1.7443,1.7517,1.7517,1.7113,1.6886,1.6919,1.6886,1.6853,1.6853,1.6555,1.6266,1.6006,1.5593,1.5202,1.4898,1.4898,1.4898,1.4898,1.4898,1.4898,1.4898,1.4898,1.4898,1.4898,1.4898,1.4983,1.5125,1.5125,1.5061,1.5008,1.5359,1.531,1.5125,1.5647,1.5854,1.592,1.6091,1.6176,1.6249,1.6487,1.659,1.6677,1.6801,1.6916,1.7076,1.7502,1.7776,1.7949,1.8067,1.8229,1.8323,1.8323,1.8269,1.8226,1.8226,1.8226,1.8365,1.8747,1.9093,1.9404,1.9726,2.0037,2.0369,2.0713,2.0781,0.0,0.0,2.0884,2.0781,2.0553,2.0519,2.0458,0.0,0.0,0.0,0.0,2.0182,2.0265,2.0699,2.1518,2.2382,2.327,2.4413,2.5596,2.6818,2.7067,2.72,2.7234,2.7965,2.8296,2.8329,2.9021,2.9316,2.9316,2.9316,2.9495,2.9822,3.0133,3.0523,3.0944,3.1184,3.1588,3.2056,1.9954,1.9658,1.9302,1.8451,1.8001,1.7723,1.7529,1.7467,1.738,1.7206,1.7389,1.754,1.754,1.7647,1.768,1.7572,1.7243,1.7103,1.7136,1.6964,1.6802,1.6681,1.6393,1.6104,1.5789,1.5398,1.5137,1.4898,1.4993,1.504,1.504,1.5177,1.5215,1.5215,1.5078,1.513,1.5215,1.5078,1.5153,1.5385,1.5385,1.5349,1.5326,1.5796,1.5731,1.5509,1.6281,1.6419,1.6263,1.6378,1.6426,1.6461,1.6628,1.684,1.7032,1.7342,1.7389,1.7418,1.7793,1.7992,1.8121,1.8229,1.8312,1.8398,1.8398,1.8398,1.8398,1.8398,1.8538,1.8819,1.9192,1.9576,1.9936,2.0318,2.0561,2.0804,2.1138,2.1081,0.0,2.1173,2.1207,2.1151,2.0943,2.1081,2.1054,2.0735,0.0,0.0,2.0773,2.1247,2.1631,2.1779,2.2461,2.3406,2.4617,2.5764,2.6617,2.72,2.72,2.72,2.7234,2.7965,2.8296,2.8329,2.9021,2.9316,2.9316,2.9316,2.9611,3.01,3.0296,3.0685,3.1188,3.1533,3.1928,3.2331,2.0022,1.9596,1.917,1.849,1.7882,1.7498,1.7543,1.7467,1.7422,1.7432,1.7636,1.7776,1.7776,1.7809,1.7733,1.7507,1.7487,1.741,1.7411,1.7086,1.6806,1.6589,1.6157,1.5779,1.5505,1.5104,1.4917,1.4946,1.5115,1.5219,1.5281,1.5504,1.5598,1.5589,1.5366,1.5418,1.5647,1.5424,1.5505,1.5807,1.5748,1.5792,1.5908,1.6298,1.6331,1.6211,1.6992,1.7097,1.6805,1.6805,1.6805,1.6805,1.6875,1.7122,1.7485,1.7861,1.7795,1.7717,1.8039,1.8142,1.8196,1.8355,1.8398,1.8398,1.8398,1.8398,1.8398,1.8398,1.8714,1.9122,1.9541,1.9866,2.0214,2.0631,2.0735,2.0908,2.1242,0.0,2.1047,2.1311,2.138,2.1346,2.1311,2.1587,2.1669,2.1311,2.1622,2.1725,0.0,2.2448,2.3093,2.3306,2.3575,2.4549,2.6249,2.69,2.72,2.72,2.72,2.72,2.7234,2.7965,2.8296,2.8329,2.9053,2.9364,2.9364,2.9447,2.9872,3.0476,3.0476,3.0847,3.1465,3.1854,3.2258,3.2661,1.9839,1.9276,1.8708,1.8317,1.7774,1.7488,1.7649,1.7508,1.7443,1.7636,1.7884,1.8035,1.8035,1.8207,1.8194,1.8003,1.7787,1.7583,1.7422,1.6774,1.6522,1.6819,1.602,1.5561,1.5495,1.5104,1.4983,1.5153,1.5181,1.5328,1.5541,1.5579,1.5598,1.5589,1.556,1.573,1.6021,1.5982,1.6269,1.6742,1.6407,1.6584,1.6997,1.6746,1.6826,1.7082,1.7263,1.7273,1.7203,1.7203,1.7203,1.7273,1.7615,1.7756,1.7861,1.8223,1.8307,1.8274,1.8344,1.8344,1.8355,1.8387,1.8398,1.8398,1.8398,1.8398,1.8398,1.8398,1.8714,1.9122,1.9541,1.9866,2.0214,2.0631,2.0943,2.1242,2.1656,0.0,2.207,2.2138,2.2138,2.2035,2.1725,2.176,2.176,2.1691,2.176,2.2173,2.2996,2.3236,2.372,2.466,2.5075,2.5831,2.7034,2.7134,2.72,2.72,2.72,2.72,2.7234,2.7965,2.8296,2.8362,2.9299,2.9724,2.9757,3.01,3.0458,3.0815,3.0815,3.1055,3.1465,3.1854,3.2258,3.2661,1.9487,1.8993,1.8529,1.82,1.7726,1.7453,1.769,1.7626,1.7647,1.7884,1.8132,1.8248,1.8248,1.8334,1.8312,1.811,1.7992,1.7819,1.7583,1.6829,1.6497,1.6693,1.5904,1.5398,1.5169,1.5388,1.5437,1.5369,1.5651,1.5858,1.5966,1.5997,1.6034,1.6034,1.6034,1.6196,1.6421,1.6391,1.6696,1.7137,1.6852,1.6942,1.7308,1.7334,1.7334,1.7344,1.7766,1.7766,1.7615,1.7615,1.7615,1.765,1.7826,1.7896,1.7966,1.8293,1.8398,1.8398,1.8398,1.8398,1.8398,1.8398,1.8573,1.8714,1.8714,1.8889,1.9052,1.9052,1.9343,1.9657,1.9831,2.0179,2.0527,2.0908,2.1116,0.0,0.0,2.2035,2.2104,2.2276,2.231,2.2242,2.207,2.2276,2.231,2.2104,2.2276,2.2516,2.2791,2.3406,2.4122,2.497,2.5562,2.6316,2.72,2.72,2.72,2.72,2.72,2.72,2.7234,2.7965,2.8296,2.8362,2.9168,2.9626,2.9822,2.9985,3.0393,3.0912,3.0912,3.1233,3.1763,3.2166,3.2588,3.2991,1.9118,1.8774,1.8475,1.8209,1.7819,1.7626,1.7818,1.7807,1.7895,1.8142,1.8291,1.8398,1.8398,1.8398,1.8312,1.811,1.8099,1.797,1.7658,1.6973,1.6577,1.6577,1.5982,1.5463,1.516,1.5714,1.5927,1.5741,1.6175,1.6449,1.6517,1.6584,1.6604,1.6604,1.6604,1.6762,1.6987,1.6934,1.7168,1.7545,1.7301,1.7331,1.759,1.7791,1.7756,1.7625,1.8188,1.8223,1.8002,1.8002,1.8002,1.8002,1.8002,1.8002,1.8082,1.8328,1.8398,1.8398,1.8398,1.8398,1.8398,1.8398,1.8714,1.8993,1.8993,1.9297,1.9611,1.9611,1.9866,2.011,2.011,2.0422,2.0804,2.1138,0.0,0.0,0.0,2.2173,2.2138,2.2413,2.2448,2.2448,2.2448,2.2722,2.2756,2.2448,2.2722,2.2825,2.2688,2.3679,2.4631,2.5476,2.6048,2.6617,2.72,2.72,2.72,2.72,2.72,2.7234,2.7334,2.7998,2.8329,2.8461,2.9152,2.9561,2.9805,2.9985,3.0375,3.0912,3.1067,3.1498,3.2074,3.257,3.2955,3.3251,1.8976,1.8681,1.8412,1.8377,1.8207,1.8121,1.8312,1.8196,1.8142,1.8344,1.8387,1.8398,1.8398,1.8398,1.8312,1.811,1.8099,1.7895,1.7465,1.707,1.6883,1.6883,1.6282,1.5941,1.5909,1.5974,1.6176,1.6523,1.6567,1.6789,1.7238,1.7233,1.7218,1.7218,1.7218,1.7464,1.7826,1.7795,1.8016,1.8293,1.7956,1.8026,1.8293,1.8002,1.8082,1.8328,1.8363,1.8363,1.8363,1.8363,1.8363,1.8363,1.8363,1.8363,1.8363,1.8398,1.8398,1.8398,1.8398,1.8398,1.8398,1.8398,1.8714,1.8993,1.8993,1.9297,1.9611,1.9611,1.9866,2.011,2.011,2.0422,2.0804,2.1138,0.0,0.0,2.2242,2.2585,2.2825,2.2859,2.2859,2.2859,2.2859,2.2859,2.2893,2.2859,2.2859,2.3201,2.385,2.4529,2.5577,2.7,2.71,2.7134,2.72,2.72,2.72,2.72,2.72,2.7351,2.7683,2.813,2.8461,2.8807,2.9463,2.9772,2.9855,3.0538,3.0847,3.098,3.1654,3.195,3.2093,3.2881,3.3159,3.3251,1.8963,1.8679,1.8468,1.8749,1.8378,1.8233,1.8716,1.8378,1.8175,1.8366,1.8398,1.8398,1.8398,1.8398,1.8366,1.828,1.8304,1.8164,1.7841,1.7579,1.7088,1.6378,1.6535,1.6418,1.6006,1.6429,1.6672,1.6796,1.7007,1.7231,1.7546,1.7451,1.7409,1.7419,1.7588,1.7756,1.7921,1.7993,1.8165,1.8387,1.8133,1.8165,1.8398,1.8258,1.8293,1.8398,1.8398,1.8398,1.8398,1.8398,1.8398,1.8398,1.8398,1.8398,1.8398,1.8398,1.8398,1.8398,1.8398,1.8573,1.8784,1.8784,1.9238,1.9692,1.9692,2.0005,2.0284,2.0284,2.0388,2.0457,2.0457,2.0596,2.0873,2.1484,0.0,2.2001,2.2585,2.2791,2.2893,2.2893,2.2893,2.2893,2.2893,2.2893,2.2893,2.2893,2.3304,2.3679,2.4,2.5071,2.5947,2.6483,2.6967,2.72,2.72,2.72,2.72,2.72,2.7417,2.7584,2.77,2.8329,2.879,2.9119,2.9364,2.9855,3.0473,3.0555,3.0991,3.1618,3.188,3.2313,3.2774,3.3067,3.3342,3.358,1.8974,1.8679,1.8503,1.8749,1.8478,1.832,1.8751,1.8478,1.8261,1.8377,1.8398,1.8398,1.8398,1.8334,1.8326,1.8326,1.8215,1.8076,1.7884,1.7636,1.7115,1.6342,1.6742,1.6775,1.6321,1.686,1.714,1.7142,1.7461,1.7723,1.7915,1.7834,1.777,1.7781,1.7973,1.8082,1.8072,1.8157,1.8258,1.8387,1.8261,1.8293,1.8398,1.8398,1.8398,1.8398,1.8398,1.8398,1.8398,1.8398,1.8398,1.8398,1.8398,1.8398,1.8398,1.8398,1.8398,1.8433,1.8538,1.8889,1.9122,1.9028,1.9552,2.011,2.011,2.0422,2.07,2.07,2.07,2.0735,2.0839,2.0873,2.1116,2.1829,2.1966,2.2173,2.2791,2.2893,2.2893,2.2893,2.2893,2.2893,2.2893,2.2893,2.2996,2.3236,2.3713,2.4224,2.48,2.5629,2.6234,2.6602,2.6985,2.72,2.72,2.72,2.72,2.72,2.755,2.7783,2.7915,2.8626,2.9152,2.9463,2.9611,3.0068,3.0735,3.0745,3.1175,3.1873,3.2228,3.2701,3.3214,3.3324,3.3544,3.3817,1.9043,1.8679,1.8398,1.8398,1.8398,1.8398,1.8398,1.8398,1.8398,1.8398,1.8398,1.8398,1.8398,1.8229,1.8099,1.8099,1.7863,1.7626,1.7422,1.7141,1.7001,1.7001,1.7001,1.7001,1.7001,1.7282,1.7496,1.7689,1.797,1.8207,1.8398,1.8398,1.8398,1.8398,1.8398,1.8398,1.8398,1.8398,1.8398,1.8398,1.8398,1.8398,1.8398,1.8398,1.8398,1.8398,1.8398,1.8398,1.8398,1.8398,1.8398,1.8398,1.8398,1.8398,1.8398,1.8398,1.8398,1.8503,1.8889,1.9262,1.9425,1.9087,1.9552,2.011,2.011,2.0422,2.07,2.07,2.07,2.0804,2.1138,2.1207,2.1449,2.2173,2.231,2.2448,2.2825,2.2893,2.2893,2.2893,2.2893,2.2893,2.2893,2.2893,2.3201,2.3966,2.402,2.4766,2.6517,2.6301,2.6602,2.7667,2.7384,2.72,2.72,2.72,2.72,2.72,2.755,2.7915,2.8329,2.8988,2.9495,2.9822,3.023,3.0411,3.0479,3.1196,3.1508,3.1616,3.2749,3.3196,3.3251,3.3635,3.3817,3.3817,1.975,1.9483,1.9227,1.9227,1.9028,1.8764,1.8553,1.8465,1.8344,1.8218,1.8301,1.8398,1.8398,1.8229,1.8099,1.8099,1.7863,1.7626,1.7422,1.7141,1.7001,1.7001,1.7173,1.727,1.727,1.7496,1.7733,1.7981,1.8056,1.8207,1.8398,1.8398,1.8398,1.8398,1.8398,1.8398,1.8398,1.8398,1.8398,1.8398,1.8398,1.8398,1.8398,1.8398,1.8398,1.8398,1.8398,1.8398,1.8398,1.8398,1.8398,1.8433,1.8749,1.8819,1.8889,1.9157,1.9028,1.8924,1.9297,1.9506,1.9611,1.9727,2.0144,2.0527,2.0527,2.0596,2.077,2.1012,2.1047,2.1185,2.1553,2.1622,2.176,2.2242,2.231,2.2448,2.2825,2.2893,2.2893,2.2893,2.2893,2.3099,2.3611,2.3679,2.3952,2.4631,2.5172,2.6032,2.7302,2.7051,2.7118,2.7667,2.7617,2.755,2.755,2.7334,2.7334,2.755,2.7948,2.8428,2.9021,2.9463,2.9985,3.057,3.0458,3.0814,3.1509,3.1504,3.1984,3.2713,3.307,3.336,3.3651,3.378,3.3817,3.3817,2.0086,1.9831,1.9541,1.9401,1.9157,1.8938,1.8794,1.8545,1.8449,1.8655,1.8521,1.8468,1.8608,1.8212,1.7949,1.7949,1.7636,1.7378,1.7238,1.7087,1.7001,1.7001,1.7271,1.7368,1.7227,1.7464,1.7701,1.7949,1.8046,1.8207,1.8398,1.8398,1.8398,1.8398,1.8398,1.8398,1.8398,1.8398,1.8398,1.8398,1.8398,1.8398,1.8398,1.8398,1.8398,1.8398,1.8398,1.8398,1.8398,1.8398,1.8503,1.8679,1.8924,1.9122,1.9262,1.9506,1.9401,1.9332,1.9692,1.9796,1.9866,2.0249,2.0527,2.07,2.07,2.07,2.0804,2.1151,2.1207,2.1346,2.1897,2.2001,2.2104,2.2482,2.2551,2.2619,2.2859,2.2893,2.2893,2.2893,2.2893,2.3065,2.3509,2.3543,2.385,2.4529,2.5678,2.6635,2.7468,2.7584,2.7799,2.8114,2.8015,2.7948,2.7948,2.7878,2.7878,2.7948,2.8329,2.879,2.9316,2.9789,3.0361,3.0879,3.0995,3.1389,3.2005,3.2135,3.2588,3.3214,3.336,3.3596,3.3817,3.3817,3.3817,3.3817,2.0144,1.9901,1.9576,1.9168,1.9098,1.9087,1.903,1.8738,1.8773,1.9472,1.8901,1.8563,1.8925,1.8197,1.7678,1.7657,1.727,1.7001,1.7001,1.7001,1.7001,1.7001,1.7227,1.7249,1.7044,1.7303,1.754,1.7755,1.8003,1.8229,1.8398,1.8398,1.8398,1.8398,1.8398,1.8398,1.8398,1.8398,1.8398,1.8398,1.8398,1.8398,1.8398,1.8398,1.8398,1.8398,1.8433,1.8433,1.8468,1.8503,1.8749,1.9052,1.9098,1.9332,1.9645,1.9611,1.9645,1.9715,2.0075,2.011,2.0179,2.0596,2.07,2.07,2.0735,2.0735,2.0839,2.1207,2.1311,2.1518,2.2207,2.2345,2.2482,2.2825,2.2893,2.2893,2.2893,2.2893,2.2893,2.2893,2.2893,2.2928,2.2996,2.3133,2.3509,2.4224,2.5813,2.6902,2.7302,2.7948,2.8428,2.8807,2.8527,2.8411,2.8411,2.8742,2.8726,2.8362,2.8709,2.9055,2.9414,3.01,3.0638,3.1049,3.1705,3.2056,3.2166,3.2884,3.3214,3.3287,3.367,3.3817,3.3817,3.3817,3.3817,3.3817,2.0561,2.0492,2.0318,1.9936,1.9866,1.9692,1.9209,1.9242,1.9333,1.9278,1.9045,1.8811,1.8693,1.8099,1.7647,1.7464,1.7173,1.7001,1.7001,1.7001,1.7001,1.7001,1.7055,1.7152,1.7292,1.7723,1.7959,1.8013,1.825,1.8355,1.8398,1.8398,1.8398,1.8398,1.8398,1.8398,1.8398,1.8398,1.8398,1.8398,1.8398,1.8398,1.8398,1.8398,1.8398,1.8433,1.8749,1.8889,1.8924,1.9227,1.9401,1.9506,1.9796,1.9901,2.004,2.0353,2.0214,2.0075,2.0457,2.0353,2.0179,2.0596,2.07,2.077,2.1047,2.1069,2.1289,2.1932,2.207,2.2207,2.2688,2.2756,2.2791,2.2893,2.2893,2.2893,2.2893,2.2893,2.2893,2.2893,2.2893,2.3133,2.3727,2.4989,2.5981,2.645,2.74,2.8097,2.8428,2.8362,2.8428,2.8807,2.9043,2.9161,2.9161,2.975,2.9581,2.8708,2.9342,2.9821,3.0183,3.0588,3.1157,3.1775,3.1932,3.2368,3.2939,3.3122,3.3379,3.3688,3.378,3.3817,3.3817,3.3817,3.3817,3.3817,2.07,2.07,2.0561,2.0179,2.011,1.9993,1.9692,1.96,1.9634,1.9887,1.953,1.9286,1.93,1.8788,1.8271,1.7861,1.7851,1.7664,1.7228,1.7337,1.7282,1.7012,1.7282,1.75,1.7631,1.8282,1.8467,1.8099,1.8218,1.8395,1.8679,1.8503,1.8503,1.8679,1.8503,1.8398,1.8398,1.8398,1.8398,1.8398,1.8398,1.8398,1.8398,1.8398,1.8398,1.8433,1.8854,1.9087,1.9297,1.9506,1.9715,1.9866,2.004,2.0214,2.0422,2.0631,2.0561,2.0422,2.0631,2.0561,2.0492,2.0839,2.0943,2.0977,2.1151,2.1207,2.1415,2.2138,2.231,2.2413,2.2825,2.2893,2.2893,2.2893,2.2893,2.2893,2.2893,2.2893,2.2893,2.2893,2.3201,2.3782,2.4699,2.5596,2.6282,2.6651,2.7517,2.8081,2.8263,2.876,2.9126,2.9309,2.9681,2.9868,2.9868,3.0412,3.0378,2.9847,3.0237,3.0705,3.1226,3.1391,3.1763,3.2294,3.2496,3.2793,3.3214,3.3397,3.3633,3.3817,3.3817,3.3817,3.3817,3.3817,3.3817,3.3817,2.07,2.07,2.0596,2.0249,2.0179,2.0179,2.0179,1.9924,1.9924,2.0596,2.011,1.9773,2.0016,1.9507,1.8925,1.8441,1.8631,1.8451,1.7608,1.7829,1.7763,1.7228,1.7708,1.8006,1.8117,1.8823,1.8867,1.8192,1.8235,1.8458,1.8889,1.8643,1.8643,1.8889,1.8608,1.8468,1.8398,1.8398,1.8398,1.8398,1.8398,1.8398,1.8398,1.8468,1.8503,1.8573,1.9028,1.9401,1.9715,1.9785,1.997,2.0179,2.0179,2.0422,2.07,2.07,2.07,2.07,2.077,2.0804,2.0873,2.122,2.1311,2.1311,2.138,2.138,2.1587,2.2276,2.2413,2.2516,2.2825,2.2893,2.2893,2.2893,2.2893,2.2893,2.2893,2.2893,2.2989,2.3145,2.3872,2.4755,2.576,2.5997,2.6249,2.6654,2.7594,2.8161,2.8161,2.9328,2.9984,2.9984,3.0309,3.0498,3.0498,3.0943,3.1219,3.1266,3.1368,3.1655,3.2103,3.2171,3.2375,3.2716,3.3065,3.3232,3.3324,3.3635,3.3817,3.3817,3.3817,3.3817,3.3817,3.3886,3.3886,3.3921,2.07,2.07,2.0665,2.0631,2.0631,2.0631,2.0631,2.0561,2.0596,2.07,2.0318,1.9993,1.9861,1.9241,1.8799,1.8731,1.8765,1.8619,1.8206,1.8206,1.8217,1.8117,1.8217,1.8508,1.8993,1.9141,1.897,1.8524,1.8769,1.8751,1.8503,1.8784,1.8749,1.8503,1.8784,1.8749,1.8398,1.8398,1.8398,1.8398,1.8398,1.8398,1.8433,1.8784,1.8924,1.9028,1.9692,2.0214,2.0527,2.0561,2.0596,2.0631,2.0631,2.0665,2.07,2.07,2.07,2.077,2.1047,2.1151,2.1242,2.1622,2.1738,2.1794,2.2104,2.2138,2.2276,2.2722,2.2825,2.2825,2.2893,2.2893,2.2893,2.2893,2.2893,2.2893,2.2893,2.2893,2.3228,2.4157,2.5174,2.6101,2.69,2.7573,2.8228,2.8914,2.963,3.0038,3.0038,3.0225,3.0327,3.0327,3.0703,3.0908,3.0908,3.1617,3.2123,3.2472,3.282,3.2669,3.2103,3.2405,3.2756,3.3104,3.3159,3.3379,3.3709,3.3798,3.3817,3.3817,3.3817,3.3817,3.3851,3.4198,3.4301,3.4232,2.07,2.07,2.07,2.07,2.07,2.07,2.07,2.07,2.07,2.07,2.0561,2.0409,2.029,2.0045,1.9769,1.9529,1.9735,1.9574,1.8846,1.9004,1.8969,1.8597,1.8924,1.9254,1.954,1.9657,1.9519,1.9173,1.9043,1.8924,1.8749,1.8679,1.8679,1.8749,1.8679,1.8573,1.8398,1.8643,1.8608,1.8433,1.8889,1.8959,1.8784,1.9192,1.9332,1.9401,1.9901,2.0353,2.07,2.07,2.07,2.0735,2.0908,2.0977,2.1012,2.1254,2.1323,2.1358,2.1484,2.1518,2.1622,2.2001,2.207,2.2173,2.2551,2.2751,2.2865,2.2899,2.2893,2.2947,2.3086,2.3126,2.318,2.3375,2.3402,2.3402,2.3402,2.3752,2.4526,2.5853,2.6439,2.7087,2.7991,2.8579,2.9095,2.9626,3.0122,3.0395,3.0395,3.06,3.072,3.072,3.1131,3.1355,3.1355,3.1649,3.2123,3.2701,3.2666,3.2784,3.3045,3.3216,3.3376,3.356,3.356,3.3651,3.3817,3.3817,3.3817,3.3817,3.3817,3.3817,3.3782,3.3521,3.3451,3.3381]},{"header":{"parameterUnit":"m.s-1","parameterCategory":1,"la1":30.6,"la2":28.766,"lo1":-90.7593,"lo2":-88.6598,"dy":0.0162,"dx":0.0183,"nx":116,"ny":114,"refTime":"2023-05-21T00:00:00:Z","depth":0,"parameterNumber":3,"parameterNumberName":"V-component_of_WINDS"},"data":[0.0,0.0,0.0,0.0,0.0,0.0,0.0,0.0,0.0,0.0,0.0,0.0,0.0,0.0,0.0,0.0,0.0,0.0,0.0,0.0,0.0,0.0,0.0,0.0,0.0,0.0,0.0,0.0,0.0,0.0,0.0,0.0,0.0,0.0,0.0,0.0,0.0,0.0,0.0,0.0,0.0,0.0,0.0,0.0,0.0,0.0,0.0,0.0,0.0,0.0,0.0,0.0,0.0,0.0,0.0,0.0,0.0,0.0,0.0,0.0,0.0,0.0,0.0,0.0,0.0,0.0,0.0,0.0,0.0,0.0,0.0,0.0,0.0,0.0,0.0,0.0,0.0,0.0,0.0,0.0,0.0,0.0,0.0,0.0,0.0,0.0,0.0,0.0,0.0,0.0,0.0,0.0,0.0,0.0,0.0,0.0,0.0,0.0,0.0,0.0,0.0,0.0,0.0,0.0,0.0,0.0,0.0,0.0,0.0,0.0,0.0,0.0,0.0,0.0,0.0,0.0,0.0,0.0,0.0,0.0,0.0,0.0,0.0,0.0,0.0,0.0,0.0,0.0,0.0,0.0,0.0,0.0,0.0,0.0,0.0,0.0,0.0,0.0,0.0,0.0,0.0,0.0,0.0,0.0,0.0,0.0,0.0,0.0,0.0,0.0,0.0,0.0,0.0,0.0,0.0,0.0,0.0,0.0,0.0,0.0,0.0,0.0,0.0,0.0,0.0,0.0,0.0,0.0,0.0,0.0,0.0,0.0,0.0,0.0,0.0,0.0,0.0,0.0,0.0,0.0,0.0,0.0,0.0,0.0,0.0,0.0,0.0,0.0,0.0,0.0,0.0,0.0,0.0,0.0,0.0,0.0,0.0,0.0,0.0,0.0,0.0,0.0,0.0,0.0,0.0,0.0,0.0,0.0,0.0,0.0,0.0,0.0,0.0,0.0,0.0,0.0,0.0,0.0,0.0,0.0,0.0,0.0,0.0,0.0,0.0,0.0,0.0,0.0,0.0,0.0,0.0,0.0,0.0,0.0,0.0,0.0,0.0,0.0,0.0,0.0,0.0,0.0,0.0,0.0,0.0,0.0,0.0,0.0,0.0,0.0,0.0,0.0,0.0,0.0,0.0,0.0,0.0,0.0,0.0,0.0,0.0,0.0,0.0,0.0,0.0,0.0,0.0,0.0,0.0,0.0,0.0,0.0,0.0,0.0,0.0,0.0,0.0,0.0,0.0,0.0,0.0,0.0,0.0,0.0,0.0,0.0,0.0,0.0,0.0,0.0,0.0,0.0,0.0,0.0,0.0,0.0,0.0,0.0,0.0,0.0,0.0,0.0,0.0,0.0,0.0,0.0,0.0,0.0,0.0,0.0,0.0,0.0,0.0,0.0,0.0,0.0,0.0,0.0,0.0,0.0,0.0,0.0,0.0,0.0,0.0,0.0,0.0,0.0,0.0,0.0,0.0,0.0,0.0,0.0,0.0,0.0,0.0,0.0,0.0,0.0,0.0,0.0,0.0,0.0,0.0,0.0,0.0,0.0,0.0,0.0,0.0,0.0,0.0,0.0,0.0,0.0,0.0,0.0,0.0,0.0,0.0,0.0,0.0,0.0,0.0,0.0,0.0,0.0,0.0,0.0,0.0,0.0,0.0,0.0,0.0,0.0,0.0,0.0,0.0,0.0,0.0,0.0,0.0,0.0,0.0,0.0,0.0,0.0,0.0,0.0,0.0,0.0,0.0,0.0,0.0,0.0,0.0,0.0,0.0,0.0,0.0,0.0,0.0,0.0,0.0,0.0,0.0,0.0,0.0,0.0,0.0,0.0,0.0,0.0,0.0,0.0,0.0,0.0,0.0,0.0,0.0,0.0,0.0,0.0,0.0,0.0,0.0,0.0,0.0,0.0,0.0,0.0,0.0,0.0,0.0,0.0,0.0,0.0,0.0,0.0,0.0,0.0,0.0,0.0,0.0,0.0,0.0,0.0,0.0,0.0,0.0,0.0,0.0,0.0,0.0,0.0,0.0,0.0,0.0,0.0,0.0,0.0,0.0,0.0,0.0,0.0,0.0,0.0,0.0,0.0,0.0,0.0,0.0,0.0,0.0,0.0,0.0,0.0,0.0,0.0,0.0,0.0,0.0,0.0,0.0,0.0,0.0,0.0,0.0,0.0,0.0,0.0,0.0,0.0,0.0,0.0,0.0,0.0,0.0,0.0,0.0,0.0,0.0,0.0,0.0,0.0,0.0,0.0,0.0,0.0,0.0,0.0,0.0,0.0,0.0,0.0,0.0,0.0,0.0,0.0,0.0,0.0,0.0,0.0,0.0,0.0,0.0,0.0,0.0,0.0,0.0,0.0,0.0,0.0,0.0,0.0,0.0,0.0,0.0,0.0,0.0,0.0,0.0,0.0,0.0,0.0,0.0,0.0,0.0,0.0,0.0,0.0,0.0,0.0,0.0,0.0,0.0,0.0,0.0,0.0,0.0,0.0,0.0,0.0,0.0,0.0,0.0,0.0,0.0,0.0,0.0,0.0,0.0,0.0,0.0,0.0,0.0,0.0,0.0,0.0,0.0,0.0,0.0,0.0,0.0,0.0,0.0,0.0,0.0,0.0,0.0,0.0,0.0,0.0,0.0,0.0,0.0,0.0,0.0,0.0,0.0,0.0,0.0,0.0,0.0,0.0,0.0,0.0,0.0,0.0,0.0,0.0,0.0,0.0,0.0,0.0,0.0,0.0,0.0,0.0,0.0,0.0,0.0,0.0,0.0,0.0,0.0,0.0,0.0,0.0,0.0,0.0,0.0,0.0,0.0,0.0,0.0,0.0,0.0,0.0,0.0,0.0,0.0,0.0,0.0,0.0,0.0,0.0,0.0,0.0,0.0,0.0,0.0,0.0,0.0,0.0,0.0,0.0,0.0,0.0,0.0,0.0,0.0,0.0,0.0,0.0,0.0,0.0,0.0,0.0,0.0,0.0,0.0,0.0,0.0,0.0,0.0,0.0,0.0,0.0,0.0,0.0,0.0,0.0,0.0,0.0,0.0,0.0,0.0,0.0,0.0,0.0,0.0,0.0,0.0,0.0,0.0,0.0,0.0,0.0,0.0,0.0,0.0,0.0,0.0,0.0,0.0,0.0,0.0,0.0,0.0,0.0,0.0,0.0,0.0,0.0,0.0,0.0,0.0,0.0,0.0,0.0,0.0,0.0,0.0,0.0,0.0,0.0,0.0,0.0,0.0,0.0,0.0,0.0,0.0,0.0,0.0,0.0,0.0,0.0,0.0,0.0,0.0,0.0,0.0,0.0,0.0,0.0,0.0,0.0,0.0,0.0,0.0,0.0,0.0,0.0,0.0,0.0,0.0,0.0,0.0,0.0,0.0,0.0,0.0,0.0,0.0,0.0,0.0,0.0,0.0,0.0,0.0,0.0,0.0,0.0,0.0,0.0,0.0,0.0,0.0,0.0,0.0,0.0,0.0,0.0,0.0,0.0,0.0,0.0,0.0,0.0,0.0,0.0,0.0,0.0,0.0,0.0,0.0,0.0,0.0,0.0,0.0,0.0,0.0,0.0,0.0,0.0,0.0,0.0,0.0,0.0,0.0,0.0,0.0,0.0,0.0,0.0,0.0,0.0,0.0,0.0,0.0,0.0,0.0,0.0,0.0,0.0,0.0,0.0,0.0,0.0,0.0,0.0,0.0,0.0,0.0,0.0,0.0,0.0,0.0,0.0,0.0,0.0,0.0,0.0,0.0,0.0,0.0,0.0,0.0,0.0,0.0,0.0,0.0,0.0,0.0,0.0,0.0,0.0,0.0,0.0,0.0,0.0,0.0,0.0,0.0,0.0,0.0,0.0,0.0,0.0,0.0,0.0,0.0,0.0,0.0,0.0,0.0,0.0,0.0,0.0,0.0,0.0,0.0,0.0,0.0,0.0,0.0,0.0,0.0,0.0,0.0,0.0,0.0,0.0,0.0,0.0,0.0,0.0,0.0,0.0,0.0,0.0,0.0,0.0,0.0,0.0,0.0,0.0,0.0,0.0,0.0,0.0,0.0,0.0,0.0,0.0,0.0,0.0,0.0,0.0,0.0,0.0,0.0,0.0,0.0,0.0,0.0,0.0,0.0,0.0,0.0,0.0,0.0,0.0,0.0,0.0,0.0,0.0,0.0,0.0,0.0,0.0,0.0,0.0,0.0,0.0,0.0,0.0,0.0,0.0,0.0,0.0,0.0,0.0,0.0,0.0,0.0,0.0,0.0,0.0,0.0,0.0,0.0,0.0,0.0,0.0,0.0,0.0,0.0,0.0,0.0,0.0,0.0,0.0,0.0,0.0,0.0,0.0,0.0,0.0,0.0,0.0,0.0,0.0,0.0,0.0,0.0,0.0,0.0,0.0,0.0,0.0,0.0,0.0,0.0,0.0,0.0,0.0,0.0,0.0,0.0,0.0,0.0,0.0,0.0,0.0,0.0,0.0,0.0,0.0,0.0,0.0,0.0,0.0,0.0,0.0,0.0,0.0,0.0,0.0,0.0,0.0,0.0,0.0,0.0,0.0,0.0,0.0,0.0,0.0,0.0,0.0,0.0,0.0,0.0,0.0,0.0,0.0,0.0,0.0,0.0,0.0,0.0,0.0,0.0,0.0,0.0,0.0,0.0,0.0,0.0,0.0,0.0,0.0,0.0,0.0,0.0,0.0,0.0,0.0,0.0,0.0,0.0,0.0,0.0,0.0,0.0,0.0,0.0,0.0,0.0,0.0,0.0,0.0,0.0,0.0,0.0,0.0,0.0,0.0,0.0,0.0,0.0,0.0,0.0,0.0,0.0,0.0,0.0,0.0,0.0,0.0,0.0,0.0,0.0,0.0,0.0,0.0,0.0,0.0,0.0,0.0,0.0,0.0,0.0,0.0,0.0,0.0,0.0,0.0,0.0,0.0,0.0,0.0,0.0,0.0,0.0,0.0,0.0,0.0,0.0,0.0,0.0,0.0,0.0,0.0,0.0,0.0,0.0,0.0,0.0,0.0,0.0,0.0,0.0,0.0,0.0,0.0,0.0,0.0,0.0,0.0,0.0,0.0,0.0,0.0,0.0,0.0,0.0,0.0,0.0,0.0,0.0,0.0,0.0,0.0,0.0,0.0,0.0,0.0,0.0,0.0,0.0,0.0,0.0,0.0,0.0,0.0,0.0,0.0,0.0,0.0,0.0,0.0,0.0,0.0,0.0,0.0,0.0,0.0,0.0,0.0,0.0,0.0,0.0,0.0,0.0,0.0,0.0,0.0,0.0,0.0,0.0,0.0,0.0,0.0,0.0,0.0,0.0,0.0,0.0,0.0,0.0,0.0,0.0,0.0,0.0,0.0,0.0,0.0,0.0,0.0,0.0,0.0,0.0,0.0,0.0,0.0,0.0,0.0,0.0,0.0,0.0,0.0,0.0,0.0,0.0,0.0,0.0,0.0,0.0,0.0,0.0,0.0,0.0,0.0,0.0,0.0,0.0,0.0,0.0,0.0,0.0,0.0,0.0,0.0,0.0,0.0,0.0,0.0,0.0,0.0,0.0,0.0,0.0,0.0,0.0,0.0,0.0,0.0,0.0,0.0,0.0,0.0,0.0,0.0,0.0,0.0,0.0,0.0,0.0,0.0,0.0,0.0,0.0,0.0,0.0,0.0,0.0,0.0,0.0,0.0,0.0,0.0,0.0,0.0,0.0,0.0,0.0,0.0,0.0,0.0,0.0,0.0,0.0,0.0,0.0,0.0,0.0,0.0,0.0,0.0,0.0,0.0,0.0,0.0,0.0,0.0,0.0,0.0,0.0,0.0,0.0,0.0,0.0,0.0,0.0,0.0,0.0,0.0,0.0,0.0,0.0,0.0,0.0,0.0,0.0,0.0,0.0,0.0,0.0,0.0,0.0,0.0,0.0,0.0,0.0,0.0,0.0,0.0,0.0,0.0,0.0,0.0,0.0,0.0,0.0,0.0,0.0,0.0,0.0,0.0,0.0,0.0,0.0,0.0,0.0,0.0,0.0,0.0,0.0,0.0,0.0,0.0,0.0,0.0,0.0,0.0,0.0,0.0,0.0,0.0,0.0,0.0,0.0,0.0,0.0,0.0,3.6061,0.0,0.0,0.0,0.0,0.0,0.0,0.0,0.0,0.0,0.0,0.0,0.0,0.0,0.0,0.0,0.0,0.0,0.0,0.0,0.0,0.0,0.0,0.0,0.0,0.0,0.0,0.0,0.0,0.0,0.0,0.0,0.0,0.0,0.0,0.0,0.0,0.0,0.0,2.5881,2.5747,2.5891,2.6307,2.6089,2.6098,2.6237,0.0,0.0,0.0,0.0,0.0,0.0,0.0,0.0,0.0,0.0,0.0,0.0,0.0,0.0,0.0,0.0,0.0,0.0,0.0,0.0,0.0,0.0,0.0,0.0,0.0,0.0,0.0,0.0,0.0,0.0,0.0,0.0,0.0,0.0,0.0,0.0,0.0,0.0,0.0,0.0,0.0,0.0,0.0,0.0,0.0,0.0,0.0,0.0,0.0,0.0,0.0,0.0,0.0,0.0,0.0,0.0,0.0,0.0,0.0,0.0,0.0,0.0,0.0,0.0,0.0,0.0,0.0,0.0,0.0,0.0,0.0,3.7165,0.0,0.0,0.0,0.0,0.0,0.0,0.0,0.0,0.0,0.0,0.0,0.0,0.0,0.0,0.0,0.0,0.0,0.0,0.0,0.0,0.0,0.0,0.0,1.8228,1.8881,1.9837,2.0184,2.1119,0.0,0.0,0.0,0.0,0.0,0.0,2.5593,2.5742,2.5927,2.6143,2.5988,2.6386,2.7321,2.8319,2.8308,2.7445,2.7769,0.0,0.0,0.0,0.0,0.0,0.0,0.0,0.0,0.0,0.0,0.0,0.0,0.0,0.0,0.0,0.0,0.0,0.0,0.0,0.0,0.0,0.0,0.0,0.0,0.0,0.0,0.0,0.0,0.0,0.0,0.0,0.0,0.0,0.0,0.0,0.0,0.0,0.0,0.0,0.0,0.0,0.0,0.0,0.0,0.0,0.0,0.0,0.0,0.0,0.0,0.0,0.0,0.0,0.0,0.0,0.0,0.0,0.0,0.0,0.0,0.0,0.0,0.0,4.0512,4.0564,4.0742,4.1328,4.1736,4.1946,4.1149,4.0881,4.0873,0.0,0.0,0.0,0.0,0.0,0.0,0.0,0.0,0.0,0.0,0.0,0.0,0.0,0.0,0.0,0.0,0.0,0.0,0.0,0.0,0.0,0.0,1.9028,2.0026,2.1058,2.1505,2.2472,2.4234,0.0,0.0,0.0,0.0,0.0,2.5673,2.5972,2.6078,2.5936,2.6555,2.7429,2.8578,2.8908,2.9196,2.9491,2.9504,2.9296,2.9011,0.0,0.0,0.0,0.0,0.0,0.0,0.0,0.0,0.0,0.0,0.0,0.0,0.0,0.0,0.0,0.0,0.0,0.0,0.0,0.0,0.0,0.0,0.0,0.0,0.0,0.0,0.0,0.0,0.0,0.0,0.0,0.0,0.0,0.0,0.0,0.0,0.0,0.0,0.0,0.0,0.0,3.5032,3.577,0.0,0.0,0.0,0.0,0.0,0.0,0.0,0.0,0.0,0.0,0.0,0.0,0.0,4.1203,4.1392,4.2073,4.242,4.245,4.308,4.3677,4.4303,4.4437,4.4831,4.552,4.5325,0.0,4.1216,4.1042,0.0,0.0,0.0,0.0,0.0,0.0,0.0,0.0,0.0,0.0,0.0,0.0,0.0,0.0,0.0,0.0,0.0,0.0,0.0,0.0,0.0,2.0051,2.0678,2.1589,2.1979,2.2737,2.4132,2.4403,0.0,0.0,0.0,2.5826,2.5972,2.6132,2.642,2.6857,2.8282,2.9173,2.9588,3.0279,3.0792,3.1088,3.1218,3.052,2.9347,2.9883,0.0,0.0,0.0,0.0,0.0,0.0,0.0,0.0,0.0,0.0,0.0,0.0,0.0,0.0,0.0,0.0,0.0,0.0,0.0,0.0,0.0,0.0,0.0,0.0,0.0,0.0,0.0,0.0,0.0,0.0,0.0,0.0,0.0,0.0,0.0,0.0,0.0,0.0,0.0,3.5552,3.6582,3.6846,3.7105,3.7362,0.0,0.0,0.0,0.0,0.0,0.0,0.0,0.0,0.0,4.2298,4.2637,4.3064,4.3684,4.4369,4.4756,4.4815,4.5542,4.6023,4.6335,4.6335,4.6611,4.7026,4.6958,4.623,4.4946,4.3858,4.3444,4.3428,0.0,0.0,0.0,0.0,0.0,4.4157,0.0,0.0,0.0,0.0,0.0,0.0,0.0,0.0,0.0,0.0,0.0,0.0,2.0697,2.0911,2.1394,2.2272,2.2619,2.3268,2.443,2.4909,2.5327,2.57,2.589,2.6165,2.6585,2.6805,2.7407,2.832,2.9719,3.0496,3.0649,3.1678,3.2262,3.2468,3.294,3.1977,3.0018,3.0655,3.0241,2.914,0.0,0.0,0.0,0.0,0.0,0.0,0.0,0.0,0.0,0.0,0.0,0.0,0.0,0.0,0.0,0.0,0.0,0.0,0.0,0.0,0.0,0.0,0.0,0.0,0.0,0.0,0.0,0.0,0.0,0.0,0.0,0.0,0.0,0.0,0.0,0.0,0.0,3.7319,3.8537,3.8469,3.9137,3.9481,0.0,0.0,0.0,0.0,0.0,0.0,4.3426,4.3847,4.4373,4.4993,4.4946,4.5272,4.6016,4.6461,4.6744,4.6833,4.7304,4.7659,4.7887,4.7679,4.7732,4.8071,4.8022,4.7979,4.7767,4.6385,4.579,4.5702,4.5126,4.5327,4.5922,4.5851,4.5851,4.5955,0.0,0.0,0.0,0.0,0.0,0.0,0.0,0.0,0.0,0.0,0.0,2.0571,2.0869,2.1537,2.2376,2.3501,2.3849,2.4637,2.6097,2.5623,2.5499,2.5963,2.5999,2.6504,2.7617,2.8497,2.9379,3.027,3.024,3.0763,3.1824,3.2724,3.3326,3.3739,3.4725,3.3797,3.1501,3.1599,3.1264,3.0621,3.0198,0.0,0.0,0.0,0.0,0.0,0.0,0.0,0.0,0.0,0.0,0.0,0.0,0.0,0.0,0.0,0.0,0.0,0.0,0.0,0.0,0.0,0.0,0.0,0.0,0.0,0.0,0.0,0.0,0.0,0.0,0.0,0.0,0.0,0.0,0.0,0.0,0.0,0.0,4.1298,4.1455,0.0,0.0,0.0,0.0,4.2721,4.419,4.5077,4.5092,4.6664,4.7608,4.7695,4.7831,4.7905,4.7952,4.7995,4.7995,4.8005,4.7986,4.838,4.9181,4.8358,4.8344,4.9029,4.914,4.8677,4.7794,4.7712,4.7634,4.7545,4.7466,4.7512,4.7662,4.7521,4.7585,4.7739,0.0,0.0,0.0,0.0,0.0,0.0,0.0,0.0,1.9569,2.084,2.0914,2.1333,2.2674,2.2767,2.3073,2.3996,2.4064,2.4542,2.5717,2.5613,2.6058,2.7344,2.7199,2.757,2.8589,2.9481,3.0164,3.0663,3.172,3.2517,3.3073,3.3871,3.442,3.4778,3.5131,3.4877,3.4119,3.4143,3.3484,3.2502,3.2911,3.2531,0.0,0.0,0.0,0.0,0.0,0.0,0.0,0.0,0.0,0.0,0.0,0.0,0.0,0.0,0.0,0.0,0.0,0.0,0.0,0.0,0.0,0.0,0.0,0.0,0.0,0.0,0.0,0.0,0.0,0.0,0.0,0.0,0.0,0.0,0.0,0.0,0.0,4.1622,4.2623,0.0,4.3799,4.3998,4.4506,4.5423,4.6474,4.7067,4.7087,4.7662,4.8018,4.8033,4.8039,4.8049,4.8029,4.8606,4.8837,4.8807,4.9358,4.977,5.0071,4.9749,4.9761,5.0013,5.0013,4.9844,4.9516,4.9432,4.9087,4.8611,4.8556,4.8911,4.9398,4.9358,4.9381,4.9427,0.0,0.0,0.0,0.0,0.0,0.0,0.0,0.0,2.0194,2.1394,2.1677,2.2338,2.381,2.3725,2.4006,2.5103,2.5023,2.5368,2.6503,2.6435,2.6999,2.8324,2.8832,2.9258,2.9622,3.109,3.1799,3.1725,3.315,3.3987,3.419,3.4978,3.5474,3.5744,3.6055,3.6247,3.6356,3.6381,3.5552,3.4241,3.4615,3.4052,3.2956,0.0,0.0,0.0,0.0,0.0,0.0,0.0,0.0,0.0,0.0,0.0,0.0,0.0,0.0,0.0,0.0,0.0,0.0,0.0,0.0,0.0,0.0,0.0,0.0,0.0,0.0,0.0,0.0,0.0,0.0,0.0,0.0,0.0,0.0,0.0,4.3513,4.305,4.4515,4.5602,4.5655,4.6077,4.664,4.7253,4.8034,4.8495,4.8515,4.8779,4.8942,4.8962,4.8933,4.8918,4.8912,4.9466,4.974,4.971,5.0282,5.0579,5.052,5.0537,5.0505,5.0468,5.0468,5.0468,5.0468,5.0429,5.0046,4.9547,4.9492,4.9824,5.0283,5.0283,5.0283,5.0315,0.0,0.0,0.0,0.0,0.0,0.0,0.0,2.0323,2.1121,2.124,2.2422,2.3478,2.4053,2.4359,2.5205,2.6846,2.6767,2.7228,2.8607,2.8211,2.8197,2.8838,3.0738,3.1466,3.0802,3.3332,3.4276,3.3556,3.441,3.4951,3.5171,3.6016,3.6505,3.6671,3.7581,3.7983,3.8036,3.8157,3.7301,3.5846,3.5102,3.4418,3.3783,0.0,0.0,0.0,0.0,0.0,0.0,0.0,0.0,0.0,0.0,0.0,0.0,0.0,0.0,0.0,0.0,0.0,0.0,0.0,0.0,0.0,0.0,0.0,0.0,0.0,0.0,0.0,0.0,0.0,0.0,0.0,0.0,0.0,4.2155,4.3934,4.5558,4.5736,4.7147,4.812,4.812,4.8134,4.8154,4.8174,4.8859,4.9276,4.9326,5.0128,5.0614,5.0707,5.0712,5.0717,5.075,5.0755,5.0778,5.0774,5.0774,5.0712,5.0625,5.0648,5.0565,5.0418,5.0532,5.0554,5.0462,5.057,5.0587,5.0478,5.0344,5.0283,5.0283,5.0283,5.0283,5.0271,0.0,0.0,0.0,0.0,0.0,0.0,1.9961,2.0129,2.0679,2.2153,2.2324,2.2896,2.4562,2.4965,2.5542,2.6691,2.7018,2.7667,2.885,2.8642,2.9003,3.0194,3.1157,3.1977,3.2695,3.3306,3.395,3.465,3.5474,3.5981,3.6218,3.697,3.7461,3.7626,3.7885,3.8129,3.8312,3.8393,3.8318,3.8103,3.7794,3.7286,3.6666,0.0,0.0,0.0,0.0,0.0,0.0,0.0,0.0,0.0,0.0,0.0,0.0,0.0,0.0,0.0,0.0,0.0,0.0,0.0,0.0,0.0,0.0,0.0,0.0,0.0,0.0,0.0,0.0,0.0,0.0,0.0,0.0,4.5869,4.4612,4.6071,4.7337,4.7424,4.7837,4.8355,4.8971,4.9053,4.9293,4.9927,5.0154,5.0303,5.0312,5.0543,5.0664,5.0716,5.079,5.1103,5.1645,5.1692,5.1987,5.253,5.257,5.2213,5.1543,5.1573,5.1241,5.0637,5.0622,5.0929,5.1472,5.1469,5.1776,5.2154,5.0866,5.0356,5.0283,5.0283,5.0283,5.0315,0.0,0.0,0.0,0.0,0.0,0.0,2.0089,2.0236,2.0781,2.2505,2.2616,2.3315,2.5354,2.5832,2.6455,2.7677,2.8222,2.8831,2.9619,2.996,3.0603,3.1722,3.253,3.3323,3.4156,3.4692,3.5198,3.5738,3.6506,3.6988,3.7188,3.8049,3.8351,3.8238,3.8606,3.8745,3.8621,3.8623,3.8811,3.9062,3.9041,3.8616,3.794,3.8128,3.766,3.6882,3.7099,3.7075,3.6887,3.6425,0.0,0.0,0.0,0.0,0.0,0.0,0.0,0.0,0.0,0.0,0.0,0.0,0.0,0.0,0.0,0.0,0.0,0.0,0.0,0.0,0.0,0.0,0.0,0.0,4.6666,4.7596,4.7151,4.7869,4.8511,4.8649,4.8952,4.9356,4.9899,4.9952,5.0163,5.0668,5.0702,5.0866,5.1236,5.1241,5.1395,5.178,5.1851,5.2073,5.2516,5.2565,5.283,5.3238,5.3292,5.3013,5.2433,5.2468,5.2212,0.0,5.2049,5.2487,5.2969,5.3251,5.3442,0.0,0.0,0.0,0.0,0.0,5.1329,5.1347,0.0,0.0,0.0,0.0,0.0,0.0,1.9817,2.0399,2.1135,2.2394,2.306,2.4141,2.6039,2.6678,2.7569,2.9007,2.9707,3.0279,3.07,3.1723,3.2562,3.3169,3.425,3.4969,3.5251,3.6612,3.713,3.6752,3.7524,3.7971,3.8198,3.9173,3.9341,3.8836,3.9656,3.9715,3.9217,3.9157,3.9286,3.953,3.9675,3.9133,3.8265,3.8265,3.7877,3.7359,3.7565,3.764,3.7589,3.7428,0.0,0.0,0.0,0.0,0.0,0.0,0.0,0.0,0.0,0.0,0.0,0.0,0.0,0.0,0.0,0.0,0.0,0.0,0.0,0.0,0.0,0.0,0.0,0.0,4.8313,4.9381,4.9441,4.9355,4.9344,4.9534,5.0168,5.063,5.0707,5.0707,5.0716,5.0683,5.0793,5.1163,5.1973,0.0,0.0,0.0,0.0,5.3271,5.3382,5.3432,5.349,5.36,5.3658,5.3595,5.3348,5.3358,5.3259,5.3064,5.3892,5.4337,5.4485,5.5198,5.5044,5.434,5.3318,5.2883,5.2823,5.2761,5.278,5.2823,0.0,0.0,0.0,0.0,0.0,0.0,1.918,2.0131,2.1148,2.2158,2.3109,2.4079,2.5019,2.6564,2.7726,2.8118,2.9652,3.0878,3.1601,3.2755,3.3503,3.373,3.4596,3.5438,3.6271,3.6593,3.7066,3.7715,3.865,3.9107,3.9218,4.0128,4.0572,4.0626,4.0789,4.0935,4.1081,4.1159,4.1305,4.1453,4.1588,4.0735,3.9325,3.9373,3.9176,3.8889,3.9112,3.9377,3.9584,3.9126,3.9337,3.9744,3.9119,3.8783,0.0,0.0,0.0,0.0,0.0,0.0,0.0,0.0,0.0,0.0,0.0,0.0,0.0,0.0,0.0,0.0,0.0,0.0,0.0,4.7905,4.9216,5.0274,5.0413,5.0363,5.0348,5.0428,5.0592,5.0707,5.0707,5.0717,5.0697,5.0682,5.1351,5.1818,5.1973,5.2702,0.0,5.331,5.3374,5.3735,5.4389,5.4437,5.4732,5.5384,0.0,0.0,5.4342,5.4385,5.3961,5.3238,5.3445,5.3887,5.45,5.4649,5.4929,5.5096,5.351,5.293,5.2958,5.2941,5.2947,5.2958,0.0,0.0,0.0,0.0,0.0,0.0,1.9426,2.0196,2.1289,2.3057,2.3684,2.4439,2.5702,2.6789,2.7607,2.8131,2.9724,3.1106,3.2039,3.3247,3.4071,3.4469,3.5381,3.6341,3.7277,3.7313,3.7579,3.8146,3.903,3.9537,3.9776,4.1115,4.1675,4.1505,4.1988,4.2089,4.1894,4.196,4.2051,4.2153,4.2245,4.1789,4.1033,4.0998,4.0927,4.0866,4.0992,4.1178,4.1286,4.1017,4.1161,4.1368,4.0948,4.0547,4.02,0.0,0.0,0.0,0.0,0.0,0.0,0.0,0.0,0.0,0.0,0.0,0.0,0.0,0.0,4.657,4.7448,0.0,4.8913,4.935,5.0101,5.0609,5.0702,5.0682,5.0678,5.0707,5.0707,5.0707,5.0707,5.1077,5.1332,5.1351,5.215,5.2824,5.3287,5.3753,5.4192,5.4593,5.5107,5.5546,5.5943,5.6395,5.682,5.7217,5.7269,5.7037,5.657,5.6565,5.6059,5.5214,5.564,5.5768,5.5747,5.5715,5.5895,5.6063,5.4774,5.4223,5.4202,5.4194,5.4205,5.4205,0.0,0.0,0.0,0.0,0.0,0.0,0.0,1.9983,2.1207,2.3599,2.4009,2.4778,2.6559,2.7038,2.772,2.8918,3.0299,3.1488,3.2366,3.3632,3.4629,3.515,3.6304,3.7293,3.8025,3.8112,3.8285,3.8607,3.9471,4.0133,4.0598,4.2224,4.2775,4.2452,4.3206,4.3231,4.2699,4.2711,4.2754,4.2826,4.2917,4.2969,4.3008,4.2873,4.266,4.2418,4.2498,4.2606,4.2674,4.2619,4.271,4.2826,4.2724,4.2301,4.1789,4.1564,4.1547,0.0,0.0,0.0,0.0,0.0,0.0,0.0,0.0,4.5546,4.6326,4.7229,4.7529,4.805,4.9475,4.9667,4.9889,5.0596,5.0707,5.0707,5.0707,5.0822,5.0938,5.0938,5.0948,5.0952,5.0952,5.1761,5.2242,5.2242,5.3056,5.385,5.4545,5.4786,5.5186,5.589,5.6749,5.7217,5.7231,5.8071,5.851,5.851,5.8551,5.859,5.851,5.8462,5.8065,5.7402,5.8022,5.7907,5.7242,5.7197,5.7163,5.7069,5.6395,5.6016,5.5887,5.5548,5.5413,5.5433,0.0,0.0,0.0,0.0,0.0,0.0,0.0,0.0,2.0361,2.1971,2.3299,2.4618,2.6039,2.7159,2.8639,3.0737,3.1909,3.2676,3.2902,3.443,3.5382,3.5543,3.7011,3.7962,3.8274,3.842,3.8928,3.9709,4.0837,4.1735,4.25,4.3536,4.4108,4.4202,4.4301,4.4417,4.4499,4.4562,4.4629,4.4694,4.4753,4.4787,4.483,4.4775,4.38,4.2403,4.2547,4.2908,4.3334,4.3438,4.3881,4.4429,4.4416,4.4308,4.3939,4.2835,4.2453,4.2098,4.0908,4.1767,4.332,4.4744,4.5232,4.5707,0.0,4.7611,4.8024,4.8797,4.9653,5.0313,5.0455,5.0524,5.0596,5.0668,5.0707,5.0707,5.0707,5.1318,5.1774,5.1774,5.1819,5.1847,5.1847,5.2627,5.3133,5.3133,5.3909,5.4415,5.453,5.5345,5.5873,5.599,5.6841,5.7327,5.737,5.8191,5.8599,5.8599,5.8608,5.8604,5.8599,5.8595,5.849,5.8322,5.8294,5.8259,5.8159,5.8154,5.812,5.8035,5.8016,5.7884,5.7539,5.6089,5.552,5.5582,0.0,0.0,0.0,0.0,0.0,0.0,0.0,0.0,0.0,2.0917,2.284,2.4414,2.5241,2.7398,2.9417,3.0995,3.1952,3.2704,3.3379,3.4839,3.5692,3.5779,3.7337,3.8295,3.8523,3.8631,3.8921,3.9481,4.0959,4.1917,4.2479,4.3881,4.4661,4.4833,4.4865,4.4889,4.4932,4.5039,4.5074,4.5074,4.517,4.5213,4.5213,4.5213,4.4767,4.4015,4.3627,4.3628,0.0,4.3933,4.4157,4.4483,4.4922,4.4699,4.4228,4.3708,4.3493,4.3526,4.3909,4.426,4.4897,4.6459,4.7294,4.7871,4.847,4.9053,4.9603,4.9939,5.0307,5.0542,5.0658,5.0663,5.0668,5.0702,5.0707,5.0861,5.1318,5.1697,5.2092,5.2666,5.3619,5.3827,5.2859,5.3576,5.4114,5.4114,5.4916,5.5586,5.6082,5.6548,5.7,5.7482,5.8359,5.8833,5.8862,5.9657,6.0035,6.0035,6.0035,6.0035,6.0035,6.0007,5.9679,5.9125,5.855,5.8303,5.8313,5.8313,5.8264,5.8279,5.8268,5.8153,5.7985,5.7347,5.7049,5.6996,0.0,0.0,0.0,0.0,0.0,0.0,0.0,0.0,0.0,0.0,2.2495,2.4323,2.5442,2.8059,3.0155,3.1262,3.1998,3.2827,3.374,3.4943,3.5722,3.5979,3.7343,3.8303,3.8796,3.8889,3.9175,3.97,4.1242,4.219,4.2683,4.4214,4.4998,4.5131,4.5131,4.5136,4.5104,4.5213,4.524,4.5235,4.5304,4.5329,4.5329,4.5314,4.5334,4.526,4.4417,4.4145,4.4116,4.3934,4.4024,4.4274,4.4814,4.481,4.4532,4.4296,4.4246,4.4515,4.5884,4.6263,4.6593,4.791,4.8933,4.9593,4.9536,5.0045,5.0532,5.0553,5.0516,5.0516,5.0663,5.0663,5.0734,5.1005,5.1015,5.1318,5.2159,5.2482,5.2969,5.3899,5.5277,5.5798,5.4834,5.5311,5.5623,5.5409,5.6216,5.6853,5.7293,5.7538,5.7942,5.8626,5.9444,5.9908,5.9938,6.0725,6.1141,6.1159,6.1378,6.1485,6.1485,6.1433,6.1005,6.0278,5.9425,5.9001,5.8973,5.8973,5.8973,5.8967,5.8904,5.8838,5.8782,5.8813,5.8483,5.7997,0.0,0.0,0.0,0.0,0.0,0.0,0.0,0.0,0.0,0.0,0.0,0.0,0.0,2.9267,3.0862,3.1864,3.2583,3.3287,3.4037,3.4739,3.5427,3.6178,3.7059,3.8021,3.9069,3.9402,4.0007,4.094,4.2101,4.3051,4.3781,4.4734,4.5186,4.5192,4.5192,4.5288,4.539,4.538,4.5419,4.5466,4.5419,4.54,4.5395,4.5385,4.5496,4.5457,4.4537,4.4188,4.4082,4.3298,4.3542,4.4219,4.4216,4.4781,4.5302,4.4611,4.4427,4.4665,4.5517,4.6843,4.8198,4.8982,4.981,5.0451,5.0385,5.0495,5.0563,5.0516,5.0589,5.0687,5.0594,5.0668,5.0933,5.1736,5.1846,5.2159,5.3044,5.3903,5.4746,5.5638,5.658,5.7491,0.0,5.8327,5.7969,5.7182,5.7916,5.8094,5.7331,5.811,5.8633,5.8792,5.949,5.9951,6.0107,6.0838,6.1247,6.1297,6.2065,6.2469,6.2469,6.2375,6.2258,6.2083,6.1262,6.085,6.0704,6.0704,6.0704,6.0704,6.0639,6.0571,6.0533,6.0436,5.9368,5.8008,0.0,0.0,0.0,0.0,0.0,0.0,0.0,0.0,0.0,0.0,0.0,0.0,0.0,0.0,0.0,0.0,3.2619,3.3491,3.3767,3.5339,3.6429,3.6726,3.7983,3.897,3.9554,3.9715,4.0008,4.0474,4.148,4.2092,4.2359,4.3837,4.4532,4.4566,4.5146,4.541,4.5457,4.5514,4.5518,4.5485,4.5537,4.5523,4.5462,4.5512,4.5577,4.5488,0.0,4.4029,4.3578,4.3839,4.3754,4.3708,4.4791,4.4983,4.4885,4.5221,4.5731,4.6448,4.779,4.8552,4.914,5.0004,5.0392,5.0548,5.0527,5.0553,5.0573,5.0558,5.0644,5.0721,5.074,5.1216,5.1726,5.1991,5.2464,5.3104,5.3951,5.4848,5.5745,5.6628,5.7984,0.0,0.0,0.0,0.0,5.8205,5.8449,5.8738,5.9086,5.9373,5.982,6.043,6.1244,6.1705,6.1701,6.2491,6.2952,6.2969,6.3231,6.3346,6.3274,6.3216,6.2846,6.2199,6.1924,6.1433,6.0787,6.0787,6.0787,6.0781,6.0716,6.0648,6.0572,6.0506,6.0095,5.9613,0.0,0.0,0.0,0.0,0.0,0.0,0.0,0.0,0.0,0.0,0.0,0.0,0.0,0.0,0.0,0.0,0.0,3.3154,3.3704,3.5037,3.6103,3.672,3.771,3.852,3.9089,3.9474,3.9746,3.9902,4.1119,4.1729,4.1729,4.3141,4.3825,4.3855,4.4701,4.5146,4.5218,4.5526,4.5603,4.5611,4.564,4.5653,4.5657,4.5658,4.5684,0.0,4.5142,4.4424,4.3763,4.3944,4.4073,4.4325,4.5333,4.5769,4.5912,4.6194,4.7047,4.8103,4.9144,4.962,4.9995,5.0504,5.0584,5.0548,5.0521,5.0537,5.0668,5.0975,5.0875,5.0833,5.1198,5.1713,5.218,5.2489,5.321,5.414,5.5316,5.5987,5.6802,5.7993,5.9119,5.992,0.0,0.0,0.0,5.9138,5.9401,5.9693,5.9983,6.0596,6.1233,6.1772,6.2638,6.3064,6.3049,6.358,6.399,6.4244,6.4234,6.4329,6.4536,6.4224,6.3719,6.3086,6.2441,6.1851,6.1278,6.0947,6.0787,6.0781,6.0716,6.0648,6.0572,6.0506,6.0477,6.0415,0.0,0.0,0.0,0.0,0.0,0.0,0.0,0.0,0.0,0.0,0.0,0.0,0.0,0.0,0.0,0.0,0.0,0.0,3.3812,3.3895,3.4608,3.6212,3.6357,3.6852,3.7803,3.8743,3.9283,3.9422,4.0997,4.1798,4.1875,4.2686,4.3033,4.3072,4.3959,4.4428,4.4572,4.5275,4.5637,4.5743,4.574,4.5819,4.5876,4.5845,4.5891,4.5991,4.5866,4.5365,4.4627,4.3797,4.4599,4.5912,4.5915,4.7032,4.8162,4.7422,4.8296,4.9493,4.9471,5.0082,5.0639,5.0537,5.0505,5.0489,5.0467,5.05,5.0823,5.171,5.1342,5.1138,5.2017,5.2163,5.2464,5.331,5.412,5.5239,5.6946,5.727,5.7959,5.9626,0.0,0.0,0.0,0.0,0.0,6.0111,0.0,6.0987,6.0181,6.1803,6.2772,6.2772,6.3554,6.3985,6.4065,6.4023,6.4407,6.5174,6.5082,6.5432,6.6058,6.5324,6.4911,6.4701,6.2943,6.2182,6.2138,6.1195,6.0787,6.0781,6.0722,6.0654,6.0617,6.0513,6.0439,6.0384,0.0,0.0,0.0,0.0,0.0,0.0,0.0,0.0,0.0,0.0,0.0,0.0,0.0,0.0,0.0,0.0,0.0,0.0,3.2468,3.3571,3.4673,3.5807,3.6391,3.7145,3.809,3.8403,3.8881,3.9561,3.9989,4.0487,4.1095,4.1966,4.2361,4.2478,4.3289,4.3683,4.3772,4.3933,4.4357,4.4994,4.4913,4.5309,4.5893,4.5947,4.5978,4.6002,4.6022,4.5857,4.5703,4.6083,4.6855,4.7643,4.767,4.7908,4.83,4.8771,4.9161,4.9647,5.0216,5.048,5.0637,5.0568,5.0558,5.075,5.131,5.15,5.1788,5.2718,5.2321,5.2119,5.2962,5.3082,5.3344,5.4241,5.5581,5.6671,5.7149,5.8346,5.9377,5.9834,6.0406,6.0927,6.1221,6.1182,0.0,0.0,6.2073,6.2116,6.1879,6.2912,6.3506,6.3506,6.4408,6.4862,6.4873,6.5526,6.5914,6.6071,6.5982,6.6017,6.6096,6.5821,6.5346,6.4677,6.3542,6.2698,6.2042,6.1177,6.0787,6.0781,6.0769,6.0722,6.0654,6.0585,6.0513,6.0484,0.0,0.0,0.0,0.0,0.0,0.0,0.0,0.0,0.0,0.0,0.0,0.0,0.0,0.0,0.0,0.0,0.0,0.0,0.0,3.2858,3.3754,3.4632,3.5106,3.5711,3.6622,3.7066,3.7683,3.8551,3.8916,3.9497,4.0331,4.0831,4.1266,4.1709,4.2547,4.2932,4.2978,4.3327,4.3751,0.0,0.0,4.5036,4.5503,4.5935,4.6107,4.6108,4.6087,4.6496,4.7129,4.7555,4.8261,4.8855,4.8839,4.9033,4.9307,4.9461,4.9742,5.012,5.0529,5.0893,5.107,5.0699,5.116,5.1636,5.1375,5.165,5.2088,5.2645,5.2213,5.2073,5.3263,5.3479,5.3854,5.5114,5.6395,5.7472,5.825,5.9272,6.0053,6.0446,6.0854,0.0,6.1264,6.1199,6.1389,0.0,6.194,6.2267,6.3067,6.3575,6.401,6.4419,6.5316,6.5767,6.5767,6.624,6.6432,6.6381,6.6307,6.6185,6.6096,6.6063,6.576,6.523,0.0,6.3145,6.26,6.1349,6.0787,6.0787,6.0787,6.0752,6.0685,6.061,6.0578,6.0473,0.0,0.0,0.0,0.0,0.0,0.0,0.0,0.0,0.0,0.0,0.0,0.0,0.0,0.0,0.0,0.0,0.0,0.0,0.0,0.0,3.2337,3.3192,3.3238,3.3671,3.4687,3.5384,3.6235,3.7215,3.7883,3.8696,3.9542,3.9644,4.0114,4.0871,4.1748,4.2131,4.2174,4.2874,4.3262,4.3522,4.4249,4.4698,4.5,0.0,4.6096,4.6178,4.6111,4.7017,4.8252,4.8357,4.8999,4.9714,4.968,5.0137,5.0562,4.9878,5.0163,5.0697,5.0648,5.1162,5.1567,5.0786,5.178,5.2585,5.1188,5.1547,5.221,5.2279,5.1739,5.1739,5.3379,5.3584,5.4084,5.5934,5.6887,5.796,5.962,5.9992,6.0324,6.1104,6.1182,6.1177,6.1186,6.1221,6.1307,6.1384,6.1259,6.1996,6.379,6.3984,6.4466,6.532,6.6109,6.6497,6.6493,6.6424,6.6385,6.6372,6.6274,6.6155,6.6096,6.6091,6.6008,6.5799,0.0,0.0,6.3174,6.1487,6.0787,6.0787,6.0775,6.074,6.0685,6.0597,6.0533,6.0473,0.0,0.0,0.0,0.0,0.0,0.0,0.0,0.0,0.0,0.0,2.4231,2.5191,0.0,0.0,0.0,0.0,0.0,0.0,0.0,0.0,0.0,3.2279,3.2326,3.3072,3.4673,3.483,3.5697,3.7265,3.7381,3.7888,3.8828,3.9451,3.9842,4.0039,4.0937,4.1328,4.1321,4.1475,4.1944,4.2609,4.2759,4.3696,4.4988,4.5169,0.0,0.0,4.6122,4.6646,4.7504,4.817,4.929,5.0433,5.0466,5.0538,5.0619,5.0515,5.0601,5.0707,5.0697,5.0774,5.0846,5.0632,5.1344,5.2054,5.1851,5.2457,5.3124,5.3317,5.2676,5.2605,5.4258,5.3975,5.4253,5.6613,5.7733,5.8631,5.961,6.0408,6.0982,6.1182,6.115,6.1146,6.1182,6.1159,0.0,0.0,0.0,6.1908,6.371,6.4455,6.5234,6.617,6.6359,6.6437,6.6407,6.6424,6.6355,6.6322,6.6254,6.6155,6.6096,6.6047,6.561,6.4876,6.385,0.0,6.2246,6.1222,6.0787,6.0781,6.0728,6.0703,6.0679,6.0552,6.0493,6.0473,0.0,0.0,0.0,0.0,0.0,0.0,0.0,2.0547,2.1784,2.2531,2.3821,2.5005,2.5787,2.6355,0.0,0.0,0.0,0.0,0.0,0.0,0.0,3.1411,3.1414,3.2238,3.3999,3.3568,3.4436,3.6635,0.0,3.659,3.7921,3.8779,3.9406,3.9877,4.0736,4.1091,4.1093,4.1094,4.1328,4.1758,4.2223,4.2883,4.3742,4.4631,0.0,0.0,4.6124,4.6577,4.7246,4.7656,4.8775,5.0114,5.0568,5.0687,5.0673,5.0702,5.0707,5.0707,5.0707,5.0995,5.1162,5.0744,5.1931,5.29,5.1687,5.2434,5.3188,5.2517,5.2017,5.2094,5.3314,5.356,5.4235,5.6325,5.7687,5.8819,5.9725,6.0558,6.1263,6.1801,6.1804,6.1794,6.1883,6.1804,6.1785,0.0,0.0,6.1899,6.3701,6.4614,6.5467,6.6381,6.6403,6.6403,6.6381,6.6311,6.6273,6.6264,6.6139,6.608,6.6052,6.6019,6.5759,6.5311,6.3972,0.0,6.2681,6.1337,6.0769,6.074,6.074,6.0722,6.0679,6.0572,6.0533,6.0558,0.0,0.0,0.0,0.0,0.0,0.0,0.0,2.0323,2.1624,2.1952,2.3592,2.4847,2.5184,2.5984,2.6828,0.0,0.0,0.0,0.0,0.0,0.0,0.0,0.0,0.0,3.3088,0.0,0.0,3.5457,3.4951,0.0,0.0,0.0,0.0,0.0,4.0383,4.0814,4.0854,4.1054,4.1093,0.0,0.0,4.2221,0.0,0.0,0.0,0.0,0.0,4.6357,4.6732,4.709,4.8006,4.9131,4.9944,5.0331,5.0428,5.0414,5.0409,5.0447,5.062,5.107,5.1424,5.1024,5.2546,5.3582,5.1623,5.2349,5.3069,5.1498,5.1189,5.1456,5.225,5.3067,5.4178,5.5899,5.7352,5.869,5.9818,6.0454,6.1191,6.2334,6.2418,6.2486,6.2726,6.2728,0.0,0.0,0.0,0.0,6.3671,6.4769,6.5661,6.6349,6.6349,6.6345,6.6336,6.621,6.616,6.6149,6.6052,6.6007,6.6007,6.6007,6.5886,6.5637,6.4093,0.0,0.0,6.142,6.0752,6.0697,6.0734,6.0703,6.0642,6.0565,6.0578,6.0526,0.0,0.0,0.0,0.0,0.0,0.0,0.0,2.0345,2.1597,2.1888,2.36,2.4854,2.5013,2.5234,2.5761,0.0,0.0,0.0,0.0,0.0,0.0,0.0,0.0,0.0,0.0,0.0,0.0,3.3621,3.4352,0.0,0.0,0.0,0.0,0.0,0.0,3.9951,4.0072,4.0859,0.0,0.0,0.0,0.0,0.0,0.0,0.0,0.0,0.0,4.5634,4.524,4.6693,4.7301,4.7562,4.8369,4.9079,4.9585,4.9536,4.9518,4.9692,5.0417,5.063,5.0795,5.1539,5.2476,5.3005,5.2163,5.2716,5.3007,5.1525,5.1186,5.1465,5.2243,5.3091,5.4231,5.5858,5.6947,5.8114,5.9627,5.999,6.0666,6.2215,6.2394,6.2704,6.3531,6.3565,6.3212,0.0,0.0,0.0,6.3652,6.5282,6.6216,6.62,6.62,6.6175,6.6123,6.6112,6.608,6.6024,6.6013,6.6007,6.6007,6.6007,6.5554,6.4775,6.3806,0.0,0.0,6.1172,6.0752,6.0691,6.0623,6.0559,6.0493,6.0425,6.0436,6.0436,0.0,0.0,0.0,0.0,0.0,0.0,1.9425,2.0721,2.186,2.2531,2.3884,2.4827,2.4874,2.4987,2.5502,0.0,0.0,0.0,0.0,0.0,0.0,0.0,0.0,0.0,0.0,0.0,3.1957,3.3356,3.3201,0.0,0.0,0.0,0.0,0.0,0.0,3.9087,3.917,4.0033,0.0,0.0,0.0,0.0,0.0,0.0,0.0,0.0,0.0,0.0,4.553,4.5714,4.6401,4.7159,4.6997,4.7484,4.8265,4.9139,4.9407,4.9581,5.0374,5.0516,5.0665,5.1636,5.2492,5.2923,5.2318,5.2813,5.303,5.1504,5.1211,5.1313,5.1612,5.2346,5.3317,5.4508,5.5849,5.7306,5.8952,6.0079,6.1316,6.2983,6.3652,6.4097,0.0,0.0,6.4101,0.0,0.0,0.0,6.445,6.5127,6.5746,6.6185,6.6185,6.6175,6.6155,6.608,6.603,6.6001,6.597,6.594,6.594,6.594,6.5729,6.5325,6.3933,0.0,0.0,6.1322,6.0691,6.0623,6.0591,6.0539,6.0518,6.0491,6.0477,6.0464,0.0,0.0,0.0,0.0,0.0,1.9232,1.9977,2.1193,2.229,2.301,2.4029,2.4723,2.4753,2.4877,2.5244,2.6014,0.0,0.0,0.0,0.0,0.0,0.0,0.0,0.0,0.0,0.0,3.1345,3.2548,3.2251,3.2731,0.0,0.0,3.5957,3.6593,0.0,0.0,0.0,0.0,0.0,0.0,0.0,0.0,0.0,0.0,0.0,0.0,0.0,0.0,0.0,0.0,0.0,4.6726,4.6175,4.6368,4.7112,4.8617,4.9044,4.9307,5.0584,5.0867,5.1091,5.2302,5.2854,5.3036,5.2653,5.2864,5.2789,5.1453,5.1199,5.1199,5.1199,5.1863,5.2687,5.3602,5.5155,5.6756,5.8213,5.9615,6.0984,6.2448,6.3375,6.4082,0.0,6.4609,0.0,0.0,0.0,0.0,0.0,6.5314,6.559,6.6185,6.6155,6.6134,6.6134,6.6036,6.5973,6.5955,6.5903,6.5904,6.5904,6.5904,6.5743,6.5436,0.0,0.0,0.0,6.1324,6.0635,6.0552,6.0552,6.0513,6.0484,6.0464,6.045,6.0436,0.0,0.0,0.0,0.0,0.0,0.0,2.0241,2.1698,2.2845,2.3075,2.3925,2.4534,2.4692,2.4779,2.4897,2.511,0.0,0.0,0.0,0.0,0.0,0.0,0.0,0.0,0.0,0.0,3.075,3.084,3.1662,3.2097,3.2142,3.3903,3.4732,3.4785,0.0,0.0,0.0,0.0,0.0,0.0,0.0,0.0,0.0,0.0,0.0,0.0,0.0,0.0,0.0,0.0,0.0,0.0,0.0,4.5961,4.6235,4.7855,4.821,4.8643,5.1031,5.1683,5.2114,5.3857,5.3732,5.3229,5.3356,5.2821,5.2084,5.134,5.1199,5.1199,5.1199,5.1863,5.2681,5.3578,5.5162,5.6582,5.7402,5.8206,5.9045,5.994,6.0747,6.1879,6.3539,6.37,0.0,0.0,0.0,0.0,0.0,6.6102,6.6128,6.6185,6.6074,6.6007,6.6007,6.5993,6.5972,6.5904,6.5904,6.5904,6.5904,6.5904,6.5436,0.0,0.0,0.0,0.0,6.1075,6.061,6.0486,6.0486,6.0477,6.0408,6.0323,6.0286,6.0279,0.0,0.0,0.0,0.0,0.0,0.0,0.0,2.2104,2.3162,2.3764,2.4255,2.458,2.4621,2.4745,2.4876,2.5009,0.0,0.0,0.0,0.0,0.0,0.0,0.0,0.0,0.0,0.0,3.0759,3.0734,3.1047,3.1511,3.2123,3.2652,3.3562,3.4737,3.5292,3.584,0.0,0.0,0.0,0.0,0.0,0.0,0.0,0.0,0.0,0.0,0.0,0.0,0.0,0.0,0.0,0.0,0.0,0.0,0.0,4.7221,4.7878,4.8523,4.9764,5.0572,5.1313,5.2517,5.2611,5.2485,5.2636,5.2464,5.2084,5.1276,5.1187,5.1193,5.1136,5.1829,5.2868,5.4276,5.5433,5.6667,5.813,5.9508,6.0442,6.0778,6.2027,6.3046,0.0,0.0,0.0,0.0,0.0,0.0,0.0,6.5158,6.5468,6.618,6.6069,6.6024,6.6069,6.6011,6.5996,6.5972,6.5872,6.5826,6.5826,6.5212,0.0,0.0,0.0,0.0,0.0,6.0975,6.0526,6.0518,6.047,6.0436,6.0408,6.0323,6.0286,6.0272,0.0,0.0,0.0,0.0,0.0,0.0,0.0,2.2776,2.364,2.4274,2.4479,2.458,2.4625,2.4749,2.4865,2.498,0.0,0.0,0.0,0.0,0.0,0.0,0.0,0.0,0.0,3.0621,3.074,3.0745,3.0747,3.1048,3.1604,3.1945,3.2661,3.3719,3.4041,3.4706,0.0,0.0,0.0,0.0,0.0,0.0,4.1206,0.0,0.0,0.0,0.0,0.0,0.0,0.0,0.0,0.0,0.0,0.0,0.0,0.0,4.7481,4.8554,4.9606,5.0513,5.1389,5.2278,5.2305,5.2144,5.2259,5.2056,5.1696,5.124,5.1169,5.1244,5.1522,5.2004,5.2912,5.4608,5.5843,5.6943,5.8005,5.9593,6.0626,6.0663,6.2119,0.0,0.0,0.0,0.0,0.0,0.0,0.0,0.0,6.4556,6.4833,6.5157,6.5721,6.5841,6.5572,6.5519,6.5465,6.5459,6.5045,6.4987,6.5301,6.4411,0.0,0.0,0.0,0.0,0.0,6.0749,6.0504,6.0477,6.0436,6.0415,6.0401,6.0286,6.0204,6.0182,0.0,0.0,0.0,0.0,0.0,0.0,0.0,0.0,2.415,2.4468,2.4443,2.4468,2.4617,2.4742,2.4869,2.4976,0.0,0.0,0.0,0.0,0.0,0.0,0.0,0.0,0.0,3.0258,3.0689,3.072,3.0723,3.0748,3.0822,3.1627,3.2032,3.2157,3.2991,3.3926,0.0,0.0,0.0,0.0,0.0,0.0,0.0,0.0,0.0,0.0,0.0,0.0,0.0,0.0,0.0,0.0,0.0,0.0,0.0,0.0,0.0,0.0,0.0,5.12,5.2081,5.2762,5.2541,5.2128,5.2132,5.1576,0.0,5.1181,5.1147,5.1353,5.223,5.2347,5.2895,5.4703,5.6276,5.7327,5.7366,5.876,5.9813,0.0,6.1281,0.0,0.0,0.0,0.0,0.0,0.0,0.0,0.0,6.4052,6.4203,6.3494,6.4974,6.5445,6.4686,6.462,6.4583,6.4571,6.3623,6.3598,6.4366,6.3476,0.0,0.0,0.0,0.0,0.0,6.0473,6.0477,6.0415,6.037,6.0408,6.0387,6.0182,6.0084,6.0061,0.0,0.0,0.0,0.0,0.0,0.0,0.0,0.0,0.0,0.0,2.3674,2.3739,2.3791,2.4384,2.4845,0.0,0.0,0.0,0.0,0.0,0.0,0.0,0.0,0.0,0.0,2.9905,3.0428,2.9804,3.0468,3.077,3.0796,3.1015,3.145,3.2147,3.3028,3.4238,3.5786,0.0,0.0,0.0,0.0,0.0,0.0,0.0,0.0,0.0,4.2283,4.3396,0.0,0.0,0.0,0.0,0.0,0.0,0.0,0.0,4.7076,4.8461,4.8856,0.0,5.1115,5.0639,5.0898,5.1291,0.0,5.123,5.1104,5.1121,5.1095,5.1363,5.2176,5.2295,5.306,5.5357,5.6566,5.7438,5.8037,5.8978,0.0,6.0435,6.1437,6.2076,0.0,0.0,0.0,0.0,0.0,0.0,0.0,6.2465,6.2766,6.3257,6.3579,6.4052,6.4614,6.4501,6.4435,6.4435,6.3517,6.3138,6.3329,6.2442,0.0,0.0,0.0,0.0,6.0518,6.0425,6.0391,6.037,6.0344,6.0316,6.0301,6.0106,6.0007,6.0029,0.0,0.0,0.0,0.0,0.0,0.0,0.0,0.0,0.0,0.0,0.0,0.0,0.0,0.0,0.0,0.0,0.0,0.0,0.0,0.0,0.0,0.0,0.0,0.0,2.8052,2.9391,3.0083,3.0064,3.0543,3.0818,3.0817,3.0799,3.1034,3.1566,3.2827,3.392,3.4927,3.6971,3.8111,0.0,3.9922,0.0,0.0,0.0,0.0,0.0,4.2368,4.3523,0.0,4.488,4.5281,4.5938,0.0,0.0,0.0,0.0,4.7108,4.8314,4.7927,4.9353,5.0885,5.0363,5.0646,5.1023,5.1079,5.1048,5.102,5.1075,5.1062,5.1386,5.2658,5.3151,5.3966,5.5758,5.7246,5.8506,5.9337,5.9513,5.9881,6.0704,6.1512,0.0,0.0,0.0,0.0,0.0,0.0,0.0,0.0,6.1761,6.1991,6.2036,6.2707,6.318,6.3386,6.3257,6.3203,6.3237,6.232,6.2056,6.24,6.1551,6.1148,0.0,0.0,0.0,6.0432,6.0391,6.0394,6.0352,6.0308,6.0264,6.0182,6.006,6.0013,6.0005,0.0,0.0,0.0,0.0,0.0,0.0,0.0,0.0,0.0,0.0,0.0,0.0,0.0,0.0,0.0,0.0,0.0,0.0,0.0,0.0,0.0,0.0,0.0,2.7018,2.7791,2.8831,2.9734,3.0514,3.069,3.0781,3.0801,3.0814,3.0851,3.107,3.2669,3.3487,3.3799,3.6972,3.8386,3.8667,4.0273,0.0,0.0,0.0,0.0,0.0,0.0,0.0,0.0,4.5087,4.5314,4.5838,4.5959,0.0,0.0,0.0,0.0,0.0,4.7695,4.93,5.1088,5.079,5.0852,5.1005,5.1083,5.0998,5.094,5.1043,5.0984,5.1506,5.3414,5.401,5.4721,5.6214,5.8109,5.9707,6.0551,6.0136,6.0007,6.0789,6.1568,0.0,0.0,0.0,0.0,0.0,0.0,0.0,0.0,6.1427,6.1447,6.073,6.1945,6.2354,6.178,6.1765,6.1808,6.1824,6.0914,6.0849,6.1551,6.0811,6.0432,0.0,0.0,0.0,6.0415,6.0401,6.0352,6.0286,6.0264,6.0174,6.0068,6.0029,5.9998,5.9982,0.0,0.0,0.0,0.0,0.0,0.0,0.0,0.0,0.0,0.0,0.0,0.0,0.0,0.0,0.0,0.0,0.0,0.0,0.0,0.0,0.0,0.0,2.6043,2.6656,2.6873,2.85,2.9415,2.9588,3.0358,3.0734,3.0781,3.0781,3.1209,3.1945,3.296,3.3818,3.4635,3.6636,3.7929,3.8671,3.9602,0.0,0.0,0.0,0.0,0.0,0.0,0.0,0.0,4.5586,4.5852,4.5893,4.5919,0.0,0.0,0.0,0.0,0.0,4.9359,5.0541,5.1546,5.0229,5.0403,5.0921,5.1005,5.1005,5.1001,5.102,5.1009,5.1699,5.4021,5.3464,5.3829,5.7394,5.8781,5.9676,0.0,0.0,6.0412,6.0623,0.0,0.0,0.0,0.0,0.0,0.0,0.0,0.0,0.0,6.0757,6.0783,6.0691,6.0879,6.0923,6.0828,6.1378,6.1652,6.1628,6.0818,6.0474,6.0627,6.0474,6.0429,0.0,0.0,6.0415,6.0408,6.0337,6.0301,6.0272,6.0106,6.0045,6.0021,5.9942,5.991,5.9902,0.0,0.0,0.0,0.0,0.0,0.0,0.0,0.0,0.0,0.0,0.0,0.0,0.0,0.0,0.0,0.0,0.0,0.0,0.0,0.0,0.0,2.5069,2.5476,2.6005,2.6532,2.7881,2.883,2.9292,3.0279,3.0751,3.0769,3.0779,3.1015,3.1445,3.281,3.3628,3.4175,3.6871,3.8242,3.8706,0.0,0.0,0.0,0.0,0.0,0.0,0.0,0.0,0.0,0.0,4.5547,4.5854,4.5896,0.0,0.0,0.0,0.0,0.0,4.9703,5.0217,5.0799,5.0906,5.152,5.2115,5.2232,5.2558,5.2622,5.18,5.1973,5.2726,5.4313,5.4352,5.5296,5.8844,5.9054,5.9175,6.0399,6.0214,6.0174,0.0,0.0,0.0,0.0,0.0,0.0,0.0,0.0,0.0,0.0,0.0,6.066,6.0691,6.0585,6.0564,6.0564,6.0808,6.0943,6.0943,6.0519,6.0352,6.0352,6.0352,6.0323,6.0248,0.0,6.0285,6.0241,6.0204,6.0159,6.0114,6.0045,5.999,5.9942,5.991,5.9899,5.9841,0.0,0.0,0.0,0.0,0.0,0.0,0.0,0.0,0.0,0.0,0.0,0.0,0.0,0.0,0.0,0.0,0.0,0.0,0.0,0.0,2.5098,2.4973,2.5028,2.5466,2.637,2.7393,2.8335,2.9164,3.0249,3.0743,3.0687,3.0761,3.0891,3.1169,3.2695,3.3476,3.3867,3.6953,3.8279,3.8423,0.0,0.0,0.0,0.0,0.0,0.0,0.0,0.0,0.0,0.0,0.0,0.0,0.0,0.0,0.0,4.7389,4.8624,4.9974,4.9974,4.9958,5.0309,5.1888,5.2435,5.2714,5.3148,5.372,5.3864,5.2927,5.3165,5.3875,5.4954,5.5927,5.7317,5.9568,5.9292,5.9205,6.0444,6.0147,0.0,0.0,0.0,0.0,0.0,0.0,0.0,0.0,0.0,0.0,0.0,0.0,6.0703,6.0716,6.0597,6.0526,6.0506,6.0477,6.0436,6.0415,6.0352,6.0316,6.0316,6.0294,6.0257,6.0159,6.0204,6.0189,6.0091,6.0076,6.003,6.0013,5.999,5.995,5.9893,5.9893,5.9874,5.9765,0.0,0.0,0.0,0.0,0.0,0.0,0.0,0.0,0.0,0.0,0.0,0.0,0.0,0.0,0.0,0.0,0.0,0.0,0.0,0.0,2.4912,2.4902,2.4832,2.5301,2.6382,2.7262,2.8196,2.9113,3.0135,3.0643,3.0709,3.069,3.1173,3.203,3.2914,3.3771,3.4642,3.6496,3.7297,3.7441,3.9193,0.0,0.0,0.0,0.0,0.0,0.0,0.0,0.0,0.0,0.0,0.0,0.0,0.0,4.8314,4.8314,4.9509,5.0821,5.0821,5.0764,5.1107,5.2709,5.2071,5.1408,5.2805,5.3189,5.3484,5.4098,5.428,5.4808,5.6456,5.8115,5.9056,5.8556,5.9604,6.0558,6.0591,0.0,0.0,0.0,0.0,0.0,0.0,0.0,0.0,0.0,0.0,0.0,0.0,0.0,0.0,6.0775,6.0716,6.0648,6.0572,6.0545,6.0439,6.0415,6.0408,6.0408,6.0401,6.0323,6.0286,6.0279,6.0167,6.0099,6.0091,6.0014,5.9983,6.0005,5.9934,5.9902,5.9893,5.9893,5.9874,5.9748,0.0,0.0,0.0,0.0,0.0,0.0,0.0,0.0,0.0,0.0,0.0,0.0,0.0,0.0,0.0,0.0,0.0,0.0,0.0,0.0,2.4901,2.4715,2.4738,2.4964,2.5384,2.6376,2.7039,2.7358,2.8356,2.9446,3.0498,3.0089,3.0599,3.1876,3.2877,3.374,3.4607,3.6388,3.7468,3.8053,3.9292,4.0041,0.0,0.0,0.0,0.0,0.0,0.0,0.0,0.0,4.5166,4.5803,4.5803,4.7003,4.8392,4.8392,4.9587,5.0898,5.0898,5.0837,5.1175,5.282,5.2772,5.2743,5.4265,5.4994,5.5203,5.4523,5.5209,5.6097,5.678,5.87,5.9911,5.9119,5.9911,6.0629,6.0648,0.0,0.0,0.0,0.0,0.0,0.0,0.0,0.0,0.0,0.0,0.0,0.0,0.0,0.0,6.066,6.0597,6.0552,6.0558,6.0453,6.0443,6.0415,6.0366,6.0337,6.033,6.0212,6.0152,6.0106,6.0068,5.9991,5.9982,5.995,5.9942,5.9934,5.991,5.9853,5.9841,5.9841,5.9633,5.9345,0.0,0.0,0.0,0.0,0.0,0.0,0.0,0.0,0.0,0.0,0.0,0.0,0.0,0.0,0.0,0.0,0.0,0.0,2.4783,2.4854,2.4817,2.4629,2.4596,2.4617,2.4688,2.5453,2.6019,2.6294,2.7507,2.8753,2.9929,2.9914,3.0705,3.214,3.3073,3.3987,3.4886,3.6406,3.7417,3.807,3.9248,4.0038,0.0,0.0,0.0,0.0,0.0,0.0,0.0,0.0,4.5114,4.5803,4.5803,4.6809,4.8043,4.8314,4.9568,5.0935,5.1167,5.1044,5.1248,5.3084,5.3189,5.3313,5.5069,5.6127,5.6516,5.5685,5.6621,5.7612,5.7668,5.9086,6.0047,0.0,6.0086,6.0636,0.0,0.0,0.0,0.0,0.0,0.0,0.0,0.0,0.0,0.0,0.0,0.0,0.0,0.0,0.0,0.0,6.0513,6.048,6.048,6.0412,6.0415,6.0415,6.0359,6.033,6.0323,6.0204,6.0129,6.0014,6.0029,5.9966,5.9893,5.9893,5.9893,5.9893,5.9899,5.9841,5.9774,5.9688,5.94,5.9083,0.0,0.0,0.0,0.0,0.0,0.0,0.0,0.0,0.0,0.0,0.0,0.0,0.0,0.0,0.0,0.0,0.0,0.0,2.4805,2.4672,2.4621,2.4696,2.4445,2.4366,2.4518,2.4641,2.522,2.6288,2.7956,2.8807,2.8925,3.0323,3.1722,3.303,3.3643,3.453,3.5665,3.6588,3.6987,3.7145,3.8913,3.9604,3.9803,0.0,0.0,0.0,0.0,0.0,0.0,0.0,4.5134,4.5803,4.5803,4.6384,4.7273,4.8121,4.9528,5.0957,5.1767,5.142,5.1384,5.3694,5.3195,5.27,5.4919,5.6121,5.7008,5.776,5.8642,5.9326,5.9387,5.94,5.94,5.94,6.0086,0.0,0.0,0.0,0.0,0.0,0.0,0.0,0.0,0.0,0.0,0.0,0.0,0.0,0.0,0.0,0.0,0.0,6.0513,6.048,6.048,6.0412,6.0415,6.0415,6.0415,6.0415,6.0415,6.0323,6.0242,6.0091,6.0045,5.9966,5.9893,5.9893,5.9893,5.9877,5.9816,5.982,5.9748,5.9429,5.9225,5.9035,0.0,0.0,0.0,0.0,0.0,0.0,0.0,0.0,0.0,0.0,0.0,0.0,0.0,0.0,0.0,0.0,0.0,0.0,2.4737,2.4666,2.4522,2.4342,2.4321,2.4316,2.4361,2.5005,2.5564,2.6102,2.636,2.7418,2.9274,2.9738,3.1164,3.3377,3.368,3.4441,3.5528,3.6513,3.7284,3.7965,3.9133,3.9929,4.0503,0.0,0.0,0.0,0.0,0.0,0.0,0.0,0.0,0.0,4.5803,4.6384,4.7273,4.8121,4.9185,5.0205,5.1017,5.1801,5.2622,5.3388,5.4017,5.4637,5.5366,5.5733,5.626,5.7672,5.8296,5.875,5.929,5.9947,0.0,5.9527,0.0,0.0,0.0,0.0,0.0,0.0,0.0,0.0,0.0,0.0,0.0,0.0,0.0,0.0,0.0,0.0,0.0,0.0,6.0457,6.045,6.045,6.0429,6.0415,6.0415,6.0415,6.0415,6.037,6.0234,6.0152,6.0084,5.999,5.9918,5.9885,5.9857,5.9824,5.9816,5.9685,5.9528,5.9309,5.9178,5.8898,5.8498,0.0,0.0,0.0,0.0,0.0,0.0,0.0,0.0,0.0,0.0,2.3616,0.0,0.0,0.0,0.0,0.0,0.0,0.0,0.0,2.4479,2.4333,2.4252,2.4205,2.4205,2.4261,2.5037,2.569,2.6147,2.6673,2.7724,2.93,3.0345,3.1783,3.3559,3.4365,3.5124,3.5933,3.7295,3.8176,3.8756,3.9679,4.0293,4.0778,0.0,0.0,0.0,0.0,0.0,0.0,0.0,0.0,0.0,4.5803,4.6151,4.6879,4.8385,4.9443,5.0422,5.1865,5.2892,5.3661,5.4033,5.4556,5.516,5.5886,5.6028,5.6399,5.7805,5.841,5.8847,5.9296,6.0115,0.0,5.992,0.0,0.0,0.0,0.0,0.0,0.0,0.0,0.0,0.0,0.0,0.0,0.0,0.0,0.0,0.0,0.0,0.0,0.0,6.0415,6.0415,6.0415,6.0415,6.0415,6.0415,6.038,6.0366,6.0366,6.0226,6.0144,6.0038,5.995,5.9869,5.9866,5.9807,5.9757,5.9714,5.9472,5.9299,5.9073,5.8818,5.854,5.8275,0.0,0.0,0.0,0.0,0.0,0.0,0.0,0.0,0.0,0.0,2.2641,2.3391,0.0,0.0,0.0,0.0,0.0,0.0,0.0,0.0,2.4131,2.4243,2.4144,2.414,2.4236,2.5016,2.5757,2.6574,2.8216,2.9126,2.935,3.1747,3.3155,3.3797,3.5363,3.6286,3.6752,3.8518,3.9318,3.9467,4.0359,4.0729,4.0907,4.1717,0.0,0.0,0.0,0.0,0.0,0.0,0.0,0.0,4.5803,4.5842,4.6366,4.8629,4.9958,5.1198,5.3399,5.4117,5.4462,5.5131,5.4915,5.4929,5.6383,5.6816,5.7178,5.8082,5.8813,5.9326,5.9464,6.013,6.0604,0.0,0.0,0.0,0.0,0.0,0.0,0.0,0.0,0.0,0.0,0.0,0.0,0.0,0.0,0.0,0.0,0.0,0.0,6.0415,6.0415,6.0415,6.0415,6.0415,6.0415,0.0,6.0323,6.0279,6.0264,6.0264,6.0182,5.999,5.991,5.9866,5.9765,5.9765,5.9714,5.9572,5.9225,5.9093,5.8996,5.8465,5.8268,5.822,0.0,0.0,0.0,0.0,0.0,0.0,0.0,0.0,0.0,0.0,0.0,0.0,0.0,0.0,0.0,0.0,0.0,0.0,0.0,0.0,2.3949,2.3842,2.4351,2.4632,2.4665,2.605,2.7107,2.7808,2.8374,2.9361,3.0771,3.2046,3.3603,3.5313,3.5818,3.6583,3.7589,3.8743,3.9268,3.9398,4.0275,4.1022,4.172,4.2526,4.3401,0.0,0.0,0.0,0.0,0.0,0.0,0.0,4.5803,4.6268,4.6922,4.748,4.9113,5.0896,5.1404,5.2854,5.4286,5.4551,5.5473,5.6381,5.6645,5.7282,5.8042,5.8815,5.9134,5.9486,6.015,6.0489,6.0629,0.0,0.0,0.0,0.0,0.0,0.0,0.0,0.0,0.0,0.0,0.0,0.0,0.0,0.0,0.0,0.0,0.0,0.0,6.0415,6.0415,6.0415,6.0415,6.0415,6.038,0.0,6.0294,6.022,6.0068,6.0068,5.9974,5.9841,5.9824,5.9765,5.9642,5.9642,5.9589,5.9492,5.9318,5.9063,5.8781,5.8635,5.8378,5.8031,0.0,0.0,0.0,0.0,0.0,0.0,0.0,0.0,0.0,0.0,0.0,0.0,0.0,0.0,0.0,0.0,0.0,0.0,0.0,0.0,2.4002,2.4163,2.4572,2.4985,2.5321,2.6974,2.8174,2.8912,2.9883,3.086,3.1856,3.3333,3.4696,3.5888,3.6873,3.7718,3.8375,3.9333,4.0017,4.0484,4.0927,4.1651,4.2568,4.3379,4.3981,4.4581,4.5434,0.0,0.0,0.0,0.0,0.0,0.0,0.0,4.6699,4.7905,4.8908,4.9932,5.1453,5.274,5.3853,5.4685,5.5886,5.6922,5.7251,5.8017,5.8834,5.9651,5.9537,5.9409,5.9843,6.0323,6.0604,0.0,0.0,0.0,0.0,0.0,0.0,0.0,0.0,0.0,0.0,0.0,0.0,0.0,0.0,0.0,0.0,6.0415,6.0415,6.0415,6.0415,6.0415,6.0415,6.0373,6.033,6.0286,6.0212,6.0052,5.9885,5.9885,5.9861,5.9849,5.9757,5.965,5.9607,5.9563,5.9492,5.9383,5.9139,5.8892,5.8646,5.8286,5.8077,5.7869,0.0,0.0,0.0,0.0,0.0,0.0,0.0,0.0,0.0,0.0,0.0,0.0,0.0,0.0,0.0,0.0,0.0,0.0,0.0,0.0,0.0,2.467,2.4986,2.55,2.6269,2.7873,2.9166,3.0136,3.1853,3.2793,3.3084,3.4816,3.591,3.6459,3.8062,3.8918,3.9176,3.996,4.0858,4.1703,4.1694,4.2321,4.3396,4.4043,4.4406,4.4691,4.5429,4.5746,4.5792,4.5786,0.0,0.0,0.0,0.0,4.6402,4.8312,4.8673,4.9092,5.1841,5.307,5.3809,5.5071,5.6237,5.7186,5.7851,5.8751,5.9631,6.0351,5.9964,5.9505,5.9505,6.0092,0.0,0.0,0.0,0.0,0.0,0.0,0.0,0.0,0.0,0.0,0.0,0.0,0.0,0.0,0.0,0.0,6.0415,6.0415,6.0415,6.0415,6.0401,6.0394,6.0394,6.0308,6.0257,6.025,6.0068,5.9918,5.9807,5.9774,5.9799,5.9811,5.9659,5.9572,5.9554,5.9501,5.942,5.9253,5.8912,5.8719,5.8593,5.7925,5.7751,5.7703,0.0,0.0,0.0,0.0,0.0,0.0,0.0,0.0,0.0,0.0,2.369,2.3718,0.0,0.0,0.0,0.0,0.0,0.0,2.3693,0.0,0.0,2.4622,2.5851,2.6943,2.7861,2.8858,3.0222,3.196,3.3176,3.4314,3.5291,3.5568,3.661,3.8277,3.8641,3.9241,4.0053,4.0228,4.0836,4.169,4.164,4.2644,4.4144,4.4172,4.4712,4.5454,4.5654,4.5723,4.5788,4.5792,4.5817,0.0,0.0,0.0,4.6833,4.6406,4.7717,4.9527,5.0697,5.3058,5.5205,5.535,5.6657,5.7959,5.8004,5.9216,6.0351,6.0405,6.0321,6.0252,6.0252,6.0414,0.0,0.0,0.0,0.0,0.0,0.0,0.0,0.0,0.0,0.0,0.0,0.0,0.0,0.0,6.0415,6.0415,6.0415,6.0415,6.0415,6.0415,6.0344,6.0301,6.0301,6.0189,6.0114,6.0045,5.9958,5.9902,5.9869,5.9702,5.9589,5.9528,5.9538,5.9447,5.9336,5.9447,5.942,5.9272,5.9043,5.8774,5.8508,5.8223,5.7916,5.7595,0.0,0.0,0.0,0.0,0.0,0.0,0.0,0.0,0.0,0.0,0.0,2.3522,0.0,0.0,0.0,2.3538,2.3487,2.3649,2.3999,2.423,2.4773,2.574,2.6911,2.7951,2.8895,3.0304,3.1712,3.3138,3.4194,3.5539,3.7044,3.7158,3.7745,3.8677,3.9216,3.9726,4.0244,4.0735,4.1484,4.2368,4.2838,4.4063,4.5587,4.5097,4.5471,4.6213,0.0,0.0,4.5758,4.5806,4.5793,4.5881,4.6366,0.0,0.0,0.0,4.6919,4.779,4.9995,5.2675,5.4925,5.5286,5.6747,5.8036,5.8049,5.9293,6.0464,6.0432,6.0443,6.0415,6.0415,6.0405,0.0,0.0,0.0,0.0,0.0,0.0,0.0,0.0,0.0,0.0,0.0,0.0,0.0,0.0,6.0415,6.0394,6.0352,6.0394,6.0394,6.0344,6.0308,6.0286,6.0286,6.0129,6.0029,5.995,5.991,5.9861,5.9841,5.9668,5.9616,5.9653,5.9465,5.9401,5.9411,5.9401,5.93,5.9101,5.8825,5.8545,5.829,5.7916,5.7619,5.7461,0.0,0.0,0.0,0.0,0.0,0.0,0.0,0.0,0.0,0.0,0.0,0.0,0.0,0.0,0.0,0.0,2.3565,2.384,2.4577,2.4921,2.5665,2.6979,2.8124,2.9161,3.0154,3.1756,3.3113,3.4187,3.539,3.6744,3.8197,3.8542,3.8967,3.9353,4.0013,4.0395,4.0567,4.1456,4.2317,4.3216,4.4044,4.5331,4.6646,4.6254,4.6498,4.6983,4.6202,0.0,0.0,0.0,0.0,4.6197,4.6625,4.6275,0.0,0.0,0.0,4.7521,4.9889,5.2258,5.4183,5.4951,5.6427,5.7774,5.8023,5.9293,6.0412,6.0484,6.0412,6.0415,6.0415,0.0,0.0,0.0,0.0,0.0,0.0,0.0,0.0,0.0,0.0,0.0,0.0,0.0,0.0,0.0,6.0394,6.0359,6.0294,6.033,6.0285,6.0257,6.0242,6.0227,6.0227,6.0052,5.9958,5.9893,5.9893,5.9844,5.982,5.965,5.9633,5.9705,5.9429,5.9374,5.9429,5.9244,5.9092,5.8915,5.8513,5.8268,5.8031,5.7559,5.7375,5.7326,0.0,0.0,0.0,0.0,0.0,0.0,0.0,0.0,0.0,0.0,0.0,0.0,2.2946,2.3021,2.3399,2.4101,2.4346,2.4715,2.5372,2.6753,2.7634,2.7904,2.949,0.0,3.1953,3.3135,3.4194,3.5235,3.6978,3.8035,3.8395,3.9238,4.0161,4.1086,4.1185,4.1249,4.1393,4.2273,4.3194,4.4087,4.4921,4.5778,4.6694,4.7406,0.0,0.0,0.0,0.0,0.0,0.0,0.0,0.0,0.0,4.5727,4.5881,0.0,0.0,0.0,5.0611,5.191,5.342,5.4167,5.5675,5.7143,5.7832,5.9293,6.0498,6.0436,6.0415,6.0415,6.0415,0.0,0.0,0.0,0.0,0.0,0.0,0.0,0.0,0.0,0.0,0.0,0.0,0.0,0.0,0.0,6.0344,6.0294,6.0286,6.0182,6.0106,6.0099,6.0068,6.0029,6.0029,5.9942,5.9902,5.9893,5.9893,5.9844,5.982,5.965,5.9563,5.9521,5.9374,5.929,5.9281,5.8947,5.8818,5.8757,5.8231,5.795,5.7798,5.7498,5.7313,5.7201,0.0,0.0,0.0,0.0,0.0,0.0,0.0,0.0,0.0,0.0,0.0,0.0,0.0,2.4425,2.4503,2.4767,2.4917,2.5532,2.6715,2.7442,2.8306,2.9434,3.1257,3.2501,3.3058,3.4632,3.5963,3.6973,3.7702,3.844,3.9131,4.0099,4.0754,4.1149,4.1293,4.1667,4.2226,4.3143,4.3754,4.4202,4.5528,4.6609,4.7454,0.0,0.0,0.0,0.0,0.0,0.0,0.0,0.0,0.0,0.0,0.0,0.0,4.7579,4.8861,5.0087,5.0538,5.1549,5.2685,5.342,5.527,5.6963,5.7228,5.893,6.045,6.0384,6.0415,6.0415,6.0415,0.0,0.0,0.0,0.0,0.0,0.0,0.0,0.0,0.0,0.0,0.0,0.0,0.0,0.0,0.0,0.0,6.0264,6.0174,6.0152,6.0068,6.0022,6.0029,5.999,5.9934,5.991,5.9893,5.9893,5.9866,5.9816,5.9774,5.9627,5.9501,5.9503,5.9374,5.929,5.9281,5.9111,5.8875,5.8577,5.822,5.7856,5.751,5.7326,5.7226,5.7248,0.0,0.0,0.0,0.0,0.0,0.0,0.0,0.0,0.0,0.0,0.0,0.0,0.0,0.0,2.5733,2.6305,2.6664,2.7275,2.8332,2.9092,3.0009,3.1153,3.3058,3.4176,3.4447,3.5756,3.6943,3.7973,3.8109,3.8821,4.0063,4.0706,4.1382,4.1987,4.2151,4.2525,4.3102,4.4025,4.4437,4.4641,4.6282,4.7139,4.7531,0.0,0.0,0.0,0.0,0.0,0.0,0.0,0.0,0.0,0.0,0.0,0.0,0.0,4.9311,5.01,5.0606,5.1232,5.1854,5.2594,5.4257,5.5879,5.6665,5.8253,5.9737,6.0307,6.0415,6.0415,6.0415,6.0415,0.0,0.0,0.0,0.0,0.0,0.0,0.0,0.0,0.0,0.0,0.0,0.0,0.0,0.0,0.0,0.0,6.0099,6.0045,6.0029,5.9974,5.9974,5.995,5.9893,5.9893,5.9877,5.9882,5.9816,5.9748,5.9688,5.9565,5.9494,5.942,5.9328,5.9281,5.9234,5.91,5.8791,5.8341,5.8063,5.7703,5.7313,5.7226,5.7163,5.7257,0.0,0.0,0.0,0.0,0.0,0.0,0.0,0.0,0.0,2.5192,0.0,0.0,0.0,0.0,0.0,2.8766,2.9526,3.0013,3.0251,3.1792,3.2813,3.308,3.4849,3.5924,3.615,3.648,3.7151,3.8153,3.8315,3.9304,4.1114,4.1152,4.2095,4.3707,4.3878,4.3934,4.3977,4.4832,4.5273,4.5474,0.0,4.7368,4.6842,0.0,0.0,0.0,4.8606,5.0144,0.0,5.0186,0.0,0.0,0.0,0.0,0.0,0.0,0.0,0.0,0.0,0.0,0.0,5.1794,5.2647,5.3879,5.6101,5.7302,5.8458,6.0022,6.0377,6.0377,6.0377,6.0377,0.0,0.0,0.0,0.0,0.0,0.0,0.0,0.0,0.0,0.0,0.0,0.0,0.0,0.0,6.0159,6.0014,6.0091,5.9982,5.9893,5.9893,5.9893,5.9893,5.9893,5.9893,5.9844,5.9782,5.9774,5.9688,5.9512,5.9512,5.942,5.929,5.9225,5.9177,5.9148,5.8821,5.8449,5.8049,5.7738,5.7461,5.7224,5.7224,5.7172,5.7201,0.0,0.0,0.0,0.0,0.0,0.0,0.0,0.0,2.6275,0.0,0.0,0.0,2.7522,2.8295,2.9041,2.9564,2.9976,3.0726,3.1994,3.2593,3.3502,3.4807,3.6116,3.6938,3.7162,3.8051,3.8663,3.905,3.9796,4.0458,4.1044,4.2307,4.3223,4.3815,4.4465,4.4788,4.487,4.5159,4.5632,4.6329,4.739,4.8023,0.0,0.0,0.0,0.0,0.0,5.1289,5.2011,0.0,5.0086,4.875,0.0,0.0,0.0,0.0,0.0,0.0,5.0846,0.0,0.0,0.0,0.0,0.0,5.4013,5.6169,5.8145,5.8565,5.9602,6.0224,5.9568,5.995,0.0,0.0,0.0,0.0,0.0,0.0,0.0,0.0,0.0,0.0,0.0,0.0,0.0,0.0,6.0174,6.0068,6.0091,5.9982,5.9893,5.9893,5.9893,5.9893,5.9893,5.9857,5.9807,5.982,5.9653,5.9565,5.9512,5.9401,5.9355,5.9281,5.9033,5.8875,5.8821,5.8646,5.8275,5.7856,5.7667,5.7726,5.7916,5.7916,5.8208,5.8601,0.0,0.0,0.0,0.0,0.0,0.0,2.6138,2.7185,2.7907,0.0,0.0,0.0,3.0085,3.0673,3.129,3.1965,3.2183,3.2745,3.3819,3.4331,3.5083,3.6229,3.7278,3.794,3.8176,3.888,3.9491,4.0039,4.0665,4.1378,4.2155,4.3181,4.3897,4.4332,4.4851,4.5327,4.5737,4.5474,4.5832,0.0,4.7472,0.0,0.0,4.992,5.0864,0.0,0.0,0.0,5.2724,5.2351,5.0635,0.0,0.0,0.0,0.0,0.0,0.0,0.0,0.0,0.0,0.0,0.0,0.0,0.0,5.3865,5.5623,5.7385,0.0,5.948,5.9682,5.9179,5.9224,5.93,0.0,0.0,0.0,0.0,0.0,0.0,0.0,0.0,0.0,0.0,6.0167,6.0205,6.0197,6.0099,6.0037,6.0037,5.9942,5.9893,5.9893,5.9893,5.9877,5.9874,5.9816,5.9748,5.9671,5.9565,5.9456,5.9411,5.9355,5.9272,5.9253,5.8905,5.864,5.8428,5.8209,5.8168,5.819,5.8057,5.8304,5.8667,5.8637,5.8637,5.8703,0.0,0.0,0.0,2.5624,2.6628,2.7472,2.756,2.8888,2.9842,0.0,3.0037,3.09,3.2467,3.284,3.3516,0.0,3.5083,3.5266,3.5567,3.6461,3.7136,3.7492,3.8459,3.9091,3.9302,3.9473,4.0051,4.1042,4.1245,4.2165,4.3695,4.3783,4.4279,4.5028,4.5162,4.5687,4.6325,4.5783,0.0,4.6967,4.7674,4.8138,0.0,0.0,5.1195,5.1962,5.1976,5.3004,5.4196,5.3153,5.1436,0.0,0.0,0.0,0.0,0.0,5.0769,0.0,0.0,0.0,0.0,0.0,0.0,0.0,5.4347,5.5142,5.6128,0.0,5.9091,5.8664,5.8581,5.8053,5.783,0.0,0.0,0.0,0.0,0.0,0.0,0.0,0.0,0.0,6.0242,6.0091,6.0007,6.0076,5.999,5.9902,5.9893,5.9893,5.9893,5.9893,5.9893,5.9882,5.9782,5.9774,5.9679,5.9512,5.9465,5.9411,5.929,5.9281,5.9272,5.9167,5.8832,5.8449,5.8071,5.7836,5.813,5.8736,5.8587,5.8878,5.9335,5.9221,5.8689,5.8192,0.0,0.0,2.7018,2.7682,2.8076,2.8506,2.9222,2.9658,3.0107,3.0696,3.2004,3.3222,3.4144,3.4411,3.4703,0.0,3.5247,3.5727,3.6616,3.758,3.8485,3.9347,4.0283,4.0925,4.1168,4.1329,4.1565,4.1877,4.2686,4.3288,4.3641,4.4381,4.4876,4.5129,4.5871,4.5998,4.564,4.6153,0.0,4.871,4.8805,0.0,5.1074,5.2006,5.2867,5.3638,5.3626,5.4306,5.4935,5.3439,5.2669,5.2116,0.0,0.0,0.0,0.0,0.0,0.0,0.0,0.0,0.0,0.0,0.0,0.0,5.149,5.2635,5.3739,0.0,5.5399,5.5987,5.5287,5.5586,5.5796,0.0,0.0,0.0,0.0,0.0,0.0,0.0,0.0,0.0,5.9966,5.9998,6.0021,6.0037,6.0013,5.9966,5.9893,5.9893,5.9893,5.9893,5.9893,5.9882,5.9782,5.9668,5.9581,5.9512,5.9392,5.9346,5.929,5.9253,5.9206,5.9167,5.875,5.8374,5.8133,5.8312,5.839,5.8293,5.8303,5.8623,5.907,5.9042,5.9145,5.9271,0.0,2.8475,2.8481,2.8868,2.9609,3.0266,3.0681,3.1577,3.2336,3.2693,3.3643,3.4773,3.5949,3.6274,3.6747,0.0,0.0,0.0,0.0,0.0,4.005,4.0677,4.1169,4.1571,4.1801,4.2364,4.2697,4.2844,4.3805,4.432,4.432,4.4826,4.5548,4.6372,4.6047,4.6396,4.7202,4.6372,4.7294,4.9222,4.9143,0.0,5.2397,5.3135,5.3722,5.4142,5.46,5.4734,5.4612,5.3807,5.3027,0.0,0.0,5.2138,5.1725,0.0,5.1547,5.1667,0.0,0.0,0.0,5.0707,0.0,0.0,0.0,5.2499,5.3283,5.4031,5.4544,5.4712,5.4236,5.4196,5.4176,5.4153,0.0,0.0,0.0,0.0,0.0,0.0,0.0,0.0,5.9958,5.9958,5.9958,5.9958,5.9958,5.9934,5.9893,5.9893,5.9893,5.9893,5.9882,5.9807,5.9714,5.9589,5.9492,5.9401,5.9318,5.9262,5.9253,5.9206,5.9166,5.9039,5.8513,5.8175,5.795,5.8273,5.8228,5.8035,5.843,5.9177,5.9981,5.9502,5.9434,5.9546,2.9894,2.9756,2.9764,3.0048,3.1197,3.2088,3.2176,3.3543,3.4674,3.4923,3.5521,3.6512,3.8019,3.8355,3.9075,0.0,0.0,0.0,0.0,0.0,0.0,4.1932,4.2069,4.2276,4.2616,4.331,4.3724,4.3868,4.4621,4.508,4.522,4.5314,4.61,4.7404,4.6615,4.7029,4.8339,4.7131,4.7779,4.955,0.0,5.0998,5.2809,5.3765,5.4122,5.4231,5.5097,5.4938,5.4333,5.4154,5.3376,5.2603,5.3628,5.3345,0.0,0.0,0.0,0.0,0.0,0.0,0.0,0.0,0.0,5.1024,0.0,0.0,0.0,5.417,5.3934,5.3463,5.3402,5.2871,0.0,0.0,0.0,0.0,0.0,0.0,0.0,0.0,0.0,0.0,0.0,5.9858,5.9893,5.9893,5.9893,5.9885,5.9869,5.9885,5.9877,5.9844,5.9816,5.9731,5.9581,5.951,5.9429,5.929,5.9272,5.9262,5.9187,5.9139,5.9039,5.8807,5.8319,5.8045,5.7995,5.8311,5.8313,5.8278,5.8908,5.9752,6.0535,5.9873,5.9531,5.9436,3.0429,3.019,3.0652,3.2026,3.2653,3.3178,3.3833,3.4492,3.5437,3.6791,3.8312,3.9601,4.0584,0.0,0.0,0.0,0.0,0.0,4.2015,0.0,0.0,0.0,4.3825,4.4363,4.5147,4.4773,4.4612,4.475,4.4936,4.536,4.607,4.625,4.6406,4.6641,4.8738,4.8247,4.6105,4.9406,5.0631,0.0,5.1884,5.223,0.0,5.3613,5.4178,5.4286,5.511,5.532,5.5142,0.0,5.453,5.474,0.0,5.4482,5.546,0.0,0.0,0.0,0.0,0.0,0.0,0.0,5.0627,0.0,0.0,0.0,5.0829,5.0954,0.0,5.0895,5.0828,0.0,0.0,0.0,0.0,0.0,0.0,0.0,0.0,0.0,0.0,0.0,0.0,5.9485,5.9893,5.9893,5.9893,5.9853,5.9807,5.9882,5.982,5.965,5.9748,5.9705,5.953,5.9521,5.9429,5.929,5.9244,5.9196,5.9177,5.902,5.877,5.8551,5.8253,5.827,5.8527,5.898,5.936,5.968,5.9752,5.94,5.8863,5.9283,5.935,5.9232,3.1956,3.2214,3.2796,3.3513,3.4172,3.4733,3.5069,3.6207,3.7487,3.8721,3.9481,4.0302,0.0,0.0,0.0,0.0,0.0,4.4547,0.0,0.0,0.0,0.0,0.0,0.0,0.0,4.4821,4.4796,4.4968,4.5492,4.5984,4.6379,4.6416,4.7007,4.7995,4.859,4.8657,4.8442,5.016,5.0981,0.0,0.0,0.0,0.0,5.4266,5.4899,5.4938,5.5295,5.5396,5.5365,0.0,5.511,0.0,0.0,0.0,0.0,0.0,0.0,0.0,0.0,0.0,0.0,0.0,0.0,0.0,5.0615,0.0,5.044,0.0,0.0,0.0,0.0,0.0,0.0,0.0,5.1413,0.0,0.0,0.0,0.0,0.0,0.0,0.0,0.0,0.0,0.0,0.0,5.9761,5.9736,5.9782,5.9736,5.9693,5.9607,5.9636,5.9592,5.9512,5.942,5.9374,5.929,5.9234,5.9158,5.909,5.8801,5.8831,5.9043,5.8599,5.87,5.9196,5.9605,5.9495,5.9149,5.9986,6.0028,5.9592,5.9339,5.9463,5.971,3.4273,3.456,3.4931,3.5282,3.6082,3.6765,3.6933,3.8254,3.9494,4.0317,0.0,0.0,4.2228,4.3109,0.0,0.0,4.5927,4.648,0.0,0.0,4.5873,0.0,0.0,0.0,0.0,0.0,4.5294,4.567,4.6295,4.6806,4.7123,4.6891,4.7482,4.8744,4.8591,4.8958,4.9805,5.0897,5.1603,5.2043,5.2456,5.3042,5.3772,5.4727,5.5339,5.5702,5.5453,5.5383,5.5358,5.511,5.5141,0.0,5.5332,0.0,0.0,0.0,0.0,0.0,5.1765,0.0,0.0,0.0,0.0,0.0,0.0,0.0,0.0,0.0,0.0,0.0,0.0,0.0,5.0268,0.0,0.0,5.1707,0.0,0.0,0.0,0.0,0.0,0.0,0.0,0.0,0.0,0.0,0.0,5.9067,5.9336,5.9293,5.9363,5.9499,5.9492,5.9465,5.9438,5.9337,5.9253,5.9253,5.9158,5.9061,5.8972,5.8598,5.8773,5.9297,5.8774,5.8989,5.975,5.9924,5.9629,5.915,6.0169,6.0439,6.0262,5.9648,5.971,6.0107,3.7454,3.6984,3.67,3.752,3.8531,3.9357,0.0,0.0,0.0,0.0,0.0,0.0,0.0,0.0,0.0,0.0,0.0,4.7872,4.7289,0.0,4.7462,0.0,0.0,4.6447,0.0,0.0,0.0,4.7308,4.741,4.7903,4.8707,4.7993,4.7766,4.7985,4.9466,4.9316,4.8229,5.2195,5.3468,5.2913,5.4594,5.5288,5.5256,0.0,5.5224,5.6434,5.5522,0.0,0.0,5.4364,5.458,0.0,0.0,0.0,0.0,0.0,0.0,0.0,0.0,0.0,0.0,5.1637,0.0,0.0,0.0,0.0,5.0283,0.0,0.0,0.0,0.0,0.0,4.9971,0.0,0.0,0.0,0.0,0.0,0.0,0.0,0.0,0.0,0.0,0.0,0.0,0.0,0.0,0.0,5.822,5.8374,5.8707,5.9309,5.9429,5.9429,5.9299,5.9234,5.9196,5.9187,5.901,5.8899,5.8889,5.8481,5.8524,5.892,5.8562,5.9038,6.0046,5.9828,6.0053,6.0523,6.0439,6.0266,6.0123,6.0088,6.0088,6.0107,3.859,3.8933,3.9098,3.9004,3.9368,3.9913,0.0,4.1176,0.0,0.0,0.0,0.0,0.0,4.5862,4.6514,0.0,0.0,4.8337,4.8181,4.7867,0.0,0.0,0.0,4.6882,0.0,0.0,0.0,0.0,4.8036,4.8485,4.8878,4.8573,4.8488,4.8676,4.9748,5.0289,5.0637,5.3009,5.4244,0.0,0.0,5.5734,5.6161,0.0,0.0,5.6507,5.6175,5.604,0.0,5.6328,5.5826,5.523,5.5795,5.5656,5.5174,5.4881,5.4406,0.0,0.0,0.0,5.3471,5.1947,0.0,0.0,0.0,0.0,0.0,0.0,0.0,0.0,0.0,0.0,0.0,0.0,0.0,0.0,0.0,0.0,0.0,0.0,0.0,0.0,0.0,0.0,0.0,0.0,0.0,0.0,0.0,5.8694,5.9101,5.929,5.93,5.9272,5.9234,5.9139,5.909,5.9081,5.897,5.8889,5.8916,5.8987,5.9382,6.0027,5.9776,6.0176,6.0999,6.0522,6.0366,6.0474,6.0411,6.0266,6.0107,6.0107,6.0107,6.0107,4.0003,4.0623,4.0835,4.0085,4.0365,0.0,0.0,0.0,0.0,0.0,4.4435,0.0,4.5537,0.0,4.698,0.0,4.8043,4.8753,4.9121,4.8833,0.0,4.8853,4.8226,0.0,0.0,0.0,0.0,0.0,0.0,4.92,4.9321,4.8979,4.8927,4.9064,4.9587,5.0512,5.1741,5.2984,5.4257,0.0,0.0,5.6161,0.0,0.0,5.6554,5.6958,0.0,5.6861,5.6856,5.7057,5.6411,5.5603,5.6145,5.5824,5.5275,5.5529,5.524,5.4812,5.4798,5.5135,0.0,5.3617,5.3774,0.0,5.1923,0.0,0.0,0.0,0.0,0.0,0.0,0.0,0.0,0.0,0.0,0.0,0.0,5.0025,0.0,0.0,0.0,0.0,0.0,0.0,0.0,0.0,0.0,0.0,0.0,0.0,5.899,5.929,5.9234,5.9187,5.9187,5.9041,5.8972,5.8962,5.8889,5.8977,5.9264,5.9376,5.9913,6.075,6.0507,6.0725,6.1213,6.0793,6.0536,6.0396,6.0333,6.0202,6.0107,6.0107,6.0107,6.0107,4.1722,4.2002,0.0,0.0,4.1649,0.0,0.0,0.0,4.4273,0.0,4.5184,4.5742,4.5919,4.6644,4.7224,4.7408,4.8281,4.9211,5.0097,5.0287,0.0,0.0,4.9867,4.9542,4.952,0.0,0.0,0.0,0.0,4.9991,5.0076,4.9321,4.9044,4.9133,4.9165,5.0013,5.151,5.2355,5.3657,5.5248,5.6191,5.6632,5.6747,5.7619,5.7918,5.7859,5.7713,5.7656,5.7512,5.6679,5.6376,5.6352,5.6315,5.6823,5.7573,5.8377,5.8642,5.8658,5.8699,5.7605,5.6398,5.6402,0.0,0.0,0.0,0.0,5.3923,0.0,0.0,0.0,0.0,0.0,0.0,0.0,0.0,0.0,0.0,0.0,0.0,0.0,0.0,0.0,0.0,0.0,0.0,0.0,0.0,0.0,0.0,0.0,5.8417,5.9281,5.9234,5.9177,5.9177,5.899,5.8889,5.8879,5.8814,5.917,5.9903,5.9626,6.0102,6.1095,6.0756,6.0698,6.0818,6.0655,6.0485,6.0364,6.0171,6.0107,6.0107,6.0107,6.0107,6.0107,4.1987,4.2179,4.2302,0.0,4.3018,4.3648,0.0,0.0,0.0,0.0,4.6445,4.6878,4.7492,4.7845,4.8309,4.9086,4.951,0.0,0.0,0.0,0.0,5.1281,5.1262,5.1271,5.1334,5.1315,0.0,5.0676,0.0,5.0571,5.0012,4.9822,4.979,4.9936,4.9918,5.0876,5.2503,5.2634,5.4,5.6085,5.6458,5.6976,0.0,0.0,5.8762,5.8668,5.8613,5.8502,5.847,5.8848,5.812,5.7225,5.7854,5.7771,5.7422,5.7657,5.7725,5.7733,5.7756,5.7916,5.781,5.6625,5.6565,5.6414,0.0,0.0,0.0,0.0,0.0,0.0,0.0,0.0,0.0,0.0,0.0,0.0,0.0,0.0,0.0,4.9913,0.0,0.0,0.0,0.0,0.0,0.0,0.0,0.0,0.0,0.0,0.0,5.9187,5.9129,5.9032,5.898,5.8838,5.8729,5.8766,5.9329,5.969,5.994,6.0704,6.1202,6.1457,6.1052,6.0917,6.0903,6.0419,6.0218,6.0171,6.0123,6.0107,6.0107,6.0107,6.0107,6.0091,4.2318,4.2761,0.0,4.3935,0.0,0.0,4.4563,4.544,0.0,4.7295,4.8124,0.0,4.9301,4.9439,4.9767,5.037,5.0546,0.0,5.1989,0.0,0.0,5.2306,5.2369,5.2309,5.2051,5.2175,0.0,5.1017,0.0,5.0799,5.0025,5.0025,5.0101,5.023,5.023,5.1214,5.2893,5.3887,5.513,5.6508,5.7315,5.7936,0.0,5.9297,5.9576,5.9466,5.9391,5.9322,5.9249,5.9325,5.8756,5.7998,5.8112,5.8074,5.796,5.796,5.8226,5.8491,5.8491,5.8832,5.8992,5.8121,5.8173,5.8134,5.6799,5.6449,5.6498,0.0,0.0,0.0,0.0,0.0,0.0,0.0,0.0,0.0,0.0,0.0,0.0,0.0,5.1252,0.0,0.0,0.0,0.0,0.0,0.0,0.0,0.0,0.0,0.0,5.8578,5.8845,5.8922,5.8889,5.8787,5.8873,5.9245,5.969,6.0231,6.0852,6.1346,6.1665,6.174,6.1335,6.1007,6.0803,6.0407,6.0171,6.0107,6.0107,6.0107,6.0107,6.0107,6.0107,6.0091,4.2897,4.3681,0.0,0.0,0.0,0.0,0.0,4.6459,0.0,4.8456,0.0,5.0835,5.0855,5.1022,5.1203,5.1361,0.0,5.1991,5.2935,5.2927,5.3008,5.3324,5.3282,5.2994,5.2443,5.2568,0.0,0.0,0.0,5.094,5.0082,5.0127,5.0163,5.0283,5.0436,5.1419,5.3181,5.5293,5.6442,5.691,5.8404,5.9095,5.9297,5.9989,6.0189,6.0068,6.0037,5.9966,5.978,5.9097,5.887,5.8718,5.796,5.8263,5.887,5.887,5.9363,5.9893,5.9893,5.9893,5.9893,5.9893,5.9885,5.9663,5.8816,5.8639,5.8572,5.8391,5.7296,5.6962,0.0,0.0,0.0,0.0,0.0,0.0,0.0,0.0,0.0,0.0,0.0,0.0,0.0,0.0,0.0,0.0,0.0,0.0,0.0,0.0,0.0,5.7997,5.8617,5.8889,5.8869,0.0,5.9207,5.9913,6.0136,6.0881,6.2036,6.185,6.1843,6.1983,6.1494,6.0998,6.0547,6.0427,6.025,6.0107,6.0107,6.0107,6.0107,6.0107,6.0091,6.0024,4.4775,4.5068,0.0,0.0,0.0,4.7292,4.7598,4.9067,5.0208,5.0387,5.0799,5.108,5.1119,5.1157,5.1519,5.228,5.241,0.0,0.0,0.0,0.0,5.3929,5.4107,5.4151,5.4091,5.4259,5.3626,0.0,0.0,0.0,5.0082,5.0145,5.0212,5.0321,5.1041,5.2609,5.4694,5.5144,0.0,5.8433,5.8797,5.9322,5.9946,6.0083,6.0106,6.0037,5.9983,5.9966,5.9893,5.9742,5.9704,5.9666,5.9514,5.9552,5.9704,5.9704,5.978,5.9893,5.9893,5.9893,5.9893,5.9893,5.9874,5.9744,5.947,5.9354,5.9266,5.9148,5.8977,5.8776,5.8486,0.0,0.0,0.0,0.0,0.0,0.0,0.0,0.0,0.0,0.0,5.5399,0.0,0.0,0.0,0.0,0.0,0.0,0.0,0.0,0.0,0.0,5.8835,0.0,0.0,0.0,5.9765,5.9913,6.1288,6.2083,6.2324,6.2487,6.2406,6.2032,6.1336,6.0818,6.0427,6.0234,6.0139,6.0107,6.0107,6.0107,6.0107,6.0107,5.9991,5.983,4.5912,0.0,0.0,0.0,0.0,0.0,0.0,5.1353,0.0,5.1561,5.2067,5.2443,5.2481,5.2539,5.2735,5.319,5.3237,5.3461,5.3879,5.4018,5.4145,5.4242,5.446,0.0,5.4635,5.4799,5.4049,5.2388,0.0,0.0,5.0139,5.0175,5.0491,5.1041,5.2723,5.3849,5.4659,0.0,0.0,5.8897,5.9315,5.9718,6.0091,6.0053,6.0045,6.0013,5.9966,5.9926,5.9893,5.9893,5.9893,5.9893,5.9893,5.9893,5.9893,5.9893,5.9893,5.9893,5.9893,5.9893,5.9893,5.9893,5.9899,5.9832,5.974,5.9607,5.9519,5.9429,5.9401,5.9298,5.8929,5.758,0.0,0.0,0.0,0.0,0.0,0.0,0.0,0.0,0.0,0.0,0.0,0.0,0.0,0.0,0.0,0.0,0.0,0.0,0.0,0.0,0.0,0.0,0.0,0.0,0.0,6.0582,6.1808,6.2498,6.2699,6.251,6.2255,6.1914,6.1058,6.0625,6.047,6.0218,6.0107,6.0107,6.0107,6.0107,6.0107,6.0107,5.9975,5.9797,4.7331,4.7611,0.0,0.0,5.0428,0.0,5.1908,5.2853,5.3239,5.2495,5.3171,5.3706,5.3706,5.3774,5.3784,5.3784,5.3813,5.3898,5.3982,5.4046,5.418,5.44,5.4568,5.4697,5.4791,5.4875,5.4191,0.0,0.0,0.0,0.0,5.0467,5.1184,5.243,0.0,0.0,0.0,0.0,5.876,5.9193,5.9755,6.0037,6.0061,5.9983,5.999,5.9982,5.9918,5.9893,5.9893,5.9893,5.9893,5.9893,5.9893,5.9893,5.9893,5.9893,5.9893,5.9893,5.9893,5.9893,5.9893,5.9893,5.9877,5.9874,5.9774,5.9642,5.9554,5.9465,5.9383,5.9318,5.9429,5.8376,0.0,0.0,0.0,0.0,0.0,0.0,0.0,0.0,0.0,0.0,0.0,0.0,0.0,0.0,0.0,0.0,0.0,0.0,0.0,0.0,0.0,5.8687,5.8687,0.0,6.0508,0.0,6.2179,6.2778,6.299,6.249,6.2041,6.1608,6.0869,6.0501,6.047,6.0218,6.0107,6.0107,6.0107,6.0107,6.0107,6.004,5.9911,5.9732,0.0,0.0,0.0,0.0,0.0,0.0,5.2083,5.2904,5.3481,5.336,5.3612,5.3775,5.3775,5.3784,5.3784,5.3784,5.3916,5.3982,5.3991,5.4046,5.418,5.44,5.4472,5.4595,5.4791,5.4875,5.4465,0.0,0.0,0.0,0.0,0.0,0.0,0.0,0.0,0.0,0.0,5.7841,5.8486,5.9907,5.9904,5.9958,6.0013,5.9934,5.991,5.9902,5.9893,5.9893,5.9893,5.9893,5.9893,5.9893,5.9893,5.9893,5.9893,5.9893,5.9893,5.9893,5.9893,5.9893,5.9893,5.9893,5.9866,5.9774,5.9642,5.9554,5.9456,5.9365,5.9299,5.929,5.9299,5.9196,5.9074,0.0,0.0,0.0,0.0,0.0,0.0,0.0,0.0,0.0,0.0,5.6286,0.0,0.0,0.0,0.0,0.0,0.0,0.0,5.8597,0.0,5.8687,5.8687,6.0285,6.1102,6.1224,6.2736,6.3333,6.3002,6.2818,6.2179,6.125,6.1016,6.0651,6.0155,6.0123,6.0107,6.0107,6.0107,6.0107,6.0091,5.9911,5.9732,5.9569,0.0,0.0,0.0,0.0,0.0,0.0,0.0,5.3326,5.3608,5.3608,5.3735,5.3784,5.3784,5.3784,5.3784,5.3784,5.3926,5.3991,5.3991,5.4128,5.4271,5.44,5.4551,5.4681,5.4791,5.4875,5.4525,0.0,0.0,0.0,0.0,0.0,0.0,0.0,0.0,5.7293,5.8061,5.866,5.9327,5.9942,5.991,5.991,5.9942,5.9958,5.9934,5.9902,5.995,5.9934,5.9969,6.0462,6.031,5.9893,5.9893,5.9893,5.9893,5.9893,5.9853,5.9841,5.9841,5.9761,5.9727,5.9727,5.9693,5.965,5.9616,5.9536,5.9465,5.9429,5.9374,5.929,5.929,5.929,5.9253,0.0,0.0,0.0,0.0,0.0,0.0,0.0,0.0,0.0,0.0,0.0,0.0,0.0,0.0,0.0,0.0,0.0,0.0,5.7992,0.0,5.943,5.943,6.1065,6.1886,6.1819,6.2852,6.3135,6.2755,6.2321,6.1628,6.0727,6.0651,6.0419,6.0107,6.0107,6.0107,6.0107,6.0107,6.0107,6.0091,5.9879,5.9699,5.9588,5.136,0.0,5.1791,0.0,5.2592,5.2947,5.379,5.3997,5.4168,5.4459,5.4527,5.4464,5.4241,5.4427,5.4595,5.4623,5.4699,5.4755,5.4783,5.4948,5.5035,5.5157,5.5316,0.0,5.5509,5.5595,5.5367,5.4857,5.4693,0.0,0.0,0.0,0.0,0.0,5.8023,5.8593,5.8288,5.9417,5.9893,5.9893,5.9893,5.9893,5.9902,5.9958,5.9942,5.9902,5.9958,6.0094,6.0348,6.0917,6.0879,6.0568,6.0348,6.0235,6.0189,5.9937,5.9841,5.9774,5.9748,5.9659,5.9645,5.9917,5.9984,5.9984,5.9949,5.9895,5.9766,5.9513,5.9374,5.929,5.929,5.929,5.9244,5.9111,0.0,0.0,0.0,0.0,0.0,0.0,5.8797,5.8392,5.7181,5.6935,0.0,0.0,0.0,0.0,0.0,0.0,0.0,0.0,0.0,0.0,0.0,6.1696,6.2276,6.2094,6.2813,6.2867,6.2295,6.167,6.1043,6.0458,6.0364,6.0218,6.0107,6.0107,6.0107,6.0107,6.0107,6.004,5.9975,5.9797,5.9652,5.947,5.3162,5.3209,5.3312,5.3461,5.3481,5.3817,5.4721,5.4889,5.5228,5.6262,5.6356,5.6058,5.5286,5.5872,5.6405,5.6547,5.6556,5.6594,5.6658,5.6668,5.6758,0.0,0.0,5.7129,5.7257,5.7345,5.7384,5.7354,0.0,0.0,5.6276,0.0,5.7231,5.8768,5.8798,5.9215,5.9856,5.9893,5.9893,5.9893,5.9893,5.9893,5.9893,5.9893,5.9893,5.9893,5.9893,6.0424,6.1106,6.1106,6.1667,6.2227,6.1372,6.1106,6.0938,6.0043,5.9782,5.9765,5.9633,5.9607,5.9796,6.0672,6.0861,6.0834,6.0725,6.0698,6.0416,5.9496,5.929,5.929,5.929,5.929,5.929,5.929,0.0,0.0,0.0,0.0,0.0,0.0,5.8687,5.8687,5.865,0.0,0.0,0.0,0.0,0.0,0.0,0.0,0.0,5.9839,5.9876,0.0,6.1187,6.2004,6.2197,6.1824,6.2597,6.2541,6.1684,6.0938,6.0609,6.0578,6.025,6.0107,6.0107,6.0107,6.0107,6.0107,6.0107,5.9975,5.9797,5.9652,5.947,5.9285,5.4175,5.4602,5.4927,5.4532,5.4983,5.5518,5.5877,5.5924,5.6057,5.649,5.7004,5.7294,5.7146,5.678,5.6556,0.0,5.6659,5.6733,0.0,5.6842,5.6905,5.699,5.7015,5.7075,5.7167,5.7257,5.7367,5.7384,0.0,0.0,0.0,5.8023,5.8562,5.9555,5.9555,5.969,5.9893,5.9893,5.9893,5.9893,5.9893,5.9926,5.9974,5.9974,5.9974,6.005,6.0627,6.0966,6.1258,6.2425,6.2985,6.3174,6.2871,6.2008,6.1052,6.0724,6.0155,5.9633,5.9545,5.9917,6.0351,6.0623,6.1112,6.1488,6.145,6.1441,6.1356,6.1065,6.098,6.098,6.098,6.0922,6.0845,6.0813,6.0733,0.0,0.0,0.0,0.0,0.0,6.0396,6.0396,0.0,6.0173,0.0,0.0,0.0,0.0,0.0,0.0,0.0,0.0,6.073,0.0,6.1882,6.2489,6.2658,6.2363,6.2352,6.201,6.1408,6.0869,6.0594,6.0578,6.025,6.0107,6.0107,6.0107,6.0107,6.0107,5.9943,5.9862,5.9781,5.9503,5.9352,5.9354,5.5117,5.5486,5.5802,5.5485,5.5939,5.6437,5.6794,5.688,5.7059,5.7501,5.8006,5.8353,5.8484,5.7988,0.0,5.7604,5.766,5.7725,5.7788,5.7788,5.7815,5.7878,5.7948,5.8009,5.8022,0.0,0.0,5.8331,5.8386,5.8675,5.9215,5.9215,5.9449,5.9893,5.9893,5.9893,5.9893,5.9893,5.9893,5.9893,5.9893,5.9926,6.0004,6.0307,6.0421,6.0535,6.1408,6.1868,6.2197,6.325,6.3818,6.4084,6.4084,6.3119,6.1864,6.1164,6.0565,6.0071,5.9945,6.0238,6.0745,6.1383,6.1919,6.2294,6.2294,6.2041,6.1816,6.1816,6.1816,6.1796,6.172,6.1651,6.1562,6.1508,6.1425,6.1331,6.1262,0.0,0.0,0.0,0.0,0.0,0.0,6.1187,0.0,0.0,0.0,0.0,0.0,0.0,0.0,5.96,6.1381,0.0,6.2432,6.2744,6.2717,6.2242,6.1859,6.153,6.1211,6.0793,6.0594,6.0578,6.025,6.0107,6.0107,6.0107,6.0075,5.9975,5.9862,5.9732,5.9584,5.9386,5.9441,5.9685,5.594,5.6019,5.6139,0.0,5.6494,0.0,5.7605,5.7825,5.823,5.9112,5.9271,5.9309,5.9394,5.944,5.9478,5.9478,0.0,0.0,0.0,5.9412,5.9412,5.9412,5.951,5.9607,5.9607,5.9795,5.9885,5.9893,5.9893,5.9893,5.9893,5.9893,5.9893,5.9893,5.9893,5.9893,5.9893,5.9893,5.9931,5.9969,5.9969,6.0007,6.0167,6.0917,6.1182,6.1304,6.2151,6.2947,6.3629,6.3667,6.4235,6.4888,6.488,6.4287,6.3261,6.1576,6.1049,6.0929,6.0727,6.0717,6.1168,6.2707,6.3158,6.3195,6.3195,6.2557,6.1966,6.1966,6.1966,6.1927,6.1809,6.1779,6.1739,6.1674,6.1653,6.1612,6.1449,0.0,0.0,0.0,0.0,0.0,0.0,6.1362,6.1659,0.0,0.0,0.0,0.0,0.0,5.9526,6.1059,6.1852,6.2432,6.278,6.2743,6.2384,6.1642,6.1263,6.1093,6.1078,6.0747,6.0594,6.0578,6.025,6.0107,6.0107,6.0107,5.9975,5.9779,5.9814,5.9584,5.9302,5.9285,5.9667,6.022,0.0,0.0,5.7772,5.7357,5.7906,5.8499,5.8801,5.8839,5.8962,5.9244,5.9853,6.0276,6.0295,6.083,6.1215,6.1215,6.068,6.0378,6.0369,6.0378,6.0387,6.0387,5.9822,5.9536,5.9607,5.9757,5.9857,5.9893,5.9893,5.9893,5.9893,5.9893,5.9893,5.9893,5.9893,5.9893,5.9893,5.9893,6.0235,6.0803,6.0803,6.1261,6.1918,6.2033,6.2126,6.2251,6.3048,6.3439,6.3705,6.4387,6.4728,6.4871,6.477,6.4583,6.4197,6.3114,6.2315,6.1704,6.1544,6.1994,6.2595,6.3008,6.3571,6.4031,6.4031,6.3844,6.3693,6.3693,6.3693,6.3653,6.3542,6.3439,6.3344,6.3286,6.3188,6.3041,6.2929,6.2906,0.0,0.0,6.2872,6.2906,6.3022,6.3033,6.2848,0.0,0.0,0.0,0.0,6.0759,6.0896,6.1863,6.2493,6.2769,6.2654,6.2176,6.1698,6.122,6.1152,6.1093,6.1078,6.0747,6.0594,6.0578,6.025,6.0107,6.0107,6.0107,5.9975,5.9814,5.9701,5.9503,5.9285,5.9115,5.9564,6.0289,5.8363,5.8751,5.9075,5.8855,5.8994,5.9119,5.9177,5.9562,5.9872,5.9882,6.0642,6.1168,6.1168,6.1543,6.1656,6.128,6.0886,6.0642,6.0633,6.0275,6.0077,6.0151,5.9745,5.9581,5.9705,5.9807,5.9874,5.9893,6.0273,6.0462,6.0462,6.0871,6.1022,6.1022,6.0614,6.0681,6.1022,6.0614,6.0917,6.1705,6.1705,6.1995,6.2484,6.2769,6.2947,6.3082,6.3815,6.4062,6.4182,6.4637,6.4826,6.4817,6.4734,6.4679,6.4548,6.4021,6.3239,6.2542,6.2436,6.2745,6.3195,6.3571,6.3994,6.4294,6.4294,6.4294,6.4294,6.4294,6.4254,6.4172,6.4021,6.3905,6.3834,6.3714,6.3635,6.3557,6.3405,6.3465,0.0,6.3394,6.3382,6.3442,6.3511,6.3465,6.3268,6.288,0.0,0.0,6.2085,6.1925,6.1833,6.1823,6.2451,6.2603,6.2095,6.1628,6.1307,6.1093,6.1093,6.1093,6.1078,6.0747,6.0594,6.0578,6.025,6.0107,6.0107,6.0107,5.9962,5.9718,5.9619,5.9419,5.9201,5.9461,6.0047,6.0806,5.9948,6.0088,6.0226,6.0479,5.9887,5.943,5.958,6.0172,6.0632,6.0792,6.1506,6.1994,6.1994,6.2106,6.1844,6.1055,6.0858,6.0717,6.0595,5.9957,5.9589,5.9691,5.9647,5.9668,5.982,5.9882,5.9969,6.0083,6.0765,6.1182,6.1288,6.2037,6.2416,6.2378,6.1629,6.1696,6.2323,6.1574,6.1755,6.2525,6.258,6.2609,6.2781,6.3448,6.3722,6.3833,6.4397,6.4652,6.4689,6.4689,6.4689,6.4689,6.467,6.4605,6.4549,6.4405,6.3896,6.335,6.33,6.327,6.3458,6.4144,6.4294,6.4294,6.4294,6.4294,6.4294,6.4294,6.4203,6.4042,6.3915,6.3856,6.3747,6.3613,6.3579,6.3522,6.337,0.0,6.3477,6.3347,6.3324,6.3336,6.3347,6.3254,6.3267,6.3347,6.3242,6.3206,0.0,6.2953,6.2386,6.1514,6.2122,6.2122,6.1466,6.1226,6.1093,6.1093,6.1093,6.1093,6.1078,6.0747,6.0594,6.0578,6.0234,6.004,6.004,6.0043,5.9832,5.9571,5.9571,5.9336,5.9099,5.9909,6.0668,6.1427,6.0831,6.1135,6.1311,6.1469,6.0856,6.0613,6.1299,6.0933,6.083,6.1506,6.2369,6.2895,6.2895,6.3496,6.3581,6.2782,6.2031,6.1318,6.0632,6.0612,6.0601,6.0519,6.0048,5.9765,5.9782,5.9882,6.0235,6.0917,6.1031,6.1477,6.2189,6.234,6.2416,6.2378,6.2265,6.2222,6.2228,6.2077,6.2487,6.3171,6.3299,6.3697,6.4275,6.4462,6.4481,6.4454,6.4568,6.4606,6.4624,6.4624,6.4624,6.4606,6.4473,6.4434,6.4405,6.4344,6.4239,6.4126,6.4106,6.4106,6.4144,6.4257,6.4294,6.4294,6.4294,6.4294,6.4294,6.4294,6.4203,6.4042,6.3915,6.3856,6.3747,6.3613,6.3511,6.337,6.323,0.0,6.3087,6.3063,6.3063,6.3099,6.3206,6.3194,6.3194,6.3218,6.3194,6.3051,6.2755,6.2667,6.2402,6.191,6.1869,6.16,6.1167,6.1123,6.1093,6.1093,6.1093,6.1093,6.1078,6.0747,6.0594,6.0563,6.0072,5.9862,5.9846,5.9718,5.9536,5.9352,5.9352,5.9183,5.9099,5.9909,6.0668,6.1427,6.1805,6.2122,6.2303,6.2441,6.1439,6.0867,6.1693,6.1468,6.1543,6.2369,6.3233,6.3769,6.3769,6.4069,6.3994,6.3158,6.2745,6.2144,6.1318,6.0556,6.0121,6.0067,5.9877,5.9807,5.9866,5.977,5.9959,6.0379,6.0791,6.1181,6.1597,6.2557,6.2991,6.2991,6.2991,6.3192,6.3497,6.2536,6.2859,6.3955,6.3586,6.3926,6.4596,6.4549,6.4549,6.4587,6.4472,6.4472,6.4473,6.4473,6.4473,6.4463,6.4415,6.4395,6.4376,6.4324,6.4294,6.4294,6.4294,6.4294,6.4294,6.4294,6.4244,6.4203,6.4203,6.4152,6.4063,6.4063,6.4016,6.3921,6.3867,6.3758,6.3647,6.3522,6.3454,0.0,0.0,6.3099,6.3075,6.3014,6.3002,6.3026,6.3087,6.3014,6.3002,6.3075,6.3014,6.2929,6.283,6.2603,6.2331,6.1996,6.1712,6.1437,6.1093,6.1093,6.1093,6.1093,6.1093,6.1093,6.1078,6.0747,6.0594,6.0563,6.0135,5.9911,5.9814,5.9732,5.9569,5.9302,5.9302,5.9442,5.9737,6.0496,6.1289,6.2048,6.2778,6.3127,6.3256,6.3373,6.2144,6.1468,6.2266,6.2229,6.2407,6.327,6.3919,6.4294,6.4294,6.4294,6.3994,6.3158,6.312,6.267,6.1581,6.0435,5.9775,5.9775,5.9775,5.9791,5.9828,5.9685,5.983,6.0324,6.0896,6.1389,6.1775,6.3131,6.3772,6.3772,6.3772,6.4094,6.452,6.32,6.338,6.4492,6.387,6.3983,6.452,6.4424,6.4434,6.451,6.4354,6.4344,6.4366,6.4366,6.4366,6.4366,6.4366,6.4366,6.4384,6.4314,6.4294,6.4294,6.4294,6.4294,6.4294,6.4294,6.4203,6.4121,6.4121,6.399,6.3894,6.3894,6.3856,6.378,6.378,6.368,6.3557,6.3405,0.0,0.0,0.0,6.3051,6.3063,6.2966,6.2953,6.2953,6.2953,6.2855,6.2842,6.2953,6.2855,6.2818,6.2867,6.25,6.2132,6.179,6.1551,6.1307,6.1093,6.1093,6.1093,6.1093,6.1093,6.1078,6.1034,6.0732,6.0578,6.0516,6.0186,5.9943,5.9779,5.9732,5.9535,5.9302,5.9441,5.9788,6.0323,6.1254,6.1979,6.2618,6.3678,6.4091,6.4209,6.4219,6.3496,6.3195,6.3994,6.3458,6.327,6.4106,6.4257,6.4294,6.4294,6.4294,6.3994,6.3158,6.312,6.2407,6.0783,6.0651,6.0622,6.0622,5.9978,5.9624,5.9633,5.9616,6.037,6.1935,6.1964,6.2794,6.4332,6.4455,6.4539,6.4539,6.4539,6.4473,6.4415,6.4302,6.4281,6.4324,6.4338,6.4318,6.4324,6.4366,6.4384,6.4314,6.4304,6.4304,6.4304,6.4304,6.4304,6.4304,6.4304,6.4304,6.4304,6.4294,6.4294,6.4294,6.4294,6.4294,6.4294,6.4294,6.4203,6.4121,6.4121,6.399,6.3894,6.3894,6.3856,6.378,6.378,6.368,6.3557,6.3405,0.0,0.0,6.3026,6.2904,6.2818,6.2805,6.2805,6.2805,6.2805,6.2805,6.2793,6.2805,6.2805,6.2679,6.2436,6.2172,6.1748,6.1182,6.1138,6.1123,6.1093,6.1093,6.1093,6.1093,6.1093,6.0983,6.0833,6.0671,6.0516,6.0396,5.9991,5.9795,5.9797,5.9451,5.9336,5.9354,5.9927,6.0168,6.0358,6.1841,6.2445,6.2618,6.3763,6.4213,6.4274,6.4193,6.3568,6.3326,6.408,6.3568,6.3383,6.4182,6.4294,6.4294,6.4294,6.4294,6.4182,6.3881,6.3834,6.3345,6.2219,6.1685,6.0971,6.0073,5.9624,5.9454,5.9607,5.9492,5.9992,6.1214,6.1196,6.1742,6.2871,6.3465,6.3719,6.3757,6.4237,6.4434,6.4348,6.38,6.3873,6.4257,6.3761,6.3873,6.4294,6.4334,6.4324,6.4294,6.4294,6.4294,6.4294,6.4294,6.4294,6.4294,6.4294,6.4294,6.4294,6.4294,6.4294,6.4294,6.4294,6.4244,6.4183,6.4183,6.4048,6.391,6.391,6.3812,6.3725,6.3725,6.3691,6.3669,6.3669,6.3624,6.3534,6.3289,0.0,6.3111,6.2904,6.283,6.2793,6.2793,6.2793,6.2793,6.2793,6.2793,6.2793,6.2793,6.2641,6.25,6.242,6.1955,6.1594,6.1365,6.1197,6.1093,6.1093,6.1093,6.1093,6.1093,6.0953,6.0878,6.0782,6.0578,6.036,6.0202,6.004,5.9797,5.9485,5.9486,5.9613,5.9858,6.0116,6.0771,6.1721,6.2273,6.279,6.3239,6.3801,6.4213,6.4264,6.4193,6.3783,6.3626,6.407,6.3783,6.3683,6.4219,6.4294,6.4294,6.4294,6.4069,6.3909,6.3909,6.3656,6.3168,6.2369,6.1506,6.0558,5.9556,5.9364,5.9355,5.9481,5.9655,6.0144,6.1037,6.1271,6.1806,6.2604,6.3236,6.3538,6.3576,6.413,6.4384,6.4346,6.3713,6.3806,6.4257,6.3683,6.3796,6.4294,6.4294,6.4294,6.4294,6.4294,6.4294,6.4294,6.4294,6.4294,6.4294,6.4294,6.4294,6.4294,6.4294,6.4294,6.4284,6.4254,6.4152,6.4042,6.4111,6.3953,6.378,6.378,6.368,6.359,6.359,6.359,6.3579,6.3545,6.3534,6.3454,6.3171,6.3123,6.3051,6.283,6.2793,6.2793,6.2793,6.2793,6.2793,6.2793,6.2793,6.2755,6.2667,6.2488,6.2291,6.2064,6.1684,6.143,6.1271,6.1146,6.1093,6.1093,6.1093,6.1093,6.1093,6.0893,6.0788,6.0727,6.0439,6.0186,5.9991,5.9962,5.9734,5.9437,5.9696,6.0046,6.0341,6.0772,6.1583,6.2549,6.2756,6.317,6.36,6.3903,6.4213,6.4294,6.4294,6.4294,6.4294,6.4294,6.4294,6.4294,6.4294,6.4294,6.4294,6.4294,6.3571,6.312,6.312,6.2294,6.1468,6.0632,5.9778,5.929,5.929,5.929,5.929,5.929,6.0144,6.1017,6.1816,6.267,6.3496,6.4294,6.4294,6.4294,6.4294,6.4294,6.4294,6.4294,6.4294,6.4294,6.4294,6.4294,6.4294,6.4294,6.4294,6.4294,6.4294,6.4294,6.4294,6.4294,6.4294,6.4294,6.4294,6.4294,6.4294,6.4294,6.4294,6.4294,6.4264,6.4152,6.4,6.391,6.4052,6.3953,6.378,6.378,6.368,6.359,6.359,6.359,6.3557,6.3405,6.3382,6.3301,6.3051,6.3002,6.2953,6.2818,6.2793,6.2793,6.2793,6.2793,6.2793,6.2793,6.2793,6.2679,6.2433,6.237,6.2078,6.135,6.1401,6.1271,6.0798,6.0968,6.1093,6.1093,6.1093,6.1093,6.1093,6.0893,6.0727,6.0578,6.0266,5.9975,5.9814,5.9652,5.9604,5.9657,6.0167,6.0445,6.0653,6.1999,6.2514,6.2618,6.3342,6.36,6.36,6.3728,6.3974,6.4011,6.4011,6.4111,6.3985,6.3395,6.3869,6.4106,6.3533,6.3956,6.4294,6.4294,6.3571,6.312,6.312,6.2294,6.1468,6.0632,5.9778,5.929,5.929,5.9891,6.0229,6.0229,6.1017,6.1844,6.2707,6.297,6.3496,6.4294,6.4294,6.4294,6.4294,6.4294,6.4294,6.4294,6.4294,6.4294,6.4294,6.4294,6.4294,6.4294,6.4294,6.4294,6.4294,6.4294,6.4294,6.4294,6.4294,6.4294,6.4284,6.4193,6.4172,6.4152,6.4031,6.4111,6.4142,6.399,6.3926,6.3894,6.3899,6.3769,6.3647,6.3647,6.3624,6.3568,6.3488,6.3477,6.3431,6.3265,6.3242,6.3194,6.3026,6.3002,6.2953,6.2818,6.2793,6.2793,6.2793,6.2793,6.2717,6.2526,6.25,6.2397,6.2132,6.1914,6.1515,6.0962,6.1117,6.1087,6.0798,6.0863,6.0893,6.0893,6.1034,6.1034,6.0893,6.0712,6.0532,6.025,5.9991,5.9732,5.9435,5.9536,5.9749,6.0047,6.0358,6.1033,6.193,6.236,6.2825,6.3289,6.3531,6.36,6.36,6.3705,6.3867,6.3915,6.3958,6.4031,6.3934,6.3447,6.3886,6.4076,6.3488,6.3934,6.4274,6.4234,6.3251,6.2595,6.2595,6.1506,6.0604,6.0116,5.9591,5.929,5.929,6.0107,6.0445,6.0079,6.0905,6.1731,6.2595,6.2932,6.3496,6.4294,6.4294,6.4294,6.4294,6.4294,6.4294,6.4294,6.4294,6.4294,6.4294,6.4294,6.4294,6.4294,6.4294,6.4294,6.4294,6.4294,6.4294,6.4294,6.4294,6.4264,6.4213,6.4142,6.4042,6.4,6.3926,6.3958,6.3979,6.391,6.3878,6.3856,6.3736,6.3647,6.359,6.359,6.359,6.3557,6.3442,6.3382,6.3336,6.3147,6.3111,6.3075,6.2941,6.2917,6.2892,6.2805,6.2793,6.2793,6.2793,6.2793,6.273,6.2565,6.2552,6.2436,6.2172,6.1706,6.1257,6.0888,6.0878,6.0823,6.0635,6.0681,6.0712,6.0712,6.1173,6.1173,6.0712,6.0578,6.036,6.0107,5.983,5.9586,5.9319,5.9699,5.9978,6.0272,6.0998,6.1775,6.2549,6.2825,6.3186,6.36,6.36,6.36,6.36,6.3769,6.3845,6.3905,6.4069,6.409,6.4052,6.3988,6.4155,6.4145,6.3814,6.4067,6.4206,6.4019,6.2685,6.1778,6.1703,6.0229,5.929,5.929,5.929,5.929,5.929,6.0079,6.0154,5.944,6.0342,6.1168,6.1919,6.2782,6.3571,6.4294,6.4294,6.4294,6.4294,6.4294,6.4294,6.4294,6.4294,6.4294,6.4294,6.4294,6.4294,6.4294,6.4294,6.4294,6.4294,6.4284,6.4284,6.4274,6.4264,6.4193,6.4063,6.409,6.3979,6.3883,6.3894,6.3883,6.3862,6.3791,6.378,6.3758,6.3624,6.359,6.359,6.3579,6.3579,6.3545,6.3382,6.3347,6.3277,6.3039,6.299,6.2941,6.2818,6.2793,6.2793,6.2793,6.2793,6.2793,6.2793,6.2793,6.278,6.2755,6.2705,6.2565,6.2291,6.165,6.114,6.0962,6.0712,6.0532,6.0396,6.0572,6.0669,6.0669,6.1463,6.1428,6.0563,6.0529,6.032,6.0059,5.9718,5.9488,5.9407,5.9944,6.0289,6.0496,6.1928,6.2549,6.2687,6.3324,6.36,6.36,6.36,6.36,6.36,6.3635,6.3658,6.3714,6.3834,6.3856,6.3664,6.3077,6.3557,6.3734,6.3056,6.3657,6.389,6.3232,6.2348,6.1543,6.0905,5.9891,5.929,5.929,5.929,5.929,5.929,5.9478,5.9816,6.0304,6.1806,6.2632,6.282,6.3646,6.4144,6.4294,6.4294,6.4294,6.4294,6.4294,6.4294,6.4294,6.4294,6.4294,6.4294,6.4294,6.4294,6.4294,6.4294,6.4294,6.4284,6.4193,6.4152,6.4142,6.4011,6.3958,6.3926,6.3878,6.3845,6.3802,6.3702,6.3747,6.3791,6.3669,6.3702,6.3758,6.3624,6.359,6.3568,6.3477,6.3428,6.3396,6.3135,6.3087,6.3039,6.2867,6.2842,6.283,6.2793,6.2793,6.2793,6.2793,6.2793,6.2793,6.2793,6.2793,6.2705,6.2524,6.1946,6.1579,6.1379,6.1004,6.0686,6.0532,6.0563,6.0532,6.0396,6.0975,6.1309,6.1309,6.1936,6.1671,6.0443,6.0832,6.0555,5.972,5.947,5.9614,5.9996,6.0134,6.0875,6.2031,6.2376,6.2859,6.3358,6.3531,6.36,6.36,6.36,6.36,6.36,6.359,6.359,6.3635,6.3758,6.378,6.3653,6.3297,6.3611,6.3723,6.3194,6.3633,6.3829,6.3376,6.2674,6.1931,6.1156,6.063,6.0237,5.9957,5.9844,5.9656,5.9328,5.9656,6.004,6.049,6.2091,6.2973,6.312,6.3533,6.3889,6.4213,6.4264,6.4264,6.4213,6.4264,6.4294,6.4294,6.4294,6.4294,6.4294,6.4294,6.4294,6.4294,6.4294,6.4294,6.4284,6.4162,6.4052,6.399,6.3926,6.3862,6.3856,6.3802,6.3747,6.368,6.3613,6.3635,6.368,6.3613,6.3635,6.3658,6.3545,6.3511,6.35,6.3442,6.3382,6.3312,6.3063,6.3002,6.2966,6.2818,6.2793,6.2793,6.2793,6.2793,6.2793,6.2793,6.2793,6.2793,6.2793,6.2679,6.2462,6.2105,6.1698,6.1451,6.1292,6.0908,6.0651,6.0609,6.0807,6.0893,6.0848,6.1536,6.1923,6.1923,6.2614,6.237,6.1195,6.1483,6.125,6.0547,6.0462,6.0532,6.0737,6.1116,6.1755,6.2549,6.2894,6.3255,6.36,6.36,6.36,6.36,6.36,6.36,6.36,6.359,6.359,6.3624,6.3736,6.3758,6.3758,6.3758,6.3797,6.3797,6.3624,6.378,6.3803,6.3604,6.2945,6.2265,6.1636,6.1538,6.1307,6.0782,6.0677,6.033,5.9713,6.0265,6.0665,6.0795,6.2051,6.2813,6.3053,6.3203,6.3586,6.4152,6.4224,6.4224,6.4152,6.4234,6.4274,6.4294,6.4294,6.4294,6.4294,6.4294,6.4294,6.4294,6.4274,6.4264,6.4244,6.4111,6.3958,6.3862,6.384,6.3823,6.3758,6.3758,6.368,6.359,6.359,6.359,6.359,6.3568,6.3557,6.3534,6.3419,6.3347,6.3347,6.3324,6.3324,6.3254,6.3014,6.2966,6.2929,6.2818,6.2793,6.2793,6.2793,6.2793,6.2793,6.2793,6.2793,6.2841,6.295,6.2803,6.2545,6.2095,6.1996,6.1933,6.1759,6.1345,6.1087,6.1087,6.1315,6.1476,6.1476,6.223,6.2616,6.2616,6.3355,6.3306,6.2454,6.2403,6.2127,6.1588,6.1553,6.1534,6.153,6.2186,6.2583,6.2756,6.3342,6.36,6.36,6.36,6.36,6.36,6.3563,6.3563,6.3544,6.359,6.359,6.3602,6.3613,6.3613,6.3613,6.3613,6.3635,6.3624,6.359,6.3714,6.353,6.2752,6.2087,6.161,6.1508,6.1498,6.1501,6.1462,6.1462,6.1377,6.1284,6.1377,6.1739,6.2367,6.2608,6.2782,6.2915,6.3617,6.407,6.4264,6.4183,6.4193,6.4264,6.4183,6.4193,6.4294,6.4294,6.4294,6.4294,6.4294,6.4294,6.4284,6.4183,6.4142,6.4111,6.391,6.3747,6.3647,6.3635,6.3624,6.3613,6.3613,6.3602,6.359,6.359,6.359,6.3568,6.3477,6.3442,6.337,6.3242,6.3243,6.3183,6.3075,6.3063,6.3014,6.2855,6.2818,6.2818,6.2793,6.2793,6.2793,6.2793,6.2793,6.2793,6.2793,6.2793,6.2961,6.3447,6.3807,6.3898,6.3566,6.3319,6.303,6.2718,6.2383,6.2188,6.2188,6.2228,6.2265,6.2265,6.3038,6.3459,6.3459,6.4025,6.4166,6.3902,6.3724,6.2923,6.1588,6.143,6.1686,6.2342,6.2445,6.2859,6.348,6.3565,6.36,6.36,6.36,6.36,6.3581,6.3396,6.334,6.3377,6.359,6.359,6.359,6.359,6.359,6.359,6.359,6.359,6.359,6.359,6.3635,6.352,6.3148,6.2858,6.2699,6.2774,6.271,6.2556,6.2249,6.216,6.1925,6.1548,6.1898,6.2246,6.2567,6.3062,6.335,6.3455,6.3903,6.4142,6.4193,6.4213,6.4213,6.4193,6.4213,6.4244,6.4294,6.4224,6.4234,6.4284,6.4152,6.4131,6.4183,6.4021,6.3979,6.3958,6.3845,6.3702,6.359,6.359,6.359,6.3579,6.3522,6.35,6.3488,6.3407,6.3384,6.3373,6.3289,6.3277,6.3242,6.3111,6.3087,6.3051,6.2917,6.3259,6.3468,6.2915,6.2793,6.2939,6.3429,6.3539,6.3686,6.4114,6.4187,6.4187,6.4187,6.4059,6.3892,6.3788,6.3928,6.3911,6.352,6.3258,6.3022,6.2817,6.2537,6.2405,6.2405,6.2827,6.3073,6.3073,6.3828,6.4197,6.4197,6.4444,6.4428,6.418,6.4198,6.3655,6.2726,6.2636,6.2772,6.3117,6.3117,6.3289,6.36,6.36,6.36,6.36,6.36,6.36,6.3618,6.3712,6.3749,6.3785]}]]